[[{"header":{"parameterUnit":"m.s-1","parameterCategory":1,"la1":30.6,"la2":28.766,"lo1":-90.7593,"lo2":-88.6598,"dy":0.0162,"dx":0.0183,"nx":116,"ny":114,"refTime":"2024-06-11T18:00:00:Z","depth":0,"parameterNumber":2,"parameterNumberName":"U-component_of_WINDS"},"data":[0.0,0.0,0.0,0.0,0.0,0.0,0.0,0.0,0.0,0.0,0.0,0.0,0.0,0.0,0.0,0.0,0.0,0.0,0.0,0.0,0.0,0.0,0.0,0.0,0.0,0.0,0.0,0.0,0.0,0.0,0.0,0.0,0.0,0.0,0.0,0.0,0.0,0.0,0.0,0.0,0.0,0.0,0.0,0.0,0.0,0.0,0.0,0.0,0.0,0.0,0.0,0.0,0.0,0.0,0.0,0.0,0.0,0.0,0.0,0.0,0.0,0.0,0.0,0.0,0.0,0.0,0.0,0.0,0.0,0.0,0.0,0.0,0.0,0.0,0.0,0.0,0.0,0.0,0.0,0.0,0.0,0.0,0.0,0.0,0.0,0.0,0.0,0.0,0.0,0.0,0.0,0.0,0.0,0.0,0.0,0.0,0.0,0.0,0.0,0.0,0.0,0.0,0.0,0.0,0.0,0.0,0.0,0.0,0.0,0.0,0.0,0.0,0.0,0.0,0.0,0.0,0.0,0.0,0.0,0.0,0.0,0.0,0.0,0.0,0.0,0.0,0.0,0.0,0.0,0.0,0.0,0.0,0.0,0.0,0.0,0.0,0.0,0.0,0.0,0.0,0.0,0.0,0.0,0.0,0.0,0.0,0.0,0.0,0.0,0.0,0.0,0.0,0.0,0.0,0.0,0.0,0.0,0.0,0.0,0.0,0.0,0.0,0.0,0.0,0.0,0.0,0.0,0.0,0.0,0.0,0.0,0.0,0.0,0.0,0.0,0.0,0.0,0.0,0.0,0.0,0.0,0.0,0.0,0.0,0.0,0.0,0.0,0.0,0.0,0.0,0.0,0.0,0.0,0.0,0.0,0.0,0.0,0.0,0.0,0.0,0.0,0.0,0.0,0.0,0.0,0.0,0.0,0.0,0.0,0.0,0.0,0.0,0.0,0.0,0.0,0.0,0.0,0.0,0.0,0.0,0.0,0.0,0.0,0.0,0.0,0.0,0.0,0.0,0.0,0.0,0.0,0.0,0.0,0.0,0.0,0.0,0.0,0.0,0.0,0.0,0.0,0.0,0.0,0.0,0.0,0.0,0.0,0.0,0.0,0.0,0.0,0.0,0.0,0.0,0.0,0.0,0.0,0.0,0.0,0.0,0.0,0.0,0.0,0.0,0.0,0.0,0.0,0.0,0.0,0.0,0.0,0.0,0.0,0.0,0.0,0.0,0.0,0.0,0.0,0.0,0.0,0.0,0.0,0.0,0.0,0.0,0.0,0.0,0.0,0.0,0.0,0.0,0.0,0.0,0.0,0.0,0.0,0.0,0.0,0.0,0.0,0.0,0.0,0.0,0.0,0.0,0.0,0.0,0.0,0.0,0.0,0.0,0.0,0.0,0.0,0.0,0.0,0.0,0.0,0.0,0.0,0.0,0.0,0.0,0.0,0.0,0.0,0.0,0.0,0.0,0.0,0.0,0.0,0.0,0.0,0.0,0.0,0.0,0.0,0.0,0.0,0.0,0.0,0.0,0.0,0.0,0.0,0.0,0.0,0.0,0.0,0.0,0.0,0.0,0.0,0.0,0.0,0.0,0.0,0.0,0.0,0.0,0.0,0.0,0.0,0.0,0.0,0.0,0.0,0.0,0.0,0.0,0.0,0.0,0.0,0.0,0.0,0.0,0.0,0.0,0.0,0.0,0.0,0.0,0.0,0.0,0.0,0.0,0.0,0.0,0.0,0.0,0.0,0.0,0.0,0.0,0.0,0.0,0.0,0.0,0.0,0.0,0.0,0.0,0.0,0.0,0.0,0.0,0.0,0.0,0.0,0.0,0.0,0.0,0.0,0.0,0.0,0.0,0.0,0.0,0.0,0.0,0.0,0.0,0.0,0.0,0.0,0.0,0.0,0.0,0.0,0.0,0.0,0.0,0.0,0.0,0.0,0.0,0.0,0.0,0.0,0.0,0.0,0.0,0.0,0.0,0.0,0.0,0.0,0.0,0.0,0.0,0.0,0.0,0.0,0.0,0.0,0.0,0.0,0.0,0.0,0.0,0.0,0.0,0.0,0.0,0.0,0.0,0.0,0.0,0.0,0.0,0.0,0.0,0.0,0.0,0.0,0.0,0.0,0.0,0.0,0.0,0.0,0.0,0.0,0.0,0.0,0.0,0.0,0.0,0.0,0.0,0.0,0.0,0.0,0.0,0.0,0.0,0.0,0.0,0.0,0.0,0.0,0.0,0.0,0.0,0.0,0.0,0.0,0.0,0.0,0.0,0.0,0.0,0.0,0.0,0.0,0.0,0.0,0.0,0.0,0.0,0.0,0.0,0.0,0.0,0.0,0.0,0.0,0.0,0.0,0.0,0.0,0.0,0.0,0.0,0.0,0.0,0.0,0.0,0.0,0.0,0.0,0.0,0.0,0.0,0.0,0.0,0.0,0.0,0.0,0.0,0.0,0.0,0.0,0.0,0.0,0.0,0.0,0.0,0.0,0.0,0.0,0.0,0.0,0.0,0.0,0.0,0.0,0.0,0.0,0.0,0.0,0.0,0.0,0.0,0.0,0.0,0.0,0.0,0.0,0.0,0.0,0.0,0.0,0.0,0.0,0.0,0.0,0.0,0.0,0.0,0.0,0.0,0.0,0.0,0.0,0.0,0.0,0.0,0.0,0.0,0.0,0.0,0.0,0.0,0.0,0.0,0.0,0.0,0.0,0.0,0.0,0.0,0.0,0.0,0.0,0.0,0.0,0.0,0.0,0.0,0.0,0.0,0.0,0.0,0.0,0.0,0.0,0.0,0.0,0.0,0.0,0.0,0.0,0.0,0.0,0.0,0.0,0.0,0.0,0.0,0.0,0.0,0.0,0.0,0.0,0.0,0.0,0.0,0.0,0.0,0.0,0.0,0.0,0.0,0.0,0.0,0.0,0.0,0.0,0.0,0.0,0.0,0.0,0.0,0.0,0.0,0.0,0.0,0.0,0.0,0.0,0.0,0.0,0.0,0.0,0.0,0.0,0.0,0.0,0.0,0.0,0.0,0.0,0.0,0.0,0.0,0.0,0.0,0.0,0.0,0.0,0.0,0.0,0.0,0.0,0.0,0.0,0.0,0.0,0.0,0.0,0.0,0.0,0.0,0.0,0.0,0.0,0.0,0.0,0.0,0.0,0.0,0.0,0.0,0.0,0.0,0.0,0.0,0.0,0.0,0.0,0.0,0.0,0.0,0.0,0.0,0.0,0.0,0.0,0.0,0.0,0.0,0.0,0.0,0.0,0.0,0.0,0.0,0.0,0.0,0.0,0.0,0.0,0.0,0.0,0.0,0.0,0.0,0.0,0.0,0.0,0.0,0.0,0.0,0.0,0.0,0.0,0.0,0.0,0.0,0.0,0.0,0.0,0.0,0.0,0.0,0.0,0.0,0.0,0.0,0.0,0.0,0.0,0.0,0.0,0.0,0.0,0.0,0.0,0.0,0.0,0.0,0.0,0.0,0.0,0.0,0.0,0.0,0.0,0.0,0.0,0.0,0.0,0.0,0.0,0.0,0.0,0.0,0.0,0.0,0.0,0.0,0.0,0.0,0.0,0.0,0.0,0.0,0.0,0.0,0.0,0.0,0.0,0.0,0.0,0.0,0.0,0.0,0.0,0.0,0.0,0.0,0.0,0.0,0.0,0.0,0.0,0.0,0.0,0.0,0.0,0.0,0.0,0.0,0.0,0.0,0.0,0.0,0.0,0.0,0.0,0.0,0.0,0.0,0.0,0.0,0.0,0.0,0.0,0.0,0.0,0.0,0.0,0.0,0.0,0.0,0.0,0.0,0.0,0.0,0.0,0.0,0.0,0.0,0.0,0.0,0.0,0.0,0.0,0.0,0.0,0.0,0.0,0.0,0.0,0.0,0.0,0.0,0.0,0.0,0.0,0.0,0.0,0.0,0.0,0.0,0.0,0.0,0.0,0.0,0.0,0.0,0.0,0.0,0.0,0.0,0.0,0.0,0.0,0.0,0.0,0.0,0.0,0.0,0.0,0.0,0.0,0.0,0.0,0.0,0.0,0.0,0.0,0.0,0.0,0.0,0.0,0.0,0.0,0.0,0.0,0.0,0.0,0.0,0.0,0.0,0.0,0.0,0.0,0.0,0.0,0.0,0.0,0.0,0.0,0.0,0.0,0.0,0.0,0.0,0.0,0.0,0.0,0.0,0.0,0.0,0.0,0.0,0.0,0.0,0.0,0.0,0.0,0.0,0.0,0.0,0.0,0.0,0.0,0.0,0.0,0.0,0.0,0.0,0.0,0.0,0.0,0.0,0.0,0.0,0.0,0.0,0.0,0.0,0.0,0.0,0.0,0.0,0.0,0.0,0.0,0.0,0.0,0.0,0.0,0.0,0.0,0.0,0.0,0.0,0.0,0.0,0.0,0.0,0.0,0.0,0.0,0.0,0.0,0.0,0.0,0.0,0.0,0.0,0.0,0.0,0.0,0.0,0.0,0.0,0.0,0.0,0.0,0.0,0.0,0.0,0.0,0.0,0.0,0.0,0.0,0.0,0.0,0.0,0.0,0.0,0.0,0.0,0.0,0.0,0.0,0.0,0.0,0.0,0.0,0.0,0.0,0.0,0.0,0.0,0.0,0.0,0.0,0.0,0.0,0.0,0.0,0.0,0.0,0.0,0.0,0.0,0.0,0.0,0.0,0.0,0.0,0.0,0.0,0.0,0.0,0.0,0.0,0.0,0.0,0.0,0.0,0.0,0.0,0.0,0.0,0.0,0.0,0.0,0.0,0.0,0.0,0.0,0.0,0.0,0.0,0.0,0.0,0.0,0.0,0.0,0.0,0.0,0.0,0.0,0.0,0.0,0.0,0.0,0.0,0.0,0.0,0.0,0.0,0.0,0.0,0.0,0.0,0.0,0.0,0.0,0.0,0.0,0.0,0.0,0.0,0.0,0.0,0.0,0.0,0.0,0.0,0.0,0.0,0.0,0.0,0.0,0.0,0.0,0.0,0.0,0.0,0.0,0.0,0.0,0.0,0.0,0.0,0.0,0.0,0.0,0.0,0.0,0.0,0.0,0.0,0.0,0.0,0.0,0.0,0.0,0.0,0.0,0.0,0.0,0.0,0.0,0.0,0.0,0.0,0.0,0.0,0.0,0.0,0.0,0.0,0.0,0.0,0.0,0.0,0.0,0.0,0.0,0.0,0.0,0.0,0.0,0.0,0.0,0.0,0.0,0.0,0.0,0.0,0.0,0.0,0.0,0.0,0.0,0.0,0.0,0.0,0.0,0.0,0.0,0.0,0.0,0.0,0.0,0.0,0.0,0.0,0.0,0.0,0.0,0.0,0.0,0.0,0.0,0.0,0.0,0.0,0.0,0.0,0.0,0.0,0.0,0.0,0.0,0.0,0.0,0.0,0.0,0.0,0.0,0.0,0.0,0.0,0.0,0.0,0.0,0.0,0.0,0.0,0.0,0.0,0.0,0.0,0.0,0.0,0.0,0.0,0.0,0.0,0.0,0.0,0.0,0.0,0.0,0.0,0.0,0.0,0.0,0.0,0.0,0.0,0.0,0.0,0.0,0.0,0.0,0.0,0.0,0.0,0.0,0.0,0.0,0.0,0.0,0.0,0.0,0.0,0.0,0.0,0.0,0.0,0.0,0.0,0.0,0.0,0.0,0.0,0.0,0.0,0.0,0.0,0.0,0.0,0.0,0.0,0.0,0.0,0.0,0.0,0.0,0.0,0.0,0.0,0.0,0.0,0.0,0.0,0.0,0.0,0.0,0.0,0.0,0.0,0.0,0.0,0.0,0.0,0.0,0.0,0.0,0.0,0.0,0.0,0.0,0.0,0.0,0.0,0.0,0.0,0.0,0.0,0.0,0.0,0.0,0.0,0.0,0.0,0.0,0.0,0.0,0.0,0.0,0.0,0.0,0.0,0.0,0.0,0.0,0.0,0.0,0.0,0.0,0.0,0.0,0.0,0.0,0.0,0.0,0.0,0.0,0.0,0.0,0.0,0.0,0.0,0.0,0.0,0.0,0.0,0.0,0.0,0.0,0.0,0.0,0.0,0.0,0.0,0.0,0.0,0.0,0.0,0.0,0.0,0.0,0.0,0.0,0.0,0.0,-2.2795,-2.3005,0.0,0.0,0.0,0.0,0.0,0.0,0.0,0.0,0.0,0.0,0.0,0.0,0.0,0.0,0.0,0.0,0.0,0.0,0.0,0.0,0.0,0.0,0.0,-1.3586,-1.4018,-1.4803,-1.4653,-1.4621,-1.4879,0.0,0.0,0.0,0.0,0.0,-1.325,-1.3114,-1.3062,-1.3037,-1.2513,-1.2238,-1.2244,-1.2361,-1.2479,-1.2668,0.0,0.0,0.0,0.0,0.0,0.0,0.0,0.0,0.0,0.0,0.0,0.0,0.0,0.0,0.0,0.0,0.0,0.0,0.0,0.0,0.0,0.0,0.0,0.0,0.0,0.0,0.0,0.0,0.0,0.0,0.0,0.0,0.0,0.0,0.0,0.0,0.0,0.0,0.0,0.0,0.0,0.0,0.0,0.0,0.0,0.0,0.0,0.0,0.0,0.0,0.0,0.0,0.0,0.0,0.0,0.0,0.0,0.0,0.0,0.0,0.0,0.0,0.0,0.0,0.0,0.0,0.0,0.0,0.0,0.0,-2.3973,-2.3773,0.0,0.0,0.0,0.0,0.0,0.0,0.0,0.0,0.0,0.0,0.0,0.0,0.0,0.0,0.0,0.0,0.0,0.0,0.0,0.0,0.0,-1.2584,-1.3559,-1.3817,-1.4197,-1.5032,-1.4688,-1.4544,-1.4736,-1.4592,0.0,0.0,0.0,-1.4065,-1.3791,-1.3525,-1.3523,-1.368,-1.2915,-1.2506,-1.2458,-1.2656,-1.2583,-1.2269,-1.2179,0.0,0.0,0.0,0.0,0.0,0.0,0.0,0.0,0.0,0.0,0.0,0.0,0.0,0.0,0.0,0.0,0.0,0.0,0.0,0.0,0.0,0.0,0.0,0.0,0.0,0.0,0.0,0.0,0.0,0.0,0.0,0.0,0.0,0.0,0.0,0.0,0.0,0.0,0.0,0.0,0.0,0.0,0.0,0.0,0.0,0.0,0.0,0.0,0.0,0.0,0.0,0.0,0.0,0.0,0.0,0.0,0.0,0.0,0.0,0.0,0.0,0.0,0.0,-2.5307,-2.5307,-2.5307,-2.5307,-2.6079,-2.7312,-2.5767,-2.5307,-2.5566,-2.5625,0.0,0.0,0.0,0.0,0.0,0.0,0.0,0.0,0.0,0.0,0.0,0.0,0.0,0.0,0.0,0.0,0.0,0.0,0.0,-1.2253,-1.3082,-1.3616,-1.4197,-1.5032,-1.5035,-1.5035,-1.5035,-1.5213,0.0,-1.4882,-1.5303,-1.5325,-1.4797,-1.4789,-1.4599,-1.4392,-1.3726,-1.3291,-1.3094,-1.3346,-1.3425,-1.3373,-1.2962,-1.27,-1.2556,0.0,0.0,0.0,0.0,0.0,0.0,0.0,0.0,0.0,0.0,0.0,0.0,0.0,0.0,0.0,0.0,0.0,0.0,0.0,0.0,0.0,0.0,0.0,0.0,0.0,0.0,0.0,0.0,0.0,0.0,0.0,0.0,0.0,0.0,0.0,0.0,0.0,0.0,0.0,0.0,0.0,-2.3407,-2.3908,0.0,0.0,0.0,0.0,0.0,0.0,0.0,0.0,0.0,0.0,0.0,0.0,0.0,-2.6683,-2.7417,-2.7381,-2.7381,-2.7417,-2.7417,-2.7417,-2.7417,-2.7417,-2.8051,-2.9235,-2.9008,0.0,-2.8574,-2.7971,0.0,0.0,0.0,0.0,0.0,0.0,0.0,0.0,0.0,0.0,0.0,0.0,0.0,0.0,0.0,0.0,0.0,0.0,0.0,0.0,0.0,-1.3411,-1.387,-1.4368,-1.4515,-1.4646,-1.4867,-1.4978,-1.4948,-1.4832,-1.5054,-1.5003,-1.4608,-1.4305,-1.4104,-1.3942,-1.3939,-1.3965,-1.3976,-1.4236,-1.4289,-1.416,-1.4114,-1.3754,-1.3145,-1.287,0.0,0.0,0.0,0.0,0.0,0.0,0.0,0.0,0.0,0.0,0.0,0.0,0.0,0.0,0.0,0.0,0.0,0.0,0.0,0.0,0.0,0.0,0.0,0.0,0.0,0.0,0.0,0.0,0.0,0.0,0.0,0.0,0.0,0.0,0.0,0.0,0.0,0.0,0.0,-2.3382,-2.395,-2.4183,-2.4409,-2.439,0.0,0.0,0.0,0.0,0.0,0.0,0.0,0.0,0.0,-2.7288,-2.7068,-2.7306,-2.8113,-2.7893,-2.7822,-2.7822,-2.7822,-2.7822,-2.7822,-2.7822,-2.8236,-2.8956,-2.9657,-2.9829,-2.9707,-2.9959,-2.9671,-2.9055,0.0,0.0,0.0,0.0,-2.967,-3.0032,0.0,0.0,0.0,0.0,0.0,0.0,0.0,0.0,0.0,0.0,0.0,0.0,-1.2863,-1.3213,-1.355,-1.3857,-1.3985,-1.4172,-1.4456,-1.4497,-1.4565,-1.4576,-1.4731,-1.4671,-1.4481,-1.4072,-1.386,-1.3869,-1.4219,-1.4501,-1.4726,-1.4985,-1.498,-1.4844,-1.5105,-1.4692,-1.3822,-1.3506,-1.3267,-1.3065,0.0,0.0,0.0,0.0,0.0,0.0,0.0,0.0,0.0,0.0,0.0,0.0,0.0,0.0,0.0,0.0,0.0,0.0,0.0,0.0,0.0,0.0,0.0,0.0,0.0,0.0,0.0,0.0,0.0,0.0,0.0,0.0,0.0,0.0,0.0,0.0,0.0,-2.4207,-2.4826,-2.4826,-2.5451,-2.5564,0.0,0.0,0.0,0.0,0.0,0.0,-2.7362,-2.7251,-2.7655,-2.8663,-2.8113,-2.8132,-2.8847,-2.8553,-2.8388,-2.8388,-2.8388,-2.8388,-2.8388,-2.8388,-2.8674,-2.921,-3.0103,-3.0602,-3.0804,-3.1583,-3.1715,-3.1373,-3.1521,-3.1451,-3.119,-3.1142,-3.1052,-3.1006,0.0,0.0,0.0,0.0,0.0,0.0,0.0,0.0,0.0,0.0,0.0,-1.2397,-1.2674,-1.2952,-1.3338,-1.3857,-1.3664,-1.3628,-1.3906,-1.4198,-1.4338,-1.4303,-1.4769,-1.4988,-1.4988,-1.4929,-1.4905,-1.4937,-1.495,-1.4963,-1.4963,-1.5244,-1.5378,-1.5391,-1.5658,-1.5305,-1.4531,-1.3982,-1.386,-1.3948,-1.2896,0.0,0.0,0.0,0.0,0.0,0.0,0.0,0.0,0.0,0.0,0.0,0.0,0.0,0.0,0.0,0.0,0.0,0.0,0.0,0.0,0.0,0.0,0.0,0.0,0.0,0.0,0.0,0.0,0.0,0.0,0.0,0.0,0.0,0.0,0.0,0.0,0.0,0.0,-2.6463,-2.683,0.0,0.0,0.0,0.0,-2.6554,-2.7618,-2.8113,-2.7803,-2.8462,-2.9067,-2.9549,-2.947,-2.9672,-3.0112,-3.0094,-3.0075,-3.0075,-3.0075,-3.0075,-3.0075,-3.0075,-3.0527,-3.1268,-3.1327,-3.1778,-3.2499,-3.2738,-3.2019,-3.0884,-3.2532,-3.2582,-3.1658,-3.1455,-3.112,-3.0799,0.0,0.0,0.0,0.0,0.0,-1.0081,-1.0599,-1.0936,-1.1274,-1.1682,-1.2054,-1.2409,-1.2674,-1.2924,-1.3175,-1.3375,-1.3422,-1.3579,-1.3857,-1.3948,-1.4055,-1.4266,-1.4465,-1.4558,-1.4558,-1.474,-1.4965,-1.5338,-1.5476,-1.5756,-1.6086,-1.6192,-1.6246,-1.6246,-1.6353,-1.6224,-1.5875,-1.4967,-1.4492,-1.4309,-1.3519,-1.324,0.0,0.0,0.0,0.0,0.0,0.0,0.0,0.0,0.0,0.0,0.0,0.0,0.0,0.0,0.0,0.0,0.0,0.0,0.0,0.0,0.0,0.0,0.0,0.0,0.0,0.0,0.0,0.0,0.0,0.0,0.0,0.0,0.0,0.0,0.0,0.0,0.0,-2.6591,-2.7398,0.0,-2.738,-2.7948,-2.8388,-2.8498,-2.8902,-2.9214,-2.9324,-2.9617,-2.9947,-3.0351,-3.0112,-3.0167,-3.0571,-3.0332,-3.0204,-3.0204,-3.0204,-3.0332,-3.0589,-3.0589,-3.0747,-3.1015,-3.1015,-3.1485,-3.2394,-3.2887,-3.2929,-3.2728,-3.3847,-3.4028,-3.3695,-3.3592,-3.3479,-3.3395,0.0,0.0,0.0,0.0,-1.0033,-1.025,-1.0863,-1.1214,-1.1552,-1.1999,-1.2288,-1.2506,-1.2687,-1.2881,-1.2991,-1.3097,-1.3213,-1.3393,-1.3631,-1.3733,-1.3902,-1.4004,-1.4288,-1.4515,-1.479,-1.4981,-1.5351,-1.5884,-1.6068,-1.6365,-1.67,-1.67,-1.67,-1.67,-1.67,-1.67,-1.666,-1.5872,-1.5324,-1.491,-1.4322,-1.3986,-1.384,0.0,0.0,0.0,0.0,0.0,0.0,0.0,0.0,0.0,0.0,0.0,0.0,0.0,0.0,0.0,0.0,0.0,0.0,0.0,0.0,0.0,0.0,0.0,0.0,0.0,0.0,0.0,0.0,0.0,0.0,0.0,0.0,0.0,0.0,-2.6591,-2.7196,-2.7196,-2.826,-2.8847,-2.8483,-2.8993,-2.9507,-2.9764,-2.991,-3.0112,-3.0387,-3.0534,-3.0717,-3.0974,-3.0736,-3.0717,-3.0992,-3.0736,-3.0589,-3.0589,-3.0589,-3.0736,-3.0992,-3.0992,-3.0919,-3.0854,-3.1276,-3.176,-3.2293,-3.362,-3.4297,-3.4515,-3.5114,-3.529,-3.5237,-3.4865,-3.4592,-3.4464,0.0,0.0,0.0,-1.0202,-1.0298,-1.0575,-1.1369,-1.1718,-1.2023,-1.2276,-1.2542,-1.2699,-1.2699,-1.2699,-1.2819,-1.3041,-1.3121,-1.3077,-1.3077,-1.3604,-1.3785,-1.3544,-1.4213,-1.5003,-1.5784,-1.5811,-1.6091,-1.6727,-1.6727,-1.6727,-1.6727,-1.6727,-1.6727,-1.6727,-1.6727,-1.6727,-1.6727,-1.6727,-1.6393,-1.5818,-1.5231,-1.4816,-1.4522,0.0,0.0,0.0,0.0,0.0,0.0,0.0,0.0,0.0,0.0,0.0,0.0,0.0,0.0,0.0,0.0,0.0,0.0,0.0,0.0,0.0,0.0,0.0,0.0,0.0,0.0,0.0,0.0,0.0,0.0,0.0,0.0,0.0,-2.6591,-2.7673,-2.8407,-2.8425,-2.9489,-3.0057,-2.9654,-2.9984,-3.0241,-3.0241,-3.0589,-3.0809,-3.0809,-3.1176,-3.1377,-3.1377,-3.1377,-3.1377,-3.1377,-3.1377,-3.1377,-3.1377,-3.1377,-3.1377,-3.1396,-3.1396,-3.1258,-3.0954,-3.2234,-3.2662,-3.2533,-3.4997,-3.6049,-3.6077,-3.6248,-3.6355,-3.6191,-3.4991,-3.4274,-3.39,0.0,0.0,-0.9901,-1.0238,-1.0454,-1.0779,-1.1405,-1.1718,-1.2023,-1.2276,-1.2542,-1.2699,-1.2699,-1.2699,-1.2735,-1.2819,-1.3012,-1.3077,-1.3077,-1.3435,-1.3768,-1.4075,-1.4816,-1.5444,-1.5848,-1.6072,-1.646,-1.7072,-1.7072,-1.7141,-1.7341,-1.7341,-1.7341,-1.7341,-1.7341,-1.7341,-1.7328,-1.7166,-1.6978,-1.6714,-1.5912,-1.5538,-1.5371,0.0,0.0,0.0,0.0,0.0,0.0,0.0,0.0,0.0,0.0,0.0,0.0,0.0,0.0,0.0,0.0,0.0,0.0,0.0,0.0,0.0,0.0,0.0,0.0,0.0,0.0,0.0,0.0,0.0,0.0,0.0,-2.6848,-2.7765,-2.7875,-2.8425,-2.892,-2.9214,-3.0075,-3.0589,-3.0461,-3.0809,-3.1047,-3.1047,-3.1157,-3.1212,-3.1212,-3.1322,-3.1377,-3.1377,-3.1377,-3.1377,-3.1377,-3.1377,-3.1377,-3.1377,-3.1377,-3.1543,-3.1836,-3.1836,-3.2329,-3.3162,-3.3525,-3.4528,-3.5912,-3.6307,-3.7044,-3.7791,-3.7107,-3.6828,-3.6727,-3.6063,-3.5727,-3.5645,0.0,-0.9805,-1.0021,-1.0394,-1.0671,-1.1069,-1.1573,-1.1914,-1.218,-1.2445,-1.2614,-1.2699,-1.2699,-1.2699,-1.2699,-1.2699,-1.3061,-1.3286,-1.3253,-1.3853,-1.4387,-1.4946,-1.5537,-1.6017,-1.6434,-1.6605,-1.6881,-1.738,-1.738,-1.7474,-1.7582,-1.7582,-1.7582,-1.7582,-1.7582,-1.7582,-1.7569,-1.7447,-1.738,-1.7326,-1.6633,-1.6313,-1.6152,-1.5685,-1.5558,-1.5531,-1.5276,-1.5196,-1.5169,-1.5048,0.0,0.0,0.0,0.0,0.0,0.0,0.0,0.0,0.0,0.0,0.0,0.0,0.0,0.0,0.0,0.0,0.0,0.0,0.0,0.0,0.0,0.0,0.0,0.0,-2.7875,-2.881,-2.9324,-2.9452,-2.9635,-3.0039,-3.0644,-3.1029,-3.1029,-3.1249,-3.1377,-3.1377,-3.1377,-3.1377,-3.1377,-3.1377,-3.1377,-3.1377,-3.1377,-3.1377,-3.1377,-3.1377,-3.1377,-3.1377,-3.1377,-3.1506,-3.1744,-3.1744,-3.2181,-3.2918,-3.3495,-3.4792,-3.6499,-3.6785,-3.771,-3.878,0.0,0.0,0.0,0.0,-3.6461,-3.6332,0.0,-0.9949,-1.0142,-1.0599,-1.096,-1.1335,-1.1802,-1.2143,-1.2421,-1.2711,-1.2723,-1.2711,-1.2747,-1.2723,-1.2699,-1.2699,-1.3206,-1.3582,-1.3735,-1.4655,-1.5441,-1.5908,-1.6258,-1.6634,-1.7192,-1.7233,-1.738,-1.7582,-1.7582,-1.7582,-1.7582,-1.7582,-1.7582,-1.7582,-1.7582,-1.7582,-1.7582,-1.7582,-1.7582,-1.7555,-1.7353,-1.7072,-1.6727,-1.6433,-1.6375,-1.6259,-1.5738,-1.5551,-1.5558,-1.5427,0.0,0.0,0.0,0.0,0.0,0.0,0.0,0.0,0.0,0.0,0.0,0.0,0.0,0.0,0.0,0.0,0.0,0.0,0.0,0.0,0.0,0.0,0.0,0.0,-2.9104,-2.9562,-3.0644,-3.0534,-3.0461,-3.0809,-3.1157,-3.1377,-3.1377,-3.1377,-3.1377,-3.1377,-3.1377,-3.1377,-3.1377,-3.1377,0.0,0.0,0.0,-3.1377,-3.1377,-3.1377,-3.1377,-3.1377,-3.1377,-3.1377,-3.1377,-3.1377,-3.1506,-3.1699,-3.3063,-3.4363,-3.5746,-3.7006,-3.8231,-3.9216,-3.8252,-3.7839,-3.7724,-3.7288,-3.6805,-3.6346,0.0,-1.025,-1.0563,-1.0671,-1.1092,-1.1513,-1.1838,-1.2143,-1.2493,-1.2976,-1.2843,-1.2795,-1.3012,-1.2843,-1.2699,-1.2699,-1.3383,-1.4188,-1.5086,-1.5506,-1.5872,-1.6221,-1.6762,-1.7088,-1.7206,-1.7434,-1.7528,-1.7582,-1.7582,-1.7582,-1.7582,-1.7582,-1.7582,-1.7582,-1.7582,-1.7582,-1.7582,-1.7582,-1.7582,-1.7582,-1.7515,-1.7328,-1.7085,-1.674,-1.662,-1.6607,-1.65,-1.6446,-1.6594,-1.7455,-1.7544,-1.7516,-1.8645,-1.9379,0.0,0.0,0.0,0.0,0.0,0.0,0.0,0.0,0.0,0.0,0.0,0.0,0.0,0.0,0.0,0.0,0.0,0.0,0.0,-2.8865,-2.98,-3.0516,-3.0754,-3.0992,-3.1176,-3.1249,-3.1322,-3.1377,-3.1377,-3.1377,-3.1377,-3.1377,-3.1377,-3.1377,-3.1377,-3.1377,-3.1377,-3.1377,-3.1377,-3.1377,-3.1377,-3.1377,-3.1377,-3.1377,-3.1377,0.0,-3.1377,-3.1377,-3.2001,-3.3063,-3.4445,-3.5725,-3.7067,-3.8373,-3.9049,-3.9239,-3.8665,-3.816,-3.777,-3.7678,-3.7311,-3.6897,-1.0298,-1.0503,-1.0767,-1.1044,-1.1417,-1.1778,-1.2083,-1.2337,-1.2602,-1.288,-1.2916,-1.3008,-1.3273,-1.3197,-1.3092,-1.3089,-1.3723,-1.4553,-1.5622,-1.6062,-1.6421,-1.6724,-1.7156,-1.742,-1.742,-1.7502,-1.7582,-1.7582,-1.7582,-1.7582,-1.7582,-1.7582,-1.7582,-1.7582,-1.7582,-1.7582,-1.7582,-1.7582,-1.7582,-1.7582,-1.7582,-1.7502,-1.7407,-1.7194,-1.7141,-1.7128,-1.6981,-1.6927,-1.7103,-1.8087,-1.8272,-1.8432,-2.0053,-2.0742,-2.0916,0.0,0.0,0.0,0.0,0.0,0.0,0.0,0.0,0.0,0.0,0.0,0.0,0.0,0.0,-2.7013,-2.7454,0.0,-2.9177,-2.9782,-3.0387,-3.0864,-3.1047,-3.1249,-3.1377,-3.1377,-3.1377,-3.1377,-3.1377,-3.1561,-3.1689,-3.1689,-3.1873,-3.1983,-3.1983,-3.1983,-3.1891,-3.1689,-3.1689,-3.1598,-3.1377,-3.1377,-3.1377,-3.1377,-3.1377,-3.1377,-3.1377,-3.1377,-3.1744,-3.2447,-3.3126,-3.4113,-3.5458,-3.6785,-3.733,-3.7309,-3.709,-3.7487,-3.8183,-3.8183,-3.7862,-3.7402,-1.0791,-1.0803,-1.0984,-1.1417,-1.1754,-1.2071,-1.2276,-1.253,-1.2747,-1.2843,-1.3012,-1.3201,-1.3565,-1.3591,-1.3627,-1.3723,-1.418,-1.4895,-1.5895,-1.6418,-1.686,-1.7273,-1.7462,-1.7582,-1.7582,-1.7582,-1.7582,-1.7582,-1.7582,-1.7582,-1.7582,-1.7582,-1.7582,-1.7582,-1.7582,-1.7582,-1.7582,-1.7582,-1.7582,-1.7582,-1.7582,-1.7582,-1.7582,-1.7582,-1.7582,-1.7555,-1.7367,-1.7286,-1.7452,-1.8505,-1.8915,-1.9247,-2.1368,-2.1944,-2.2035,-2.2767,-2.3187,0.0,0.0,0.0,0.0,0.0,0.0,0.0,0.0,-2.5727,-2.6609,-2.6958,-2.7893,-2.8755,-2.914,-2.9544,-3.0039,-3.0791,-3.0901,-3.1011,-3.1341,-3.1377,-3.1377,-3.1377,-3.1377,-3.1414,-3.1488,-3.1799,-3.2038,-3.2111,-3.2423,-3.2588,-3.2588,-3.2588,-3.2441,-3.2129,-3.2129,-3.1964,-3.1616,-3.1543,-3.1506,-3.1506,-3.1414,-3.1377,-3.1377,-3.1377,-3.1377,-3.1442,-3.1699,-3.2575,-3.3882,-3.5232,-3.5807,-3.5807,-3.6053,-3.7232,-3.8653,-3.8186,-3.7672,-3.7221,0.0,-1.1236,-1.1417,-1.1477,-1.1898,-1.2276,-1.2312,-1.253,-1.288,-1.3363,-1.3254,-1.3302,-1.3807,-1.3869,-1.406,-1.4523,-1.4864,-1.5347,-1.6208,-1.6537,-1.6954,-1.7515,-1.7569,-1.7582,-1.7582,-1.7582,-1.7582,-1.7582,-1.7582,-1.7582,-1.7582,-1.7582,-1.7582,-1.7582,-1.7582,-1.7582,-1.7582,-1.7582,-1.7582,-1.7582,-1.7582,-1.7582,-1.7582,-1.7582,-1.7582,-1.7582,-1.7542,-1.7542,-1.7896,-1.9913,-2.0613,-2.102,-2.3214,-2.3621,-2.3281,-2.3377,-2.3206,-2.2986,-2.3023,-2.3297,-2.3718,-2.4464,-2.5197,-2.6094,0.0,-2.7765,-2.8242,-2.8627,-2.9104,-2.9562,-2.9984,-3.0387,-3.0791,-3.1231,-3.1304,-3.1322,-3.1377,-3.1377,-3.1377,-3.1377,-3.1377,-3.1524,-3.1909,-3.1983,-3.2148,-3.2496,-3.257,-3.2588,-3.2588,-3.2588,-3.257,-3.2533,-3.2533,-3.2496,-3.2459,-3.2111,-3.1946,-3.1928,-3.1561,-3.1377,-3.1377,-3.1377,-3.1377,-3.1442,-3.2683,-3.3945,-3.5253,-3.6581,-3.7067,-3.7188,-3.8373,-3.9026,-3.8921,-3.6578,-3.543,-3.5131,0.0,-1.1335,-1.1537,-1.1694,-1.2071,-1.2361,-1.2518,-1.2638,-1.2783,-1.3012,-1.3218,-1.348,-1.3848,-1.4185,-1.4494,-1.4927,-1.5032,-1.5528,-1.646,-1.6663,-1.6967,-1.7555,-1.7582,-1.7582,-1.7582,-1.7582,-1.7582,-1.7582,-1.7582,-1.7582,-1.7582,-1.7582,-1.7582,-1.7582,-1.7582,-1.7582,-1.7582,-1.7582,-1.7582,-1.7582,-1.7582,-1.7582,-1.7582,-1.7582,-1.7582,-1.7582,-1.7582,-1.7582,0.0,-2.0158,-2.0877,-2.1285,-2.3488,-2.4091,-2.3895,-2.3895,-2.395,-2.406,-2.4299,-2.4647,-2.5032,-2.5433,-2.6131,-2.6921,-2.7911,-2.8443,-2.8975,-2.9855,-3.0167,-3.0406,-3.0809,-3.1029,-3.1267,-3.1671,-3.1543,-3.1469,-3.1708,-3.1543,-3.1377,-3.1377,-3.1377,-3.1543,-3.1964,-3.2441,-3.279,-3.2955,-3.3175,-3.3303,-3.3303,-3.3303,-3.3193,-3.2973,-3.2955,-3.2845,-3.2588,-3.2423,-3.2349,-3.2349,-3.1928,-3.1744,-3.1726,-3.1488,-3.1377,-3.1442,-3.2001,-3.2575,-3.3126,-3.3674,-3.3842,-3.3905,-3.4467,-3.4716,-3.4964,-3.6967,-3.7522,-3.7383,0.0,-1.1487,-1.1768,-1.2037,-1.2306,-1.2534,-1.2662,-1.2699,-1.2735,-1.2807,-1.323,-1.3717,-1.4185,-1.4558,-1.4927,-1.5303,-1.5308,-1.5695,-1.668,-1.6703,-1.6967,-1.7555,-1.7582,-1.7582,-1.7582,-1.7582,-1.7582,-1.7582,-1.7662,-1.7716,-1.7716,-1.7716,-1.7716,-1.7702,-1.7622,-1.7582,-1.7582,-1.7582,-1.7582,-1.7582,-1.7582,-1.7582,-1.7582,-1.7582,-1.7528,-1.7514,-1.7514,-1.7514,-1.7762,-1.9607,-2.0452,-2.1089,-2.3012,-2.3912,-2.422,-2.4349,-2.4587,-2.4867,-2.5323,-2.5635,-2.5929,-2.626,-2.6958,-2.7728,-2.8535,-2.9122,-2.9764,-3.0754,-3.0956,-3.1047,-3.1322,-3.1377,-3.1506,-3.1946,-3.1744,-3.1653,-3.1964,-3.1744,-3.1506,-3.1396,-3.1488,-3.1671,-3.1983,-3.2643,-3.3138,-3.3376,-3.3651,-3.3817,-3.3817,-3.3817,-3.3688,-3.3395,-3.3395,-3.3248,-3.2936,-3.2826,-3.2771,-3.2771,-3.2368,-3.2111,-3.2001,-3.1579,-3.1377,-3.1377,-3.1377,-3.1377,-3.1442,-3.1809,-3.1937,-3.2001,-3.2384,-3.2511,-3.3,-3.6846,-3.7752,-3.7188,0.0,0.0,-1.2195,-1.2527,-1.2794,-1.2908,-1.2747,-1.2699,-1.2795,-1.3029,-1.335,-1.3897,-1.4946,-1.507,-1.5316,-1.583,-1.5835,-1.6047,-1.6729,-1.6722,-1.6967,-1.7555,-1.7582,-1.7582,-1.7582,-1.7582,-1.7582,-1.7582,-1.7889,-1.7982,-1.7982,-1.7982,-1.7982,-1.7969,-1.7716,-1.7582,-1.7582,-1.7582,-1.7582,-1.7582,-1.7582,-1.7582,-1.7582,-1.7582,-1.746,-1.7219,-1.7219,-1.7219,-1.7319,-1.8174,-1.9357,-2.0618,-2.1805,-2.3117,-2.4275,-2.4698,-2.4776,-2.4867,-2.5323,-2.5433,-2.5727,-2.6848,-2.7746,-2.8572,-2.936,-3.0167,-3.0846,-3.1267,-3.1359,-3.1359,-3.1377,-3.1377,-3.1506,-3.1946,-3.2001,-3.2001,-3.2001,-3.2001,-3.1836,-3.1433,-3.1744,-3.2001,-3.2001,-3.2368,-3.2936,-3.3725,-3.3798,-3.3817,-3.3817,-3.3817,-3.3798,-3.3798,-3.3798,-3.378,-3.378,-3.3395,-3.3211,-3.3193,-3.2771,-3.2368,-3.2001,-3.1579,-3.1377,-3.1377,-3.1377,-3.1377,-3.1506,-3.281,-3.3316,-3.3442,-3.4757,-3.5253,-3.5314,-3.5438,-3.3882,-3.1809,0.0,0.0,0.0,-1.2768,-1.2921,-1.3032,-1.3142,-1.3179,-1.3279,-1.3511,-1.3993,0.0,0.0,0.0,0.0,0.0,-1.5504,-1.5853,-1.6441,-1.661,-1.6887,-1.7326,-1.7527,-1.7582,-1.7582,-1.7582,-1.7582,-1.7582,-1.7689,-1.7849,-1.7995,-1.7995,-1.7995,-1.7995,-1.7943,-1.7769,-1.7582,-1.7582,-1.7809,-1.8143,-1.7742,-1.7822,-1.8143,-1.7729,-1.7447,-1.7179,0.0,-1.686,-1.7035,-1.8073,-1.8845,-1.9652,-2.1542,-2.2731,-2.3697,-2.4845,-2.5231,-2.5326,-2.5986,-2.6371,-2.6866,-2.8077,-2.859,-2.9067,-3.013,-3.0791,-3.1304,-3.1708,-3.1799,-3.1799,-3.1799,-3.1561,-3.1598,-3.2294,-3.2184,-3.2203,-3.2735,-3.257,-3.2239,-3.1854,-3.1928,-3.2001,-3.2001,-3.2368,-3.2826,-3.3376,-3.3413,-3.3541,-3.3798,-3.3817,-3.3817,-3.3817,-3.3817,-3.3817,-3.3817,-3.3688,-3.3615,-3.3615,-3.3211,-3.2661,-3.2001,-3.1854,-3.1634,-3.1377,-3.1377,-3.1377,-3.1442,-3.1873,-3.2065,-3.2128,-3.2575,-3.2746,-3.2746,-3.2746,-3.2192,-3.1699,0.0,0.0,0.0,0.0,0.0,0.0,0.0,0.0,0.0,0.0,0.0,0.0,0.0,0.0,0.0,0.0,0.0,-1.5967,-1.6406,-1.6607,-1.6834,-1.7192,-1.738,-1.7528,-1.7742,-1.7742,-1.7742,-1.7742,-1.7849,-1.7956,-1.7995,-1.7995,-1.7995,-1.7995,-1.7876,-1.7769,-1.7582,-1.7582,-1.7809,-1.8143,-1.7862,-1.7916,-1.8143,-1.7969,-1.7662,0.0,-1.7221,-1.7048,-1.6972,-1.7323,-1.8233,-1.9483,-2.09,-2.2414,-2.3943,-2.5097,-2.5525,-2.5837,-2.6756,-2.7196,-2.7673,-2.8883,-2.9305,-2.9654,-3.0589,-3.1102,-3.1414,-3.1543,-3.1689,-3.1744,-3.1598,-3.1469,-3.1634,-3.2459,-3.2386,-3.2459,-3.3138,-3.2991,-3.268,-3.2258,-3.2221,-3.2221,-3.2221,-3.2441,-3.2771,-3.3193,-3.3358,-3.3541,-3.3798,-3.3817,-3.3817,-3.3817,-3.3817,-3.3817,-3.3817,-3.3817,-3.3817,-3.3817,-3.3413,-3.2863,-3.2203,-3.2074,-3.1781,-3.1377,-3.1377,-3.1377,-3.1377,-3.1377,-3.1377,-3.1377,-3.1377,-3.1377,-3.1377,-3.1377,-3.1506,-3.1827,0.0,0.0,0.0,0.0,0.0,0.0,0.0,0.0,0.0,0.0,0.0,0.0,0.0,0.0,0.0,0.0,0.0,0.0,-1.6687,-1.67,-1.6834,-1.7166,-1.7192,-1.7422,-1.7955,-1.7982,-1.7995,-1.8009,-1.8357,-1.8357,-1.8035,-1.8035,-1.8035,-1.8022,-1.7782,-1.7649,-1.7635,-1.7635,-1.7649,-1.7702,-1.7956,-1.7916,-1.7729,-1.8277,-1.8116,-1.7649,-1.7889,-1.7675,-1.7099,-1.6179,-1.7712,-2.0054,-2.0184,-2.2311,-2.4886,-2.5359,-2.5764,-2.6333,-2.7509,-2.7877,-2.8189,-2.9305,-2.991,-3.0332,-3.0699,-3.1102,-3.1286,-3.0882,-3.1102,-3.1267,-3.0864,-3.1102,-3.1616,-3.2423,-3.2588,-3.2753,-3.3193,-3.3248,-3.3101,-3.268,-3.2625,-3.2625,-3.2588,-3.2625,-3.279,-3.3193,-3.3578,-3.3798,-3.3817,-3.3817,-3.3817,-3.3817,-3.3817,-3.3817,-3.3817,-3.3817,-3.3817,-3.3817,-3.3431,-3.3028,-3.2588,-3.2203,-3.1799,-3.1377,-3.1377,-3.1377,-3.1377,-3.1377,-3.1377,-3.1377,-3.1377,-3.1377,-3.1377,-3.1377,-3.1589,-3.1846,0.0,0.0,0.0,0.0,0.0,0.0,0.0,0.0,0.0,0.0,0.0,0.0,0.0,0.0,0.0,0.0,0.0,0.0,-1.67,-1.67,-1.674,-1.682,-1.7085,-1.738,-1.7689,-1.7876,-1.8102,-1.837,-1.845,-1.8557,-1.8648,-1.8648,-1.8648,-1.8691,-1.8624,-1.8464,-1.8263,-1.8263,-1.8504,-1.8878,-1.8517,-1.8597,-1.8878,-1.8597,-1.825,-1.7889,-1.7969,-1.7796,-1.7408,-1.7018,-1.8607,-2.099,-2.2313,-2.3894,-2.5362,-2.6078,-2.6554,-2.705,-2.7656,-2.8483,-2.9269,-2.9892,-3.0351,-3.0662,-3.0772,-3.1341,-3.1653,-3.0937,-3.1121,-3.1286,-3.0864,-3.0864,-3.1212,-3.2019,-3.2404,-3.2845,-3.356,-3.367,-3.3523,-3.3101,-3.3065,-3.2936,-3.2625,-3.2881,-3.3101,-3.3211,-3.3321,-3.3505,-3.3798,-3.3817,-3.3817,-3.3817,-3.3817,-3.3817,-3.3817,-3.3817,-3.3817,-3.3817,-3.3707,-3.3285,-3.2588,-3.2496,-3.2056,-3.1377,-3.1377,-3.1377,-3.1377,-3.1377,-3.1377,-3.1377,-3.1377,-3.1377,-3.1377,-3.1377,-3.1442,-3.157,0.0,0.0,0.0,0.0,0.0,0.0,0.0,0.0,0.0,0.0,0.0,0.0,0.0,0.0,0.0,0.0,0.0,0.0,0.0,-1.67,-1.67,-1.67,-1.679,-1.7072,-1.7569,-1.7889,-1.8075,-1.829,-1.8557,-1.8637,-1.8488,-1.8677,-1.8664,-1.8488,-1.8488,-1.8395,-1.829,-1.829,-1.849,0.0,0.0,-1.8718,-1.8798,-1.8851,-1.8691,-1.8395,-1.8584,-1.8424,-1.8171,-1.8395,-1.9717,-2.1677,-2.3947,-2.5253,-2.6059,-2.6866,-2.727,-2.7656,-2.8352,-2.9048,-2.9709,-3.0314,-3.0497,-3.0571,-3.0754,-3.1011,-3.1029,-3.0387,-3.0589,-3.0754,-3.0332,-3.0552,-3.0992,-3.1634,-3.2221,-3.2826,-3.3468,-3.3707,-3.3725,-3.3505,-3.3486,-3.3395,-3.3156,-3.334,-3.3486,-3.3486,-3.3486,-3.3578,-3.3798,-3.3817,-3.3817,-3.3817,-3.3817,-3.3817,-3.3817,-3.3817,-3.3817,-3.3817,-3.3817,-3.3376,-3.2588,-3.2588,-3.2148,-3.1377,-3.1377,-3.1377,-3.1377,-3.1377,-3.1377,-3.1377,-3.1377,-3.1377,-3.1442,-3.157,-3.1717,-3.191,0.0,0.0,0.0,0.0,0.0,0.0,0.0,0.0,0.0,0.0,0.0,0.0,0.0,0.0,0.0,0.0,0.0,0.0,0.0,0.0,-1.6647,-1.6647,-1.6446,-1.67,-1.7502,-1.7809,-1.8009,-1.8049,-1.8611,-1.8611,-1.8049,-1.837,-1.8357,-1.8049,-1.8009,-1.7995,-1.7995,-1.7955,-1.7982,-1.8089,-1.8664,-1.8611,-1.8249,0.0,-1.9212,-1.9011,-1.9279,-1.9172,-1.9061,-1.9971,-2.0933,-2.227,-2.4987,-2.6245,-2.6903,-2.7691,-2.7987,-2.8244,-2.9342,-2.969,-2.991,-3.0607,-3.0571,-3.0424,-3.0662,-3.0479,-3.013,-2.9599,-2.9819,-2.9984,-2.9562,-3.0112,-3.0772,-3.1231,-3.1946,-3.2625,-3.3156,-3.3523,-3.3762,-3.3798,-3.3817,-3.3817,-3.3817,-3.3817,-3.3817,-3.3817,-3.3817,-3.3817,-3.3817,-3.3817,-3.3817,-3.3817,-3.3817,-3.3817,-3.3817,-3.3817,-3.3817,-3.3817,-3.3817,-3.3413,-3.268,-3.2625,-3.2184,-3.1451,-3.1396,-3.1377,-3.1377,-3.1377,-3.1377,-3.1377,-3.1442,-3.1442,-3.1506,-3.1846,-3.2166,-3.2422,0.0,0.0,0.0,0.0,0.0,0.0,0.0,0.0,0.0,0.0,-1.5465,-1.6019,0.0,0.0,0.0,0.0,0.0,0.0,0.0,0.0,0.0,-1.6353,-1.6526,-1.682,-1.7259,-1.7769,-1.8115,-1.841,-1.8517,-1.8517,-1.841,-1.8464,-1.8464,-1.8397,-1.8102,-1.7995,-1.7969,-1.7769,-1.7956,-1.8424,-1.8531,-1.8798,-1.9158,-1.9363,0.0,0.0,-1.9403,-1.9172,-1.9115,-2.0544,-2.18,-2.3093,-2.4569,-2.618,-2.7785,-2.8535,-2.8773,-2.8975,-2.9855,-3.0332,-3.0607,-3.0754,-3.0974,-3.1029,-3.0442,-3.0497,-3.0387,-2.9305,-2.9397,-2.9562,-2.9159,-2.947,-3.002,-3.0772,-3.1286,-3.1964,-3.3065,-3.3285,-3.345,-3.378,-3.3817,-3.3817,-3.3817,-3.3817,-3.3817,-3.3817,-3.3817,-3.3817,-3.3817,-3.3817,-3.3817,-3.3817,-3.3817,-3.3817,-3.3817,-3.3817,-3.3817,-3.3817,-3.3817,-3.356,-3.3101,-3.2753,-3.2331,-3.1873,-3.1524,-3.1377,-3.1377,-3.1377,-3.1377,-3.1442,-3.1717,-3.1782,-3.1846,-3.2166,-3.2358,-3.2422,0.0,0.0,0.0,0.0,0.0,0.0,0.0,0.0,-1.4247,-1.4756,-1.5223,-1.569,0.0,0.0,0.0,0.0,0.0,0.0,0.0,0.0,0.0,0.0,-1.6406,-1.6687,-1.7192,-1.7729,-1.8183,-1.849,0.0,-1.8784,-1.849,-1.8651,-1.8557,-1.825,-1.8049,-1.7995,-1.7982,-1.7889,-1.8076,-1.8504,-1.8651,-1.8891,-1.9158,0.0,0.0,0.0,-1.943,-1.9172,-1.9028,-1.9943,-2.1678,-2.3658,-2.4992,-2.6796,-2.8517,-2.9122,-2.9287,-2.947,-3.0277,-3.0644,-3.0846,-3.1047,-3.0772,-3.0332,-2.9965,-2.9709,-2.9379,-2.8792,-2.8993,-2.9214,-2.9012,-2.9305,-2.9764,-3.0387,-3.0992,-3.1726,-3.2753,-3.3083,-3.3376,-3.3762,-3.4,-3.411,-3.411,-3.4312,-3.444,-3.444,-3.4238,-3.4018,-3.3817,-3.3817,-3.3817,-3.3817,-3.3817,-3.3817,-3.3817,-3.3817,-3.3817,-3.3817,-3.3817,-3.3596,-3.3211,-3.279,-3.2386,-3.1983,-3.1561,-3.1377,-3.1442,-3.157,-3.1653,-3.1717,-3.2038,-3.2166,-3.2166,-3.2549,-3.2676,-3.274,0.0,0.0,0.0,0.0,0.0,0.0,0.0,-1.3882,-1.4034,-1.4721,-1.4923,-1.5171,-1.5695,-1.582,-1.6238,0.0,0.0,0.0,0.0,0.0,0.0,0.0,0.0,-1.6764,-1.7286,0.0,0.0,-1.849,-1.8958,0.0,0.0,0.0,0.0,0.0,-1.7955,-1.7889,-1.7889,-1.7822,-1.8063,0.0,0.0,-1.8905,-1.9052,0.0,0.0,0.0,0.0,-1.9212,-1.9052,-1.9292,-2.1148,-2.3572,-2.5019,-2.7117,-2.9048,-2.936,-2.9562,-2.9874,-3.0589,-3.0846,-3.0992,-3.1304,-3.0534,-2.969,-2.9599,-2.903,-2.8498,-2.8407,-2.8718,-2.8975,-2.8975,-2.9232,-2.9617,-3.0112,-3.0717,-3.1469,-3.2459,-3.2881,-3.3266,-3.3762,-3.4165,-3.4403,-3.4403,-3.4788,-3.5027,-3.5027,-3.4642,-3.422,-3.3835,-3.3817,-3.3817,-3.3817,-3.3817,-3.3817,-3.3817,-3.3817,-3.3817,-3.3817,-3.3817,-3.3651,-3.334,-3.2918,-3.2514,-3.2111,-3.1689,-3.1534,-3.1506,-3.1782,-3.191,-3.2038,-3.2358,-3.2485,-3.2549,-3.2848,-3.2994,-3.3038,0.0,0.0,0.0,0.0,0.0,0.0,0.0,-1.3824,-1.3884,-1.4912,-1.4887,-1.4863,-1.5134,-1.5682,-1.6125,0.0,0.0,0.0,0.0,0.0,0.0,0.0,0.0,0.0,0.0,0.0,0.0,-1.849,-1.8544,0.0,0.0,0.0,0.0,0.0,0.0,-1.7622,-1.7609,-1.7393,0.0,0.0,0.0,0.0,0.0,0.0,0.0,0.0,0.0,-1.9403,-1.939,-1.9417,-2.0524,-2.2167,-2.3399,-2.6189,-2.8993,-2.903,-2.9562,-3.0241,-3.0662,-3.1047,-3.1341,-3.1359,-3.0754,-3.0039,-2.9654,-2.9232,-2.8828,-2.8462,-2.8718,-2.8975,-2.8975,-2.9012,-2.9287,-3.0075,-3.0259,-3.0846,-3.2368,-3.2625,-3.2936,-3.3725,-3.4165,-3.4403,-3.4403,-3.4788,-3.5027,-3.5027,-3.4642,-3.422,-3.3835,-3.3817,-3.3817,-3.3817,-3.3817,-3.3817,-3.3817,-3.3817,-3.3817,-3.3817,-3.3817,-3.3798,-3.3743,-3.334,-3.2936,-3.2514,-3.2129,-3.1939,-3.1846,-3.1929,-3.2102,-3.2358,-3.274,-3.2867,-3.2912,-3.3228,-3.3355,-3.3355,0.0,0.0,0.0,0.0,0.0,0.0,0.0,-1.3732,-1.3928,-1.4543,-1.4546,-1.451,-1.4607,-1.4998,-1.5457,0.0,0.0,0.0,0.0,0.0,0.0,0.0,0.0,0.0,0.0,0.0,-1.8718,-1.9011,-1.9011,0.0,0.0,0.0,0.0,0.0,0.0,-1.7956,-1.8103,-1.7809,0.0,0.0,0.0,0.0,0.0,0.0,0.0,0.0,0.0,0.0,-1.9132,-1.9305,-2.0354,-2.1695,-2.2896,-2.4875,-2.7138,-2.8578,-2.9379,-2.9965,-3.0607,-3.1084,-3.1322,-3.1084,-3.0424,-2.9709,-2.9305,-2.892,-2.859,-2.8425,-2.8718,-2.8975,-2.8975,-2.8975,-2.925,-3.0075,-3.0204,-3.0681,-3.2056,-3.2239,-3.2551,-3.3358,-3.4018,-3.4495,-3.4752,-3.5357,-3.554,-3.5064,-3.488,-3.4495,-3.3853,-3.3817,-3.3817,-3.3817,-3.3817,-3.3817,-3.3817,-3.3817,-3.3817,-3.3817,-3.3817,-3.3817,-3.3798,-3.3413,-3.3138,-3.2936,-3.2475,-3.2301,-3.2264,-3.2452,-3.2613,-3.274,-3.3038,-3.3165,-3.3228,-3.3355,-3.3418,-3.3418,0.0,0.0,0.0,0.0,0.0,-1.3218,-1.3471,-1.3737,-1.4002,-1.4256,-1.4364,-1.4389,-1.4304,-1.469,-1.5115,-1.5624,0.0,0.0,0.0,0.0,0.0,0.0,0.0,0.0,0.0,0.0,-1.9065,-1.943,-1.943,-1.9265,0.0,0.0,-1.8945,-1.8731,0.0,0.0,0.0,0.0,0.0,0.0,0.0,0.0,0.0,0.0,0.0,0.0,0.0,0.0,0.0,0.0,0.0,-2.1445,-2.2636,-2.3997,-2.5626,-2.7803,-2.881,-2.9379,-3.0075,-3.0644,-3.0956,-3.0681,-3.0002,-2.9324,-2.9048,-2.8682,-2.8388,-2.8388,-2.8718,-2.8975,-2.8975,-2.9085,-2.9379,-3.0094,-3.0296,-3.0754,-3.1854,-3.2001,-3.2258,-3.2955,-3.3633,-3.422,-3.4623,-3.5394,-3.5577,-3.4899,-3.4844,-3.455,-3.3853,-3.3817,-3.3817,-3.3817,-3.3817,-3.3817,-3.3817,-3.3817,-3.3817,-3.3817,-3.3817,-3.3817,-3.3798,-3.3592,-3.3476,-3.3397,-3.301,-3.2833,-3.2814,-3.2912,-3.2975,-3.3038,-3.3292,-3.3418,-3.3418,-3.3418,-3.3418,-3.3418,0.0,0.0,0.0,0.0,0.0,0.0,0.0,-1.3737,-1.4002,-1.4256,-1.4533,-1.4606,-1.4328,-1.5016,-1.539,-1.5137,0.0,0.0,0.0,0.0,0.0,0.0,0.0,0.0,0.0,0.0,-1.9065,-1.943,-1.943,-1.943,-1.9359,-1.9359,-1.9417,-1.9403,0.0,0.0,0.0,0.0,0.0,0.0,0.0,0.0,0.0,0.0,0.0,0.0,0.0,0.0,0.0,0.0,0.0,0.0,0.0,-2.3832,-2.5141,-2.6734,-2.7765,-2.8498,-2.8902,-2.9599,-3.0204,-3.0204,-2.9599,-2.8993,-2.8975,-2.8682,-2.8388,-2.8388,-2.8718,-2.8975,-2.8975,-2.9305,-2.9709,-3.013,-3.0534,-3.1066,-3.1891,-3.2001,-3.2148,-3.2551,-3.2973,-3.3395,-3.378,-3.4568,-3.4862,-3.444,-3.4403,-3.4238,-3.3835,-3.3817,-3.3817,-3.3817,-3.3817,-3.3817,-3.3817,-3.3817,-3.3817,-3.3817,-3.3817,-3.3817,-3.3817,-3.4232,-3.4147,-3.3823,-3.3709,-3.3688,-3.3527,-3.3104,-3.3102,-3.3418,-3.3418,-3.3418,-3.3418,-3.3418,-3.3418,-3.3418,0.0,0.0,0.0,0.0,0.0,0.0,0.0,-1.4002,-1.4208,-1.4292,-1.4545,-1.4678,-1.4594,-1.5137,-1.5587,-1.5906,0.0,0.0,0.0,0.0,0.0,0.0,0.0,0.0,0.0,0.0,-1.9265,-1.943,-1.943,-1.943,-1.943,-1.943,-1.943,-1.9417,-1.9052,-1.9038,0.0,0.0,0.0,0.0,0.0,0.0,0.0,0.0,0.0,0.0,0.0,0.0,0.0,0.0,0.0,0.0,0.0,0.0,0.0,-2.6318,-2.7343,-2.8058,-2.8462,-2.8975,-2.9305,-2.903,-2.8975,-2.892,-2.8645,-2.87,-2.8792,-2.8792,-2.8902,-2.8975,-2.8975,-2.9305,-2.9709,-3.013,-3.0534,-3.0974,-3.1506,-3.1818,-3.2148,-3.2551,-3.345,-3.4183,-3.4605,-3.488,-3.4862,-3.444,-3.4403,-3.422,-3.3835,-3.3817,-3.3817,-3.3817,-3.3817,-3.3817,-3.3817,-3.3817,-3.3817,-3.3817,-3.3817,-3.3955,-3.4232,-3.4301,-3.4452,-3.4557,-3.448,-3.426,-3.3969,-3.3805,-3.3564,-3.3418,-3.3418,-3.3418,-3.3418,-3.3418,-3.3418,-3.3418,0.0,0.0,0.0,0.0,0.0,0.0,0.0,-1.4123,-1.4292,-1.4292,-1.4545,-1.4678,-1.457,-1.5125,-1.5612,-1.5992,0.0,0.0,0.0,0.0,0.0,0.0,0.0,0.0,0.0,-1.9363,-1.943,-1.943,-1.943,-1.943,-1.943,-1.943,-1.943,-1.9417,-1.9172,-1.9199,0.0,0.0,0.0,0.0,0.0,0.0,0.0,0.0,0.0,0.0,0.0,0.0,0.0,0.0,0.0,0.0,0.0,0.0,0.0,0.0,-2.694,-2.7416,-2.782,-2.8223,-2.8498,-2.8407,-2.859,-2.8737,-2.8645,-2.881,-2.8975,-2.8975,-2.8975,-2.8975,-2.8975,-2.9434,-2.9892,-3.0167,-3.0662,-3.1102,-3.1341,-3.1744,-3.2148,-3.2551,-3.3395,-3.4055,-3.433,-3.4477,-3.4458,-3.4202,-3.4183,-3.4073,-3.3817,-3.3817,-3.3817,-3.3817,-3.3817,-3.3817,-3.3817,-3.3817,-3.3817,-3.3817,-3.3955,-3.4163,-3.4439,-3.4715,-3.4921,-3.5108,-3.5027,-3.4804,0.0,-3.4193,-3.3809,-3.3418,-3.3418,-3.3418,-3.3418,-3.3418,-3.3418,-3.3418,0.0,0.0,0.0,0.0,0.0,0.0,0.0,0.0,0.0,-1.4292,-1.4558,-1.4642,-1.4389,-1.5052,-1.5547,0.0,0.0,0.0,0.0,0.0,0.0,0.0,0.0,0.0,-1.8945,-1.9225,-1.943,-1.943,-1.9403,-1.9332,-1.9332,-1.9319,-1.9377,-1.9332,-1.9332,-1.9403,0.0,0.0,0.0,0.0,0.0,0.0,0.0,0.0,0.0,0.0,0.0,0.0,0.0,0.0,0.0,0.0,0.0,0.0,0.0,0.0,0.0,0.0,0.0,-2.7454,-2.7765,-2.8168,-2.8315,-2.8443,-2.881,-2.8938,0.0,-2.8975,-2.8975,-2.8993,-2.9012,-2.9635,-3.0167,-3.0241,-3.0864,-3.1341,-3.1377,-3.1763,-3.2203,-3.2625,-3.3028,-3.3266,-3.3266,-3.3596,-3.3817,-3.3817,-3.3817,-3.3817,-3.3817,-3.3817,-3.3817,-3.3817,-3.3817,-3.3817,-3.3817,-3.3817,-3.3817,-3.3817,-3.4232,-3.4439,-3.4439,-3.5196,-3.547,-3.5519,-3.5471,-3.5156,-3.4668,-3.4277,-3.3848,-3.3418,-3.3418,-3.3418,-3.3418,-3.3418,-3.3418,-3.3418,0.0,0.0,0.0,0.0,0.0,0.0,0.0,0.0,0.0,0.0,-1.4714,-1.4992,-1.492,-1.5439,-1.6065,0.0,0.0,0.0,0.0,0.0,0.0,0.0,0.0,0.0,-1.9252,-1.939,-1.943,-1.943,-1.9132,-1.9025,-1.9025,-1.8798,-1.8811,-1.9025,-1.9025,-1.9158,0.0,0.0,0.0,0.0,0.0,0.0,0.0,0.0,0.0,0.0,-1.943,-1.9996,0.0,0.0,0.0,0.0,0.0,0.0,0.0,0.0,-2.6591,-2.6609,-2.6701,0.0,-2.6885,-2.6995,-2.7471,-2.8005,0.0,-2.8535,-2.8975,-2.8975,-2.8975,-2.9067,-2.9379,-2.9599,-2.9929,-3.0552,-3.0809,-3.1029,-3.1341,-3.2001,-3.2716,-3.345,-3.3615,-3.367,-3.367,-3.3762,-3.3817,-3.3817,-3.3817,-3.3817,-3.3817,-3.3817,-3.3817,-3.3817,-3.3817,-3.3817,-3.3817,-3.3817,-3.3817,-3.3817,-3.4232,-3.4508,-3.4784,-3.5264,-3.5626,-3.5879,-3.585,-3.543,-3.4687,-3.459,-3.4101,-3.3418,-3.3418,-3.3418,-3.3418,-3.3418,-3.3418,-3.3418,0.0,0.0,0.0,0.0,0.0,0.0,0.0,0.0,0.0,0.0,0.0,0.0,0.0,0.0,0.0,0.0,0.0,0.0,0.0,0.0,0.0,0.0,0.0,-1.8838,-1.9158,-1.9292,-1.943,-1.943,-1.9199,-1.9052,-1.8918,-1.8905,-1.8905,-1.8931,-1.9065,-1.9212,0.0,0.0,0.0,0.0,0.0,0.0,0.0,0.0,0.0,0.0,-1.943,-2.0155,0.0,-2.1858,-2.3255,-2.4889,0.0,0.0,0.0,0.0,-2.6591,-2.6591,-2.6591,-2.6719,-2.6903,-2.7086,-2.7509,-2.7877,-2.8003,-2.8242,-2.848,-2.8682,-2.8718,-2.8828,-2.9232,-2.9599,-3.0002,-3.0442,-3.0827,-3.1267,-3.1854,-3.2313,-3.29,-3.3725,-3.3817,-3.3817,-3.3817,-3.3817,-3.3817,-3.3817,-3.3817,-3.3817,-3.3817,-3.3817,-3.3817,-3.3817,-3.3817,-3.3817,-3.3817,-3.3955,-3.4094,-3.4094,-3.4646,-3.499,-3.5196,-3.5538,-3.5811,-3.6016,-3.6016,-3.5644,-3.5,-3.4785,-3.4316,-3.3691,-3.3496,-3.3418,-3.3418,-3.3418,-3.3418,-3.3418,0.0,0.0,0.0,0.0,0.0,0.0,0.0,0.0,0.0,0.0,0.0,0.0,0.0,0.0,0.0,0.0,0.0,0.0,0.0,0.0,0.0,0.0,0.0,-1.8945,-1.8985,-1.9239,-1.943,-1.943,-1.9336,-1.9105,-1.8865,-1.9025,-1.9011,-1.8878,-1.9212,-1.943,0.0,0.0,0.0,0.0,0.0,0.0,0.0,0.0,0.0,0.0,0.0,0.0,0.0,-2.241,-2.376,-2.5238,-2.6081,0.0,0.0,0.0,0.0,0.0,-2.6664,-2.6976,-2.7325,-2.7656,-2.7822,-2.7948,-2.8315,-2.8113,-2.7967,-2.8315,-2.8388,-2.8535,-2.8993,-2.9635,-3.0167,-3.0351,-3.0937,-3.1671,-3.2478,-3.2588,-3.29,-3.3725,-3.3817,-3.3817,-3.3817,-3.3817,-3.3817,-3.3817,-3.3817,-3.3817,-3.3817,-3.3817,-3.3817,-3.3886,-3.3886,-3.3955,-3.3955,-3.4232,-3.4439,-3.4508,-3.5196,-3.5489,-3.547,-3.5811,-3.6016,-3.6016,-3.6016,-3.5781,-3.5351,-3.4883,-3.4453,-3.4023,-3.3594,-3.3418,-3.3418,-3.3418,-3.3418,-3.3418,0.0,0.0,0.0,0.0,0.0,0.0,0.0,0.0,0.0,0.0,0.0,0.0,0.0,0.0,0.0,0.0,0.0,0.0,0.0,0.0,0.0,-1.9239,-1.9038,-1.9038,-1.9292,-1.9345,-1.943,-1.943,-1.8865,-1.8597,-1.8544,-1.8076,-1.8103,-1.8584,-1.9132,-1.943,-1.943,0.0,0.0,0.0,-1.943,0.0,0.0,0.0,0.0,0.0,0.0,0.0,0.0,-2.1744,-2.3648,-2.619,-2.5348,0.0,0.0,0.0,0.0,0.0,-2.6995,-2.738,-2.7675,-2.7343,-2.7783,-2.8315,-2.8388,-2.8333,-2.8315,-2.8388,-2.8388,-2.8627,-2.9342,-2.958,-3.0002,-3.1029,-3.1304,-3.1671,-3.2478,-3.2588,-3.29,-3.3725,-3.3817,-3.3817,-3.3817,-3.3817,-3.3817,-3.3817,-3.3817,-3.3817,-3.3817,-3.3817,-3.3955,-3.4301,-3.4301,-3.4439,-3.4715,-3.4508,-3.4508,-3.4853,-3.5264,-3.5489,-3.547,-3.5811,-3.6016,-3.6016,-3.6016,-3.5781,-3.5351,-3.4883,-3.4453,-3.4023,-3.3594,-3.3418,-3.3418,-3.3418,-3.3418,-3.3418,0.0,0.0,0.0,0.0,0.0,0.0,0.0,0.0,0.0,0.0,0.0,0.0,0.0,0.0,0.0,0.0,0.0,0.0,0.0,0.0,0.0,-1.943,-1.9239,-1.9225,-1.9417,-1.9212,-1.9132,-1.9132,-1.8704,-1.849,-1.849,-1.837,-1.8544,-1.8971,-1.931,-1.943,-1.943,-1.943,0.0,0.0,0.0,0.0,0.0,0.0,0.0,0.0,0.0,0.0,0.0,0.0,-2.4017,-2.6225,-2.5899,0.0,0.0,0.0,0.0,0.0,-2.6591,-2.7032,-2.7453,-2.7546,-2.7948,-2.8388,-2.8388,-2.8223,-2.8113,-2.8352,-2.8388,-2.8645,-2.9434,-2.9764,-3.0241,-3.1212,-3.1377,-3.1598,-3.2184,-3.2459,-3.2826,-3.3431,-3.3688,-3.3817,-3.3817,-3.3817,-3.3817,-3.3817,-3.3817,-3.3817,-3.3817,-3.3817,-3.3955,-3.437,-3.437,-3.4646,-3.5196,-3.5059,-3.5059,-3.5196,-3.5606,-3.5743,-3.5743,-3.5947,-3.6016,-3.6016,-3.6016,-3.5918,-3.5703,-3.5254,-3.4805,-3.4375,-3.3945,-3.3633,-3.3418,-3.3418,-3.3418,-3.3418,0.0,0.0,0.0,0.0,0.0,0.0,0.0,0.0,0.0,0.0,0.0,0.0,0.0,0.0,0.0,0.0,0.0,0.0,0.0,0.0,-1.9292,-1.9417,-1.943,-1.9332,-1.9265,-1.9038,-1.8891,-1.8824,-1.8597,-1.849,-1.8504,-1.8784,-1.9052,-1.9265,-1.9332,-1.943,-1.943,-1.943,-1.943,0.0,0.0,0.0,0.0,0.0,0.0,0.0,0.0,0.0,0.0,0.0,0.0,0.0,0.0,0.0,0.0,-2.6039,-2.6241,-2.6408,-2.6333,-2.6682,-2.716,-2.7693,-2.8003,-2.8315,-2.8608,-2.8278,-2.8058,-2.8572,-2.859,-2.8773,-2.958,-3.013,-3.0681,-3.1286,-3.1377,-3.1524,-3.1946,-3.2276,-3.2643,-3.3156,-3.3486,-3.3707,-3.3798,-3.3817,-3.3817,-3.3817,-3.3817,-3.3817,-3.3955,-3.3955,-3.4163,-3.4646,-3.4646,-3.499,-3.5606,-3.5606,-3.5606,-3.5606,-3.5879,-3.6016,-3.6016,-3.6016,-3.6016,-3.6016,-3.6016,-3.6016,-3.5976,-3.5449,-3.5019,-3.4648,-3.4121,-3.3711,-3.3418,-3.3418,-3.3418,-3.3418,0.0,0.0,0.0,0.0,0.0,0.0,0.0,0.0,0.0,0.0,0.0,0.0,0.0,0.0,0.0,0.0,0.0,0.0,0.0,0.0,-1.9078,-1.9417,-1.943,-1.9239,-1.8958,-1.8931,-1.8784,-1.8517,-1.8504,-1.849,-1.8504,-1.8784,-1.8931,-1.8971,-1.9239,-1.943,-1.943,-1.943,-1.943,-1.943,0.0,0.0,0.0,0.0,0.0,0.0,0.0,0.0,0.0,0.0,0.0,0.0,0.0,0.0,-2.6463,-2.6131,-2.6039,-2.6223,-2.694,-2.6866,-2.6811,-2.7638,-2.784,-2.8171,-2.9232,-2.8902,-2.8572,-2.9324,-2.9195,-2.9195,-3.0002,-3.0772,-3.1304,-3.1359,-3.1377,-3.1524,-3.1946,-3.2038,-3.2349,-3.3138,-3.3248,-3.3413,-3.378,-3.3817,-3.3817,-3.3817,-3.3817,-3.3955,-3.4301,-3.437,-3.4646,-3.5421,-3.5401,-3.5606,-3.5947,-3.5947,-3.5947,-3.5947,-3.6016,-3.6016,-3.6016,-3.6016,-3.6016,-3.6016,-3.6016,-3.6016,-3.5957,-3.5098,-3.4726,-3.4609,-3.3789,-3.3457,-3.3418,-3.3418,-3.3418,-3.3418,0.0,0.0,0.0,0.0,0.0,0.0,0.0,0.0,0.0,0.0,0.0,0.0,0.0,0.0,0.0,0.0,0.0,0.0,0.0,-1.8824,-1.9052,-1.9417,-1.943,-1.9225,-1.8931,-1.8744,-1.8504,-1.821,-1.8397,-1.8584,-1.8771,-1.9065,-1.9199,-1.9199,-1.9319,-1.943,-1.943,-1.943,-1.943,-1.9488,-2.0213,0.0,0.0,0.0,0.0,0.0,0.0,0.0,0.0,0.0,-2.5251,-2.5839,-2.5984,-2.5782,-2.5491,-2.5617,-2.5653,-2.5708,-2.6021,-2.6316,-2.6664,-2.6958,-2.7454,-2.8079,-2.8993,-2.8975,-2.8993,-2.98,-2.9837,-2.991,-3.0461,-3.1011,-3.1377,-3.1377,-3.1377,-3.1433,-3.1598,-3.1836,-3.2129,-3.2423,-3.2918,-3.3285,-3.3431,-3.367,-3.3817,-3.3817,-3.4024,-3.4232,-3.437,-3.4577,-3.4921,-3.5489,-3.5489,-3.5675,-3.6016,-3.6016,-3.6016,-3.6016,-3.6016,-3.6016,-3.6016,-3.6016,-3.6016,-3.5996,-3.5742,-3.5625,-3.5586,-3.4961,-3.4551,-3.4277,-3.3945,-3.3828,-3.3828,-3.3828,-3.3652,-3.3457,0.0,0.0,0.0,0.0,0.0,0.0,0.0,0.0,0.0,0.0,0.0,0.0,0.0,0.0,0.0,0.0,0.0,0.0,-1.8183,-1.8477,-1.8824,-1.9212,-1.9225,-1.9132,-1.8931,-1.8637,-1.8397,-1.8129,-1.8477,-1.8771,-1.9065,-1.9265,-1.943,-1.943,-1.943,-1.943,-1.943,-1.943,-1.943,-1.9533,-2.073,-2.073,0.0,0.0,0.0,0.0,0.0,0.0,0.0,0.0,-2.5541,-2.5766,-2.5819,-2.5543,-2.5161,-2.5179,-2.5271,-2.5451,-2.558,-2.5968,-2.6444,-2.6719,-2.7178,-2.7914,-2.892,-2.9177,-2.9434,-3.0387,-3.0571,-3.0626,-3.0754,-3.1102,-3.1377,-3.1377,-3.1377,-3.1377,-3.1377,-3.1616,-3.1854,-3.1983,-3.2496,-3.2881,-3.3145,-3.3403,-3.3692,-3.3959,-3.4184,-3.4515,-3.4715,-3.499,-3.5264,-3.5675,-3.5694,-3.5743,-3.6016,-3.6016,-3.6016,-3.6016,-3.6016,-3.6016,-3.6016,-3.6016,-3.5937,-3.5801,-3.5527,-3.5391,-3.5351,-3.4883,-3.4453,-3.4082,-3.4082,-3.4082,-3.4082,-3.4082,-3.3965,-3.3867,0.0,0.0,0.0,0.0,0.0,0.0,0.0,0.0,0.0,0.0,0.0,0.0,0.0,0.0,0.0,0.0,0.0,0.0,-1.7582,-1.7876,-1.8249,-1.8891,-1.8918,-1.8918,-1.8931,-1.8651,-1.8504,-1.849,-1.8784,-1.9078,-1.943,-1.9417,-1.9417,-1.943,-1.9417,-1.9417,-1.943,-1.943,-1.943,-1.9546,-2.073,-2.1174,0.0,0.0,0.0,0.0,0.0,0.0,0.0,0.0,-2.6591,-2.6444,-2.569,-2.569,-2.5855,-2.5084,-2.5069,-2.5506,-2.5892,-2.6002,-2.6205,-2.7013,-2.7178,-2.7618,-2.9273,-2.9562,-2.991,-3.1121,-3.1377,-3.1267,-3.0864,-3.1121,-3.1377,-3.1377,-3.1377,-3.1377,-3.1377,-3.1377,-3.1524,-3.1946,-3.2001,-3.228,-3.2999,-3.3103,-3.3423,-3.4191,-3.4296,-3.4621,-3.5451,-3.547,-3.5694,-3.6016,-3.6016,-3.6016,-3.6016,-3.6016,-3.6016,-3.6016,-3.6016,-3.6016,-3.6016,-3.6016,-3.5801,-3.5391,-3.5391,-3.5391,-3.5351,-3.4883,-3.4453,-3.4082,-3.4082,-3.4082,-3.4082,-3.4082,-3.4336,-3.4707,0.0,0.0,0.0,0.0,0.0,0.0,0.0,0.0,0.0,0.0,0.0,0.0,0.0,0.0,0.0,0.0,0.0,0.0,-1.7582,-1.7876,-1.8169,-1.8597,-1.8811,-1.9025,-1.9225,-1.9145,-1.8905,-1.849,-1.8584,-1.8878,-1.9359,-1.9158,-1.9172,-1.9417,-1.9145,-1.9172,-1.943,-1.943,-1.988,-2.073,-2.106,-2.1174,0.0,0.0,0.0,0.0,0.0,0.0,0.0,0.0,0.0,0.0,-2.6122,-2.6088,-2.5966,-2.5937,-2.5804,-2.5659,-2.5614,-2.5906,-2.6342,-2.6584,-2.7566,-2.8704,-2.9717,-2.9762,-2.991,-3.1121,-3.1377,-3.1341,-3.1231,-3.1497,-3.1653,-3.1442,-3.1589,-3.1653,-3.1442,-3.1589,-3.1837,-3.1903,-3.2404,-3.2824,-3.3002,-3.3284,-3.3529,-3.3794,-3.4346,-3.4758,-3.5027,-3.552,-3.5879,-3.6016,-3.6016,-3.6016,-3.6016,-3.6016,-3.6016,-3.6016,-3.6016,-3.6016,-3.6016,-3.6016,-3.5801,-3.5391,-3.5391,-3.5215,-3.4902,-3.4766,-3.4824,-3.5,-3.5,-3.5,-3.5,-3.5,-3.4883,-3.4746,0.0,0.0,0.0,0.0,0.0,0.0,0.0,0.0,0.0,0.0,-1.7143,-1.7259,0.0,0.0,0.0,0.0,0.0,0.0,0.0,-1.7515,-1.7876,-1.829,-1.8477,-1.8771,-1.9185,-1.9185,-1.9011,-1.8664,-1.8784,-1.9025,-1.9417,-1.9065,-1.9025,-1.9185,-1.8998,-1.9172,-1.9694,-1.9496,-2.0258,-2.1718,-2.1953,-2.2338,-2.2902,0.0,0.0,0.0,0.0,0.0,0.0,0.0,0.0,0.0,-2.6396,-2.634,-2.6303,-2.6345,-2.6252,-2.6143,-2.5986,-2.6502,-2.7131,-2.73,-2.8351,-2.9655,-3.0564,-3.0556,-3.056,-3.1423,-3.1589,-3.1653,-3.1763,-3.1974,-3.2038,-3.1827,-3.1974,-3.2038,-3.1827,-3.1974,-3.2102,-3.2102,-3.252,-3.2781,-3.2975,-3.3157,-3.3432,-3.3735,-3.4247,-3.4669,-3.5036,-3.549,-3.584,-3.6016,-3.6016,-3.6016,-3.6016,-3.6016,-3.6016,-3.6016,-3.6016,-3.6016,-3.6016,-3.6016,-3.5801,-3.5391,-3.5391,-3.5234,-3.498,-3.5156,-3.5293,-3.5391,-3.5391,-3.5391,-3.5391,-3.5391,-3.5312,-3.5254,0.0,0.0,0.0,0.0,0.0,0.0,0.0,0.0,0.0,0.0,-1.6954,-1.7166,0.0,0.0,0.0,0.0,0.0,0.0,0.0,0.0,-1.7408,-1.7929,-1.8049,-1.8355,-1.8958,-1.8958,-1.8958,-1.8958,-1.9212,-1.9345,-1.9417,-1.9038,-1.8905,-1.8918,-1.8865,-1.9306,-2.0059,-1.9664,-2.0685,-2.2583,-2.3141,-2.4105,-2.5246,-2.6625,0.0,0.0,0.0,0.0,0.0,0.0,0.0,0.0,-2.6667,-2.668,-2.6854,-2.647,-2.6622,-2.6873,-2.6873,-2.7476,-2.8159,-2.8614,-2.943,-3.0436,-3.1569,-3.1675,-3.157,-3.1846,-3.191,-3.2038,-3.2358,-3.2422,-3.2422,-3.2422,-3.2422,-3.2422,-3.2422,-3.2422,-3.2422,-3.2422,-3.2485,-3.2613,-3.2931,-3.2912,-3.3276,-3.3984,-3.4043,-3.4434,-3.5234,-3.5312,-3.5527,-3.5957,-3.5957,-3.5976,-3.6016,-3.6016,-3.6016,-3.6016,-3.6016,-3.6016,-3.6016,-3.6016,-3.5801,-3.5449,-3.541,-3.541,-3.5488,-3.5859,-3.5801,-3.5449,-3.5449,-3.5449,-3.5449,-3.5449,-3.5684,-3.6016,0.0,0.0,0.0,0.0,0.0,0.0,0.0,0.0,0.0,0.0,0.0,0.0,0.0,0.0,0.0,0.0,0.0,0.0,0.0,0.0,-1.7367,-1.7662,-1.8584,-1.9145,-1.9265,-1.9265,-1.9265,-1.9265,-1.9105,-1.9132,-1.9417,-1.8824,-1.8704,-1.8905,-1.8382,-1.8905,-2.0085,-2.023,-2.1542,-2.3555,-2.3315,-2.3732,-2.458,-2.529,-2.5505,0.0,0.0,0.0,0.0,0.0,0.0,0.0,-2.7523,-2.7679,-2.7687,-2.7592,-2.7554,-2.7577,-2.7362,-2.7657,-2.8125,-2.8893,-3.0159,-3.1459,-3.2125,-3.2218,-3.223,-3.2294,-3.2294,-3.2294,-3.2358,-3.2613,-3.274,-3.2422,-3.2613,-3.2676,-3.2422,-3.2613,-3.2785,-3.2785,-3.3038,-3.3228,-3.3292,-3.3292,-3.333,-3.3555,-3.3887,-3.416,-3.4355,-3.4668,-3.5059,-3.5508,-3.5527,-3.5684,-3.6016,-3.6016,-3.6016,-3.6016,-3.6016,-3.6016,-3.6016,-3.6016,-3.5976,-3.5859,-3.5527,-3.5586,-3.5898,-3.5976,-3.5976,-3.5879,-3.5879,-3.5879,-3.5879,-3.5879,-3.5937,-3.6016,0.0,0.0,0.0,0.0,0.0,0.0,0.0,0.0,0.0,0.0,0.0,0.0,0.0,0.0,0.0,0.0,0.0,0.0,0.0,-1.7319,-1.8002,-1.8604,-1.9682,-2.027,-2.027,-2.0059,-2.0059,-2.027,-2.0457,-2.0189,-1.9417,-1.9513,-1.9654,-1.9724,-1.9359,-2.0052,-2.1512,-2.1509,-2.265,-2.4432,-2.4122,-2.4527,-2.5448,-2.5826,-2.5953,-2.6057,-2.6669,0.0,0.0,0.0,0.0,0.0,0.0,0.0,-2.8141,-2.8091,-2.8087,-2.8033,-2.7926,-2.8269,-2.9033,-3.0335,-3.1265,-3.2076,-3.2738,-3.2848,-3.2848,-3.2848,-3.274,-3.2676,-3.2867,-3.3038,-3.3102,-3.2931,-3.3038,-3.3102,-3.2912,-3.3038,-3.3102,-3.3102,-3.3292,-3.3418,-3.3418,-3.3418,-3.3418,-3.3418,-3.3633,-3.3848,-3.4062,-3.4277,-3.4609,-3.5039,-3.5273,-3.5391,-3.5391,-3.5605,-3.5605,-3.5391,-3.5605,-3.582,-3.6016,-3.6016,-3.6016,-3.6016,-3.5781,-3.582,-3.6016,-3.6016,-3.6016,-3.6016,-3.6016,-3.6016,-3.6016,-3.6016,-3.6016,-3.6016,0.0,0.0,0.0,0.0,0.0,0.0,0.0,0.0,0.0,0.0,0.0,0.0,0.0,0.0,0.0,0.0,0.0,0.0,0.0,-1.8056,-1.9203,-2.0021,-2.1011,-2.1487,-2.1427,-2.1089,-2.1059,-2.1282,-2.2166,-2.1729,-2.0083,-2.0781,-2.1122,-2.1107,-2.0982,-2.1756,-2.3238,-2.2955,-2.3704,-2.512,-2.5084,-2.5643,-2.6492,-2.6773,-2.6914,-2.6914,-2.6914,-2.7014,-2.7155,-2.7155,0.0,0.0,0.0,0.0,-2.8203,-2.8262,-2.8301,-2.832,-2.8379,-2.9023,-3.0115,-3.166,-3.2109,-3.2363,-3.3144,-3.3379,-3.3418,-3.3418,-3.3165,-3.3038,-3.3355,-3.3418,-3.3418,-3.3418,-3.3418,-3.3418,-3.3418,-3.3418,-3.3418,-3.3418,-3.3418,-3.3418,-3.3418,-3.3418,-3.3418,-3.3418,-3.3418,-3.3574,-3.3945,-3.3965,-3.416,-3.457,-3.4961,-3.5019,-3.4707,-3.5078,-3.5117,-3.4824,-3.5273,-3.5684,-3.6016,-3.6016,-3.6016,-3.6016,-3.6016,-3.6016,-3.6016,-3.6016,-3.6016,-3.6016,-3.6016,-3.6016,-3.6016,-3.6016,-3.6016,-3.6016,0.0,0.0,0.0,0.0,0.0,0.0,0.0,0.0,0.0,0.0,-1.7274,-1.7383,-1.6565,-1.7541,0.0,0.0,0.0,0.0,-1.8782,0.0,0.0,-2.1585,-2.2356,-2.2607,-2.2237,-2.219,-2.2033,-2.1744,-2.2881,-2.3249,-2.287,-2.2759,-2.2692,-2.2692,-2.2592,-2.3007,-2.3819,-2.3957,-2.4537,-2.5301,-2.5941,-2.6032,-2.5859,-2.6328,-2.6465,-2.6465,-2.6465,-2.6738,-2.7039,-2.7039,-2.7078,0.0,0.0,0.0,-2.7865,-2.8184,-2.8301,-2.8379,-2.873,-2.9453,-3.0351,-3.1348,-3.1894,-3.2285,-3.2773,-3.3164,-3.3418,-3.3418,-3.3355,-3.3355,-3.3418,-3.3418,-3.3418,-3.3418,-3.3418,-3.3418,-3.3418,-3.3418,-3.3418,-3.3418,-3.3418,-3.3418,-3.3418,-3.3418,-3.3418,-3.3418,-3.3418,-3.3437,-3.3496,-3.3516,-3.3711,-3.4141,-3.4219,-3.4394,-3.4687,-3.4766,-3.4961,-3.5312,-3.5742,-3.5957,-3.6016,-3.6016,-3.6016,-3.6016,-3.6016,-3.6016,-3.6016,-3.6016,-3.6016,-3.6016,-3.6016,-3.6016,-3.6016,-3.6016,-3.6016,-3.6016,0.0,0.0,0.0,0.0,0.0,0.0,0.0,0.0,0.0,0.0,0.0,-1.7173,-1.764,-1.8336,0.0,0.0,0.0,0.0,-2.0105,-2.0815,0.0,0.0,-2.2918,-2.3249,-2.3067,-2.3174,-2.3145,-2.2978,-2.4104,-2.465,-2.4671,-2.5394,-2.5429,-2.4834,-2.4746,-2.488,-2.5186,-2.537,-2.54,-2.5352,-2.579,-2.6055,-2.6094,-2.6055,-2.6172,-2.6367,-2.6113,-2.6309,-2.666,-2.666,-2.6816,-2.7051,-2.7246,0.0,0.0,0.0,-2.793,-2.8144,-2.9043,-2.9551,-3.0117,-3.123,-3.166,-3.1914,-3.2344,-3.2773,-3.3066,-3.3066,-3.3262,-3.3418,-3.3418,-3.3418,-3.3418,-3.3418,-3.3418,-3.3418,-3.3418,-3.3418,-3.3418,-3.3418,-3.3418,-3.3418,-3.3418,-3.3418,-3.3418,-3.3418,-3.3418,-3.3418,-3.3418,-3.3418,-3.3516,-3.3691,-3.3945,-3.4043,-3.3984,-3.4219,-3.4453,-3.4668,-3.5078,-3.541,-3.5684,-3.5918,-3.6016,-3.6016,-3.6016,-3.6016,-3.6016,-3.6016,-3.6016,-3.6016,-3.6016,-3.6016,-3.6016,-3.6016,-3.6016,-3.6016,0.0,0.0,0.0,0.0,0.0,0.0,0.0,0.0,0.0,0.0,0.0,-1.7717,-1.8673,0.0,0.0,0.0,0.0,0.0,-2.1333,0.0,0.0,0.0,0.0,-2.4036,-2.3826,-2.4122,-2.4278,-2.4171,-2.4974,-2.561,-2.6028,-2.7292,-2.7633,-2.7139,-2.6903,-2.6782,-2.6716,-2.6625,-2.6198,-2.5739,-2.5839,-2.6094,-2.6367,-2.6103,-2.6191,-2.6348,-2.6016,-2.6035,-2.623,-2.623,-2.6426,-2.6699,-2.6816,-2.6855,0.0,0.0,0.0,-2.7963,-2.9082,-2.9394,-2.9687,-3.0879,-3.1269,-3.1465,-3.1894,-3.2324,-3.2656,-3.2773,-3.3047,-3.3301,-3.3398,-3.3418,-3.3418,-3.3418,-3.3418,-3.3418,-3.3418,-3.3418,-3.3418,-3.3418,-3.3418,-3.3418,-3.3418,-3.3418,-3.3418,-3.3418,-3.3418,-3.3418,-3.3418,-3.3418,-3.3418,-3.3418,-3.373,-3.375,-3.3418,-3.3848,-3.4082,-3.4082,-3.4492,-3.4883,-3.5234,-3.5664,-3.5859,-3.5859,-3.5976,-3.6016,-3.6016,-3.6016,-3.6016,-3.6016,-3.6016,-3.6016,-3.6016,-3.6016,-3.6016,-3.6016,0.0,0.0,0.0,0.0,0.0,0.0,0.0,0.0,0.0,0.0,0.0,0.0,-1.8888,-1.9666,-2.0275,-2.0303,0.0,0.0,0.0,0.0,0.0,0.0,0.0,0.0,-2.4455,-2.5077,-2.5227,-2.485,-2.493,-2.5705,-2.7223,-2.766,-2.8459,-2.94,-2.8972,-2.8524,-2.8111,-2.7344,-2.6973,-2.6863,-2.6523,-2.6367,-2.6426,-2.6797,-2.6719,-2.6387,-2.6367,-2.6094,-2.5732,-2.5732,-2.5732,-2.583,-2.6289,-2.6426,-2.6504,0.0,0.0,0.0,-2.8711,-2.8945,-2.916,-3.0039,-3.0586,-3.1035,-3.1445,-3.1894,-3.2324,-3.2715,-3.2812,-3.2949,-3.334,-3.3418,-3.3418,-3.3418,-3.3418,-3.3418,-3.3418,-3.3418,-3.3418,-3.3418,-3.3418,-3.3418,-3.3418,-3.3418,-3.3418,-3.3418,-3.3418,-3.3418,-3.3418,-3.3418,-3.3418,-3.3418,-3.3437,-3.3437,-3.3418,-3.3848,-3.4082,-3.4082,-3.4492,-3.4707,-3.4746,-3.5215,-3.543,-3.5449,-3.584,-3.6016,-3.6016,-3.6016,-3.6016,-3.6016,-3.6016,-3.6016,-3.6016,-3.6016,-3.6016,-3.6016,0.0,0.0,0.0,0.0,0.0,0.0,0.0,0.0,0.0,0.0,0.0,0.0,0.0,-2.0076,-2.0529,-2.1132,-2.1356,0.0,0.0,0.0,0.0,0.0,0.0,0.0,-2.435,-2.5572,-2.5741,-2.4785,-2.5198,-2.6002,-2.7091,-2.7247,-2.796,-2.9141,-2.8984,-2.8535,-2.7871,-2.7559,-2.6953,-2.6181,-2.6621,-2.6797,-2.6777,-2.666,-2.6855,-2.7129,-2.6582,-2.6289,-2.6152,-2.6152,-2.5977,-2.5713,-2.5918,-2.5977,-2.6055,-2.6484,-2.7109,-2.7845,-2.8359,-2.8711,-2.9062,-2.9648,-3.0117,-3.0488,-3.0625,-3.123,-3.1797,-3.1953,-3.2402,-3.2832,-3.2988,-3.3242,-3.3418,-3.3418,-3.3418,-3.3418,-3.3418,-3.3418,-3.3418,-3.3418,-3.3418,-3.3418,-3.3418,-3.3418,-3.3418,-3.3418,-3.3418,-3.3418,-3.3418,-3.3418,-3.3418,-3.3418,-3.3418,-3.3418,-3.3418,-3.3574,-3.3652,-3.3652,-3.4082,-3.4297,-3.4316,-3.5059,-3.5391,-3.541,-3.584,-3.6016,-3.6016,-3.6016,-3.6016,-3.6016,-3.6016,-3.6016,-3.6016,-3.6016,-3.6016,-3.6016,0.0,0.0,0.0,0.0,0.0,0.0,0.0,0.0,-1.7804,-1.8532,0.0,0.0,0.0,0.0,-2.1042,-2.1642,-2.1865,-2.1954,-2.1954,-2.2043,0.0,0.0,0.0,0.0,-2.4543,-2.5841,-2.6137,-2.5286,-2.5567,-2.6064,-2.6816,-2.6953,-2.7617,-2.8691,-2.8398,-2.8125,-2.7851,-2.7578,-2.6953,-2.6161,-2.6797,-2.6934,-2.6836,-2.7129,-2.7324,-2.7422,-2.7129,-2.6836,-2.6602,-2.6602,-2.6309,-2.5908,-2.5908,-2.581,-2.5752,-2.6094,-2.6777,-2.7539,-2.7969,-2.8398,-2.8809,-2.9238,-2.957,-2.9844,-3.0137,-3.0644,-3.1152,-3.1445,-3.1973,-3.2461,-3.2734,-3.3027,-3.3262,-3.3398,-3.3418,-3.3418,-3.3418,-3.3418,-3.3418,-3.3418,-3.3418,-3.3418,-3.3418,-3.3418,-3.3418,-3.3418,-3.3418,-3.3418,-3.3418,-3.3418,-3.3418,-3.3418,-3.3418,-3.3418,-3.3418,-3.3418,-3.3418,-3.3418,-3.3711,-3.3848,-3.3887,-3.4609,-3.5019,-3.5176,-3.5625,-3.5898,-3.6016,-3.6016,-3.6016,-3.6016,-3.6016,-3.6016,-3.6016,-3.6016,-3.6016,-3.6016,0.0,0.0,0.0,0.0,0.0,0.0,0.0,0.0,-1.9491,-2.0252,0.0,0.0,0.0,0.0,0.0,-2.1723,-2.1723,-2.1946,-2.2391,-2.2258,0.0,0.0,0.0,0.0,-2.5058,-2.5944,-2.6406,-2.6367,-2.5957,-2.5977,-2.6387,-2.6777,-2.7441,-2.8223,-2.7383,-2.7461,-2.8184,-2.7363,-2.7012,-2.6992,-2.7012,-2.6777,-2.6602,-2.8242,-2.8125,-2.7187,-2.7988,-2.7754,-2.707,-2.7051,-2.6758,-2.6406,-2.6387,-2.6074,-2.5674,-2.5693,-2.6328,-2.707,0.0,0.0,0.0,-2.8735,-2.8852,-2.9141,-2.9961,-3.0176,-3.043,-3.1289,-3.1484,-3.1758,-3.2617,-3.2793,-3.293,-3.3359,-3.3418,-3.3418,-3.3418,-3.3437,-3.3437,-3.3418,-3.3437,-3.3437,-3.3418,-3.3418,-3.3418,-3.3418,-3.3418,-3.3418,-3.3418,-3.3418,-3.3418,-3.3418,-3.3418,-3.3418,-3.3418,-3.3418,-3.3418,-3.3418,-3.3418,-3.3418,-3.3437,-3.3867,-3.4297,-3.4726,-3.5195,-3.5625,-3.6016,-3.6016,-3.6016,-3.6016,-3.6016,-3.6016,-3.6016,-3.6016,-3.6016,-3.6016,0.0,0.0,0.0,0.0,0.0,-1.8059,-1.8817,-1.8938,-1.9577,0.0,0.0,0.0,-2.2939,-2.2748,-2.2565,-2.2565,-2.2769,-2.2889,-2.3055,-2.3194,-2.3434,-2.3779,-2.5102,-2.5759,-2.5499,-2.6727,-2.6855,-2.5869,-2.6113,-2.6113,-2.5918,-2.5986,-2.6493,-2.7344,-2.6797,-2.6699,-2.6914,-2.6992,-2.6836,-2.6582,-2.6894,-2.7129,-2.7324,-2.748,-2.7891,-2.8379,-2.832,-2.834,-2.834,-2.8047,-2.7461,-2.6777,-2.6484,-2.5859,-2.5312,-2.5596,-2.5849,-2.5974,-2.5552,0.0,0.0,0.0,0.0,0.0,-2.9219,-2.9512,-2.9902,-3.0449,-3.084,-3.1328,-3.2187,-3.2598,-3.293,-3.3359,-3.3418,-3.3418,-3.3418,-3.3691,-3.3769,-3.3457,-3.3691,-3.3769,-3.3457,-3.3418,-3.3418,-3.3418,-3.3418,-3.3418,-3.3418,-3.3418,-3.3418,-3.3418,-3.3418,-3.3418,-3.3418,-3.3418,-3.3418,-3.3418,-3.3418,-3.3418,-3.3437,-3.3867,-3.4297,-3.4726,-3.5195,-3.5625,-3.6016,-3.6016,-3.6016,-3.6016,-3.6016,-3.6016,-3.6016,-3.6016,-3.6016,-3.6016,0.0,0.0,0.0,-1.8677,-1.87,-1.8826,-1.913,-1.9836,-2.0779,0.0,0.0,0.0,-2.3468,-2.3297,-2.3151,-2.3151,-2.3222,-2.3439,-2.3702,-2.372,-2.3907,-2.4333,-2.5391,-2.6048,-2.6071,-2.7136,-2.7207,-2.622,-2.6348,-2.6172,-2.5693,-2.5693,-2.6094,-2.6738,-2.6309,-2.6211,-2.6387,-2.6445,-2.6348,-2.6191,-2.6973,-2.7324,-2.7461,-2.8105,-2.8574,-2.8926,-2.9043,-2.9141,-2.916,-2.8906,-2.8144,-2.7148,-2.6367,-2.5762,-2.5371,-2.543,-2.5723,-2.5907,-2.5471,-2.6346,-2.7286,-2.6835,0.0,0.0,-2.8613,-2.8984,-2.9414,-2.9844,-3.0293,-3.082,-3.1504,-3.2129,-3.2676,-3.3086,-3.3301,-3.3418,-3.3418,-3.3789,-3.3984,-3.373,-3.3926,-3.4043,-3.3965,-3.3633,-3.3496,-3.3691,-3.3516,-3.3418,-3.3418,-3.3418,-3.3418,-3.3418,-3.3418,-3.3418,-3.3418,-3.3418,-3.3418,-3.3418,-3.3418,-3.3418,-3.3437,-3.3691,-3.4023,-3.4453,-3.4902,-3.5351,-3.5762,-3.5937,-3.6016,-3.6016,-3.6016,-3.6016,-3.6016,-3.6016,-3.6016,-3.6016,0.0,0.0,-1.8958,-1.8931,-1.9373,-1.9667,-1.9441,-2.1197,-2.2449,0.0,-2.3569,-2.4207,-2.3791,-2.3682,-2.3645,-2.37,-2.3555,-2.3767,-2.4382,-2.4089,-2.4174,-2.4775,-2.5651,-2.6249,-2.6577,-2.7357,-2.75,-2.7012,-2.6641,-2.623,-2.5752,-2.5713,-2.5937,-2.6289,-2.5918,-2.5957,-2.6289,-2.5898,-2.5713,-2.5869,-2.7109,-2.7422,-2.7363,-2.9316,-2.9629,-2.916,-2.9922,-3.0,-2.9707,-2.9609,-2.8789,-2.7578,-2.6348,-2.5869,-2.5781,-2.5293,-2.5703,-2.6309,-2.6159,-2.6559,-2.698,-2.6917,-2.7338,0.0,-2.8223,-2.8613,-2.9023,-2.9414,-2.9805,-3.0234,-3.0781,-3.1504,-3.2168,-3.2656,-3.3086,-3.3379,-3.3418,-3.3848,-3.4121,-3.4082,-3.416,-3.4336,-3.4668,-3.3965,-3.3652,-3.4043,-3.3672,-3.3418,-3.3418,-3.3418,-3.3418,-3.3418,-3.3418,-3.3418,-3.3418,-3.3418,-3.3418,-3.3418,-3.3418,-3.3418,-3.3418,-3.3418,-3.3652,-3.4101,-3.4512,-3.4961,-3.543,-3.584,-3.6016,-3.6016,-3.6016,-3.6016,-3.6016,-3.6016,-3.6016,-3.6016,0.0,-1.9118,-1.9199,-1.8958,-1.9542,-2.0332,-2.1239,-2.202,-2.3132,-2.4945,-2.5441,-2.5635,-2.5491,-2.4922,-2.4666,-2.4977,-2.4698,-2.4746,-2.5251,-2.5176,-2.5271,-2.548,-2.6326,-2.6676,-2.6454,-2.7598,-2.7793,-2.7012,-2.6934,-2.668,-2.625,-2.5898,-2.5732,-2.581,-2.5732,-2.5732,-2.581,-2.5732,-2.5937,-2.6309,-2.6894,-2.75,-2.8125,-2.8887,-2.9492,-2.9961,-3.0137,-3.0391,-3.0527,-2.9805,-2.918,-2.8516,-2.7578,-2.7051,-2.6621,-2.584,-2.5674,-2.5615,-2.4672,-2.5686,-2.6833,-2.6274,-2.7393,0.0,-2.8359,-2.8613,-2.8945,-2.9023,-2.9121,-2.9531,-3.0684,-3.1035,-3.1387,-3.2168,-3.2637,-3.3027,-3.3379,-3.4082,-3.4453,-3.4121,-3.4707,-3.5019,-3.4726,-3.4238,-3.3984,-3.4062,-3.3672,-3.3418,-3.3418,-3.3418,-3.3418,-3.3418,-3.3418,-3.3418,-3.3418,-3.3418,-3.3418,-3.3418,-3.3418,-3.3418,-3.3418,-3.3418,-3.3652,-3.4101,-3.4512,-3.4961,-3.543,-3.584,-3.6016,-3.6016,-3.6016,-3.6016,-3.6016,-3.6016,-3.6016,-3.6016,-1.9118,-1.977,-2.0056,-1.9287,-2.0327,-2.1252,-2.1307,-2.2466,-2.3842,-2.5271,-2.61,-2.6462,-2.6058,-2.5653,-2.5414,-2.5414,-2.5352,-2.5377,-2.5614,-2.5408,-2.5402,-2.5591,-2.5894,-2.6174,-2.6275,-2.7122,-2.7386,-2.7117,-2.6904,-2.6645,-2.6387,-2.5937,-2.5693,-2.5693,-2.5693,-2.5693,-2.5693,-2.5693,-2.5859,-2.6152,-2.7226,-2.8027,-2.8691,-2.957,-3.0176,-3.0547,-3.0547,-3.0703,-3.0723,-2.9609,-2.9101,-2.8769,-2.793,-2.7519,-2.7207,-2.6562,-2.6317,-2.612,-2.5085,-2.5572,-2.6373,-2.6427,-2.7218,0.0,0.0,-2.8457,-2.8613,-2.8613,-2.8769,-2.9121,-2.9785,-3.0254,-3.0762,-3.1426,-3.207,-3.2559,-3.2773,-3.3711,-3.4316,-3.4101,-3.4648,-3.4961,-3.4726,-3.4316,-3.3984,-3.3769,-3.3535,-3.3418,-3.3418,-3.3418,-3.3418,-3.3418,-3.3418,-3.3418,-3.3418,-3.3418,-3.3418,-3.3418,-3.3418,-3.3418,-3.3418,-3.3418,-3.3535,-3.3789,-3.4414,-3.4824,-3.5098,-3.5742,-3.6016,-3.6016,-3.6016,-3.6016,-3.6016,-3.6016,-3.6016,-3.6016,-1.9292,-2.0155,-2.0529,-1.9465,-2.1021,-2.2104,-2.1178,-2.2988,-2.4626,-2.5151,-2.6349,-2.6958,-2.6425,-2.6296,-2.6186,-2.5968,-2.5959,-2.6005,-2.615,-2.5666,-2.5432,-2.561,-2.5459,-2.5628,-2.6172,-2.666,-2.7027,-2.7218,-2.6846,-2.6633,-2.6504,-2.5977,-2.5732,-2.581,-2.5732,-2.5732,-2.581,-2.5732,-2.583,-2.6181,-2.7695,-2.8398,-2.8711,-3.0098,-3.0644,-3.0664,-3.082,-3.0898,-3.0723,-2.9551,-2.916,-2.9004,-2.8086,-2.7963,-2.7963,-2.7207,-2.7129,-2.709,-2.6328,-2.6122,-2.6387,-2.709,-2.7383,-2.7637,0.0,0.0,0.0,-2.832,-2.8633,-2.8926,-2.8926,-2.9551,-3.0234,-3.0684,-3.1406,-3.1953,-3.2031,-3.3066,-3.3867,-3.3945,-3.4394,-3.4707,-3.4707,-3.4316,-3.3887,-3.3457,-3.3418,-3.3418,-3.3418,-3.3418,-3.3418,-3.3418,-3.3418,-3.3418,-3.3418,-3.3418,-3.3418,-3.3418,-3.3418,-3.3418,-3.3418,-3.3418,-3.3476,-3.3594,-3.4355,-3.4746,-3.4902,-3.5684,-3.6016,-3.6016,-3.6016,-3.6016,-3.6016,-3.6016,-3.6016,-3.6016,-1.931,-1.9533,-1.9452,-1.9025,-2.0873,-2.2379,-2.2285,-2.3975,-2.5552,-2.6318,-2.6866,-2.727,-2.7583,-2.7307,-2.7306,-2.7985,-2.7123,-2.6755,-2.7344,-2.6691,-2.6199,-2.6031,-2.6064,-2.6083,-2.6088,-2.685,-2.7218,-2.7218,-2.7053,-2.6941,-2.6914,-2.6064,-2.5937,-2.6289,-2.5918,-2.5957,-2.6289,-2.5898,-2.6406,-2.75,-2.8066,-2.7871,-2.7422,-2.9082,-2.9783,-2.9824,-3.0605,-3.0898,-3.0801,-3.0234,-3.0059,-2.9844,-2.8613,-2.875,-2.9043,-2.748,-2.7559,-2.8047,-2.7578,-2.7715,-2.8027,-2.8125,-2.8711,-2.9101,-2.8437,0.0,-2.875,-2.8359,0.0,-2.8926,-2.8926,0.0,0.0,-3.0215,-3.0703,-3.1172,-3.1543,-3.2363,-3.3086,-3.3457,-3.4199,-3.4707,-3.4707,-3.4316,-3.3887,-3.3457,-3.3418,-3.3418,-3.3418,-3.3418,-3.3418,-3.3418,-3.3418,-3.3418,-3.3418,-3.3418,-3.3418,-3.3418,-3.3418,-3.3418,-3.3418,-3.3418,-3.3633,-3.4023,-3.4492,-3.4941,-3.5351,-3.582,-3.6016,-3.6016,-3.6016,-3.6016,-3.6016,-3.6016,-3.6016,-3.6016,-1.999,-2.0727,-2.1249,-2.1237,-2.2696,-2.3806,-2.3823,-2.5708,-2.7086,-2.694,-2.7691,-2.8205,-2.8132,-2.7985,-2.793,-2.8022,-2.7783,-2.7473,-2.7031,-2.6681,-2.6347,-2.6045,-2.5856,-2.5726,-2.5674,-2.6222,-2.6692,-2.6974,-2.6659,-2.6654,-2.6992,-2.6083,-2.5791,-2.6016,-2.6094,-2.6211,-2.6387,-2.6191,-2.6426,-2.6953,-2.7383,-2.7344,-2.7266,-2.9492,-3.0332,-3.0391,-3.0762,-3.0898,-3.0781,-3.0078,-2.9824,-2.9746,-2.9199,-2.9101,-2.9043,-2.834,-2.8203,-2.8203,-2.7826,-2.7793,-2.8047,-2.8535,-2.875,-2.8789,-2.8691,-2.8613,-2.8496,-2.832,0.0,0.0,0.0,0.0,0.0,0.0,-3.043,-3.0957,-3.1133,-3.1894,-3.2598,-3.3008,-3.3594,-3.3965,-3.3965,-3.3789,-3.3613,-3.3437,-3.3418,-3.3418,-3.3418,-3.3418,-3.3418,-3.3418,-3.3418,-3.3418,-3.3418,-3.3418,-3.3418,-3.3418,-3.3418,-3.3418,-3.3418,-3.3418,-3.3516,-3.3711,-3.4141,-3.459,-3.5019,-3.5469,-3.5801,-3.6016,-3.6016,-3.6016,-3.6016,-3.6016,-3.6016,-3.6016,-2.1,-2.1698,-2.2227,-2.2476,-2.376,-2.4923,-2.536,-2.6963,-2.793,-2.7563,-2.8278,-2.8792,-2.8718,-2.8718,-2.8682,-2.8608,-2.8663,-2.8352,-2.7471,-2.7086,-2.6774,-2.6517,-2.5911,-2.569,-2.5911,-2.5927,-2.6231,-2.6827,-2.6352,-2.6454,-2.7065,-2.6159,-2.5878,-2.6044,-2.6289,-2.6523,-2.6738,-2.6738,-2.6934,-2.7285,-2.7598,-2.7871,-2.8262,-2.9902,-3.0684,-3.0898,-3.0898,-3.0898,-3.0781,-3.0,-2.9746,-2.9726,-2.9609,-2.9434,-2.9238,-2.9121,-2.8965,-2.875,-2.8437,-2.8413,-2.8476,-2.8965,-2.8867,-2.8672,-2.873,-2.8594,-2.8457,-2.8457,-2.8984,0.0,0.0,0.0,-3.0059,-2.9941,0.0,-3.0898,-3.0898,-3.1523,-3.2109,-3.2402,-3.293,-3.3301,-3.3418,-3.3418,-3.3418,-3.3418,-3.3418,-3.3418,-3.3418,-3.3418,-3.3418,-3.3418,-3.3418,-3.3418,-3.3418,-3.3418,-3.3418,-3.3418,-3.3418,-3.3418,-3.3418,-3.3418,-3.3496,-3.3613,-3.3945,-3.4375,-3.4922,-3.5254,-3.5644,-3.6016,-3.6016,-3.6016,-3.6016,-3.6016,-3.6016,-3.6016,-2.2167,-2.1785,-2.1274,-2.1288,-2.3199,-2.536,-2.6864,-2.7196,-2.749,-2.826,-2.8388,-2.87,-2.9452,-2.9525,-2.9837,-3.0626,-2.9984,-2.9586,-2.9489,-2.8428,-2.7785,-2.7767,-2.6627,-2.637,-2.7105,-2.6252,-2.6188,-2.6971,-2.6465,-2.6536,-2.7179,-2.6282,-2.6261,-2.6953,-2.6562,-2.6855,-2.7669,-2.7669,-2.8393,-2.9528,-2.9492,-3.0,-3.0684,-2.9902,-3.0137,-3.0898,-3.0898,-3.0898,-3.082,-3.0332,-3.0176,-3.0098,-2.9707,-2.9844,-3.0078,-2.9668,-2.9824,-3.0137,-3.0117,-3.0117,-3.0019,-2.9648,-2.9607,-2.9316,-2.8496,-2.8613,-2.8906,-2.8906,-2.9922,-3.0684,-3.0215,-3.0859,-3.1328,-3.0918,-3.0879,0.0,0.0,-3.1269,-3.1543,-3.1562,-3.2305,-3.2969,-3.3379,-3.3418,-3.3418,-3.3418,-3.3418,-3.3418,-3.3418,-3.3418,-3.3418,-3.3418,-3.3418,-3.3418,-3.3418,-3.3418,-3.3418,-3.3418,-3.3418,-3.3418,-3.3418,-3.3418,-3.3652,-3.4062,-3.4062,-3.457,-3.5371,-3.5391,-3.5644,-3.6016,-3.6016,-3.6016,-3.6016,-3.6016,-3.6016,-3.6084,-2.138,-2.205,-2.2862,-2.4501,-2.4778,-2.536,-2.6938,-2.7636,-2.8168,-2.8718,-2.925,-2.98,-3.0314,-3.0369,-3.0479,-3.0772,-3.0534,-3.0149,-2.9599,-2.8938,-2.8462,-2.8187,-2.7526,-2.7105,-2.6793,-2.6755,-2.6697,-2.6598,-2.6162,-2.6295,-2.6902,-2.6047,-2.5774,-2.6028,-2.6365,-2.6853,-2.7447,-2.7604,-2.8242,-2.916,-2.9453,-3.0273,-3.125,-3.0664,-3.0625,-3.0898,-3.0898,-3.0898,-3.0918,-3.1035,-3.0684,-3.0273,-3.0723,-3.0371,-2.9805,-2.9941,-2.9883,-2.9844,-3.0117,-3.043,-3.0547,-3.0098,-2.9785,-2.9414,-2.8848,-2.8809,-2.8926,-2.8926,-3.0195,-3.1074,-3.0332,-3.1152,-3.1719,-3.1016,-3.1133,-3.1211,0.0,-3.1016,-3.1211,-3.1484,-3.2266,-3.2637,-3.2207,-3.293,-3.3301,-3.3027,-3.3535,-3.373,-3.3437,-3.3691,-3.3711,-3.3437,-3.3418,-3.3418,-3.3418,-3.3418,-3.3418,-3.3418,-3.3418,-3.3418,-3.3418,-3.3418,-3.3496,-3.3633,-3.3633,-3.4141,-3.4941,-3.4941,-3.5371,-3.6016,-3.6016,-3.6016,-3.6016,-3.6268,-3.6336,-3.6403,-2.1738,-2.2653,-2.3795,-2.5641,-2.5803,-2.6071,-2.7212,-2.8077,-2.8755,-2.914,-2.9782,-3.0351,-3.0754,-3.0791,-3.0846,-3.0992,-3.0992,-3.0662,-2.9855,-2.9562,-2.9232,-2.8828,-2.8278,-2.782,-2.7453,-2.727,-2.7032,-2.666,-2.6271,-2.6356,-2.6865,-2.6017,-2.5673,-2.5774,-2.6111,-2.6724,-2.7521,-2.7835,-2.8626,-2.9713,-3.014,-3.0879,-3.1719,-3.1445,-3.1348,-3.1348,-3.1348,-3.1348,-3.1387,-3.166,-3.1367,-3.0996,-3.1562,-3.1055,-3.0312,-3.0586,-3.0371,-3.0137,-3.0547,-3.0879,-3.1035,-3.0742,-3.0469,-3.0098,-2.9512,-2.9492,-2.9629,-2.9629,-3.0762,-3.1621,-3.1191,-3.1816,-3.2168,-3.1465,-3.1445,-3.1367,0.0,-3.0898,-3.0996,-3.1269,-3.1914,-3.2246,-3.1992,-3.2578,-3.2988,-3.3008,-3.3535,-3.3789,-3.3652,-3.3926,-3.3945,-3.3672,-3.3496,-3.3418,-3.3418,-3.3418,-3.3418,-3.3418,-3.3418,-3.3418,-3.3418,-3.3418,-3.3418,-3.3418,-3.3418,-3.3906,-3.4707,-3.4707,-3.5281,-3.6152,-3.6084,-3.6152,-3.6423,-3.6336,-3.6471,-3.6789,-2.3168,-2.363,-2.4032,-2.4842,-2.6201,-2.7306,-2.7785,-2.8462,-2.9104,-2.9544,-2.9965,-3.0387,-3.0772,-3.0809,-3.0974,-3.1341,-3.1377,-3.1066,-3.0314,-3.0241,-3.0057,-2.9654,-2.8902,-2.8645,-2.9012,-2.7875,-2.7251,-2.7233,-2.6811,-2.6755,-2.7008,-2.6188,-2.5952,-2.6191,-2.5793,-2.646,-2.791,-2.8334,-2.9488,-3.1024,-3.1427,-3.1864,-3.2268,-3.2268,-3.2207,-3.2226,-3.2187,-3.2229,-3.2168,-3.2187,-3.2248,-3.2168,-3.2187,-3.1894,-3.1543,-3.1543,-3.1269,-3.1035,-3.1445,-3.1562,-3.1582,-3.1562,-3.1543,-3.1289,-3.0449,-3.0605,-3.0918,-3.0918,-3.1621,-3.2344,-3.2676,-3.2754,-3.2617,-3.2168,-3.1758,-3.1348,-3.0918,-3.0879,-3.0879,-3.0859,-3.123,-3.1816,-3.2617,-3.2383,-3.25,-3.3301,-3.3398,-3.3613,-3.4043,-3.4082,-3.4082,-3.4082,-3.3652,-3.3418,-3.3418,-3.3418,-3.3418,-3.3418,-3.3418,-3.3418,-3.3418,-3.3418,-3.3418,-3.3418,-3.3418,-3.3906,-3.4707,-3.4707,-3.5395,-3.6451,-3.6152,-3.6491,-3.7011,-3.6355,-3.6559,-3.7146,-2.363,-2.5391,-2.6768,-2.7019,-2.712,-2.7416,-2.8132,-2.8407,-2.8902,-2.991,-3.0387,-3.0791,-3.1176,-3.1231,-3.1267,-3.1359,-3.1377,-3.1286,-3.1084,-3.0791,-3.0589,-3.0479,-3.0002,-2.9635,-2.9434,-2.8828,-2.837,-2.8077,-2.7086,-2.6793,-2.7105,-2.6,-2.5684,-2.6067,-2.6166,-2.6739,-2.7731,-2.8331,-2.9527,-3.1046,-3.1427,-3.2038,-3.2637,-3.2637,-3.2832,-3.3008,-3.2383,-3.2229,-3.2268,-3.2519,-3.2422,-3.2226,-3.2539,-3.2344,-3.2012,-3.2012,-3.1934,-3.1875,-3.1973,-3.2226,-3.2383,-3.207,-3.1758,-3.1465,-3.123,-3.1269,-3.1367,-3.1367,-3.2285,-3.2832,-3.1992,-3.2109,-3.209,-3.1348,-3.1133,-3.0898,-3.043,-3.0664,-3.0762,-3.041,-3.0781,-3.1133,-3.1367,-3.1855,-3.2266,-3.248,-3.3066,-3.3613,-3.4043,-3.4082,-3.4082,-3.4082,-3.3652,-3.3418,-3.3418,-3.3418,-3.3418,-3.3418,-3.3418,-3.3418,-3.3418,-3.3418,-3.3418,-3.3418,-3.3418,-3.3906,-3.4707,-3.4707,-3.5281,-3.6132,-3.6336,-3.6674,-3.7079,-3.7146,-3.728,-3.7549,-2.4212,-2.6685,-2.8612,-2.8612,-2.8428,-2.8315,-2.8608,-2.8792,-2.9214,-3.0094,-3.0552,-3.0882,-3.1102,-3.1267,-3.1377,-3.1377,-3.1377,-3.1304,-3.1139,-3.1066,-3.0974,-3.0791,-3.0571,-3.0351,-3.0112,-2.9544,-2.9048,-2.8645,-2.7618,-2.7123,-2.716,-2.6114,-2.58,-2.6021,-2.618,-2.6639,-2.7399,-2.8727,-2.9938,-3.1153,-3.1722,-3.2291,0.0,-3.3004,-3.3223,-3.3359,-3.2891,-3.2715,-3.2754,-3.2988,-3.291,-3.2754,-3.2988,-3.2773,-3.2441,-3.2441,-3.2305,-3.2268,-3.2383,-3.2617,-3.2793,-3.2734,-3.2539,-3.2305,-3.2129,-3.207,-3.207,-3.207,-3.2656,-3.293,-3.2207,-3.2129,-3.1894,-3.1035,-3.1055,-3.1016,-3.0566,-3.0723,-3.0801,-3.0527,-3.0723,-3.0898,-3.0898,-3.1484,-3.2031,-3.2422,-3.3047,-3.3613,-3.4043,-3.4258,-3.4258,-3.4082,-3.3828,-3.3613,-3.3418,-3.3418,-3.3418,-3.3418,-3.3418,-3.3418,-3.3418,-3.3418,-3.3418,-3.3437,-3.3633,-3.4082,-3.4726,-3.4922,-3.5457,-3.6268,-3.6809,-3.6924,-3.6944,-3.7636,-3.775,-3.7683,-2.5384,-2.7861,-2.9654,-2.9654,-2.969,-2.9635,-2.9342,-2.9544,-2.9874,-3.0296,-3.0754,-3.1029,-3.1029,-3.1341,-3.1543,-3.1543,-3.1488,-3.1322,-3.0974,-3.1212,-3.1231,-3.0882,-3.0864,-3.0864,-3.0864,-3.0112,-2.9544,-2.914,-2.8278,-2.7636,-2.7233,-2.6425,-2.6039,-2.6094,-2.6094,-2.6478,-2.7307,-2.9204,-3.0429,-3.1167,-3.2018,-3.2549,-3.2912,-3.3228,-3.3355,-3.3418,-3.3418,-3.3418,-3.3418,-3.3418,-3.3418,-3.3418,-3.3418,-3.3164,-3.2871,-3.2871,-3.2617,-3.2422,-3.2773,-3.2871,-3.2969,-3.332,-3.3418,-3.332,-3.2969,-3.2871,-3.2871,-3.2871,-3.2871,-3.2832,-3.2656,-3.2226,-3.1641,-3.084,-3.1133,-3.1289,-3.0859,-3.0898,-3.0937,-3.082,-3.0898,0.0,-3.082,-3.1191,-3.1797,-3.2656,-3.3047,-3.3496,-3.4043,-3.4414,-3.4453,-3.4082,-3.4082,-3.3867,-3.3418,-3.3418,-3.3418,-3.3418,-3.3418,-3.3418,-3.3418,-3.3418,-3.3418,-3.3437,-3.3887,-3.4316,-3.4726,-3.5262,-3.5961,-3.6722,-3.728,-3.7213,-3.6856,-3.7837,-3.7971,-3.777,-2.8773,-2.973,-3.0094,-3.0094,-3.0351,-3.0662,-3.0919,-3.0736,-3.0717,-3.1121,-3.1818,-3.2276,-3.2276,-3.2349,-3.2386,-3.2386,-3.2093,-3.1873,-3.1799,-3.1543,-3.1341,-3.1267,-3.1267,-3.1267,-3.1267,-3.0809,-3.0387,-2.9984,-2.8847,-2.8077,-2.7693,-2.6554,-2.6205,-2.6481,-2.6481,-2.7123,-2.8189,-2.926,-3.0124,-3.0878,-3.1657,-3.2358,-3.2931,-3.2975,-3.3165,-3.3418,-3.3418,-3.3418,-3.3418,-3.3418,-3.3418,-3.3418,-3.3418,-3.3379,-3.332,-3.332,-3.3262,-3.3223,-3.3301,-3.332,-3.332,-3.3398,-3.3418,-3.3398,-3.332,-3.332,-3.332,-3.332,-3.332,-3.2988,-3.1934,-3.1074,-3.0371,-2.9939,-3.0469,-3.084,-3.0391,-3.0957,-3.1133,-3.041,-3.0957,-3.1113,-3.0391,-3.0742,-3.1348,-3.2207,-3.2344,-3.2871,-3.4023,-3.4141,-3.4141,-3.4082,-3.4082,-3.3867,-3.3418,-3.3418,-3.3418,-3.3418,-3.3418,-3.3418,-3.3418,-3.3418,-3.3418,-3.3437,-3.3887,-3.4316,-3.4726,-3.5507,-3.641,-3.7415,-3.728,-3.7502,-3.7904,-3.8125,-3.8191,-3.8104,-2.9404,-3.0302,-3.0809,-3.0809,-3.1157,-3.1488,-3.1671,-3.1909,-3.1964,-3.1726,-3.2056,-3.2294,-3.2294,-3.2478,-3.2588,-3.2588,-3.2423,-3.2313,-3.2313,-3.1928,-3.1708,-3.1708,-3.1488,-3.1377,-3.1377,-3.0992,-3.0589,-3.0204,-2.9195,-2.837,-2.7803,-2.7013,-2.6591,-2.6591,-2.6811,-2.7563,-2.8737,-2.9324,-3.0051,-3.0803,-3.1795,-3.2358,-3.2676,-3.3038,-3.3228,-3.3418,-3.3418,-3.3418,-3.3418,-3.3418,-3.3418,-3.3418,-3.3418,-3.3418,-3.3418,-3.3418,-3.3418,-3.3418,-3.3418,-3.3418,-3.3418,-3.3418,-3.3418,-3.3418,-3.3418,-3.3418,-3.3418,-3.3418,-3.3418,-3.3105,-3.2051,-3.168,-3.1328,-3.0684,-3.1133,-3.1387,-3.0937,-3.125,-3.1269,-3.0644,-3.1133,-3.1348,-3.0918,-3.1074,-3.1484,-3.2129,-3.2578,-3.3086,-3.3691,-3.3945,-3.4082,-3.4082,-3.4082,-3.3965,-3.3769,-3.3535,-3.3418,-3.3418,-3.3418,-3.3418,-3.3418,-3.3418,-3.3535,-3.3789,-3.4219,-3.4779,-3.5409,-3.6176,-3.681,-3.7348,-3.7348,-3.7569,-3.7904,-3.7904,-3.7904,-3.7904,-2.9774,-3.0793,-3.1543,-3.1616,-3.1983,-3.2276,-3.2276,-3.2881,-3.3083,-3.2368,-3.2349,-3.2386,-3.2386,-3.2661,-3.2863,-3.2863,-3.2771,-3.2735,-3.2735,-3.2349,-3.2129,-3.2129,-3.1726,-3.1506,-3.1506,-3.1121,-3.0717,-3.0332,-2.9507,-2.8737,-2.8022,-2.7435,-2.7013,-2.6738,-2.7123,-2.793,-2.9012,-2.9507,-3.013,-3.0891,-3.1806,-3.223,-3.2358,-3.2975,-3.3228,-3.3292,-3.3355,-3.3418,-3.3418,-3.3418,-3.3418,-3.3418,-3.3418,-3.3418,-3.3418,-3.3418,-3.3418,-3.3418,-3.3418,-3.3418,-3.3418,-3.3418,-3.3418,-3.3418,-3.3418,-3.3418,-3.3418,-3.3418,-3.3359,-3.3086,-3.2422,-3.2578,-3.2519,-3.166,-3.1953,-3.2109,-3.1601,-3.168,-3.1641,-3.1211,-3.1465,-3.1621,-3.1523,-3.1523,-3.1699,-3.2129,-3.2871,-3.332,-3.3418,-3.3828,-3.4023,-3.3945,-3.4023,-3.4023,-3.3945,-3.3594,-3.3418,-3.3418,-3.3418,-3.3418,-3.3418,-3.3516,-3.375,-3.4101,-3.4629,-3.5277,-3.6043,-3.6602,-3.7011,-3.7213,-3.7415,-3.7616,-3.777,-3.777,-3.7683,-3.7616,-3.1658,-3.188,-3.2056,-3.2423,-3.2826,-3.3101,-3.3101,-3.3468,-3.3596,-3.3175,-3.3431,-3.3651,-3.3651,-3.367,-3.3707,-3.3707,-3.3376,-3.3175,-3.3175,-3.2771,-3.2533,-3.2533,-3.2166,-3.1946,-3.1946,-3.1543,-3.1139,-3.0736,-2.991,-2.9287,-2.8847,-2.771,-2.716,-2.7141,-2.7526,-2.8187,-2.903,-2.9819,-3.0387,-3.0827,-3.1276,-3.1717,-3.1993,-3.2358,-3.2676,-3.2994,-3.3292,-3.3418,-3.3418,-3.3418,-3.3418,-3.3418,-3.3418,-3.3418,-3.3418,-3.3418,-3.3418,-3.3418,-3.3418,-3.3418,-3.3418,-3.3418,-3.3418,-3.3418,-3.3418,-3.3418,-3.3418,-3.3418,-3.3125,-3.2832,-3.2754,-3.2773,-3.2519,-3.166,-3.2207,-3.2461,-3.1641,-3.2187,-3.2519,-3.215,-3.209,-3.1953,-3.1562,-3.1523,-3.1699,-3.2129,-3.2598,-3.3027,-3.3398,-3.3828,-3.3887,-3.3496,-3.3867,-3.3887,-3.3496,-3.3437,-3.3418,-3.3418,-3.3418,-3.3418,-3.3437,-3.3828,-3.4023,-3.4121,-3.4961,-3.5748,-3.6459,-3.62,-3.6694,-3.7549,-3.728,-3.7569,-3.8125,-3.8125,-3.7904,-3.7616,-3.2331,-3.2368,-3.2496,-3.29,-3.312,-3.3303,-3.3541,-3.3707,-3.3762,-3.3596,-3.3725,-3.3817,-3.3817,-3.3817,-3.3817,-3.3817,-3.367,-3.3578,-3.3578,-3.3193,-3.2973,-3.2973,-3.2588,-3.2239,-3.2019,-3.1836,-3.1433,-3.0791,-3.0222,-2.9617,-2.8975,-2.8498,-2.826,-2.8278,-2.8663,-2.9177,-2.9745,-3.0314,-3.0791,-3.1221,-3.1579,-3.1782,-3.1974,-3.2485,-3.2804,-3.2912,-3.3292,-3.3418,-3.3418,-3.3418,-3.3418,-3.3418,-3.3418,-3.3418,-3.3418,-3.3418,-3.3418,-3.3418,-3.3418,-3.3418,-3.3418,-3.3418,-3.3418,-3.3418,-3.3418,-3.3418,-3.3418,-3.3418,-3.3281,-3.3086,-3.2832,-3.3223,-3.3359,-3.2754,-3.3164,-3.3437,-3.3105,-3.3125,-3.3008,-3.2598,-3.2324,-3.215,-3.1934,-3.168,-3.1797,-3.25,-3.2695,-3.2988,-3.3398,-3.3594,-3.373,-3.3809,-3.373,-3.373,-3.3809,-3.3555,-3.3418,-3.3418,-3.3418,-3.3418,-3.3437,-3.3867,-3.4355,-3.4968,-3.5957,-3.6447,-3.6519,-3.6809,-3.7213,-3.7616,-3.7415,-3.7703,-3.8191,-3.7904,-3.7636,-3.728,-3.2753,-3.2771,-3.2918,-3.3321,-3.3395,-3.3486,-3.378,-3.3817,-3.3817,-3.3817,-3.3817,-3.3817,-3.3817,-3.3817,-3.3817,-3.3817,-3.3817,-3.3817,-3.3817,-3.3541,-3.3395,-3.3395,-3.2991,-3.2643,-3.2368,-3.2239,-3.1836,-3.1139,-3.0754,-3.0185,-2.9507,-2.9269,-2.9159,-2.9177,-2.958,-2.9984,-3.0406,-3.0791,-3.1121,-3.1442,-3.1653,-3.1717,-3.1846,-3.2485,-3.274,-3.2785,-3.3228,-3.3418,-3.3418,-3.3418,-3.3418,-3.3418,-3.3418,-3.3418,-3.3418,-3.3418,-3.3418,-3.3418,-3.3418,-3.3418,-3.3418,-3.3418,-3.3418,-3.3418,-3.3418,-3.3418,-3.3418,-3.3418,-3.3418,-3.3379,-3.3203,-3.3672,-3.3926,-3.3496,-3.3789,-3.3984,-3.373,-3.3535,-3.3262,-3.2851,-3.2422,-3.207,-3.1816,-3.1621,-3.1719,-3.2207,-3.2578,-3.293,-3.3223,-3.3359,-3.3516,-3.3691,-3.3516,-3.3574,-3.3887,-3.3574,-3.3418,-3.3418,-3.3555,-3.3613,-3.3633,-3.4199,-3.4929,-3.5787,-3.6535,-3.6809,-3.6722,-3.7146,-3.7348,-3.7415,-3.7348,-3.7549,-3.7837,-3.7549,-3.7213,-3.6876,-3.3138,-3.3211,-3.334,-3.3743,-3.3798,-3.3798,-3.3817,-3.3817,-3.3817,-3.3817,-3.3817,-3.3817,-3.3817,-3.3817,-3.3817,-3.3817,-3.3817,-3.3817,-3.3817,-3.3817,-3.3798,-3.3798,-3.3431,-3.3211,-3.3211,-3.2808,-3.2386,-3.2001,-3.1579,-3.1157,-3.0754,-2.9947,-2.9562,-2.958,-3.0002,-3.0424,-3.0809,-3.1194,-3.1377,-3.1377,-3.1377,-3.1377,-3.1506,-3.2166,-3.2422,-3.2485,-3.3165,-3.3418,-3.3418,-3.3418,-3.3418,-3.3418,-3.3418,-3.3418,-3.3418,-3.3418,-3.3418,-3.3418,-3.3418,-3.3418,-3.3418,-3.3418,-3.3418,-3.3418,-3.3418,-3.3418,-3.3418,-3.3418,-3.3418,-3.3555,-3.3984,-3.4062,-3.3926,-3.3496,-3.3789,-3.3769,-3.293,-3.3164,-3.3262,-3.2851,-3.2422,-3.1836,-3.0996,-3.1269,-3.1348,-3.0937,-3.209,-3.2793,-3.2793,-3.3184,-3.3242,-3.2832,-3.3203,-3.3418,-3.3437,-3.3418,-3.3418,-3.3437,-3.3867,-3.4062,-3.4101,-3.498,-3.5787,-3.6499,-3.6519,-3.6722,-3.7079,-3.6654,-3.6722,-3.7079,-3.6654,-3.6722,-3.7079,-3.7079,-3.6856,-3.6519,-3.3596,-3.3633,-3.3743,-3.4147,-3.422,-3.4312,-3.4605,-3.4642,-3.4642,-3.4642,-3.4642,-3.4642,-3.4642,-3.4147,-3.3817,-3.3817,-3.3817,-3.3817,-3.3817,-3.3817,-3.3817,-3.3817,-3.3688,-3.3505,-3.323,-3.3101,-3.2826,-3.2404,-3.1708,-3.1176,-3.0791,-3.0516,-3.0552,-3.0809,-3.0937,-3.1066,-3.1194,-3.1322,-3.1377,-3.1377,-3.1377,-3.1525,-3.1782,-3.223,-3.2549,-3.2804,-3.3228,-3.3418,-3.3418,-3.3418,-3.3418,-3.3418,-3.3418,-3.3418,-3.3418,-3.3418,-3.3418,-3.3418,-3.3418,-3.3418,-3.3418,-3.3418,-3.3418,-3.3418,-3.3418,-3.3418,-3.3418,-3.3418,-3.3652,-3.3906,-3.4043,-3.4297,-3.4453,-3.4316,-3.4414,-3.4414,-3.4141,-3.3965,-3.3809,-3.3691,-3.2773,-3.2168,-3.2187,-3.1523,-3.1406,-3.2129,-3.2305,-3.2363,-3.2363,-3.332,-3.3535,-3.2812,-3.3496,-3.373,-3.3418,-3.3418,-3.3574,-3.3867,-3.4004,-3.4394,-3.498,-3.5273,-3.5807,-3.6519,-3.6809,-3.7011,-3.7079,-3.7213,-3.7213,-3.7079,-3.6944,-3.7011,-3.7079,-3.7079,-3.6876,-3.6606,-3.4275,-3.4275,-3.4348,-3.4587,-3.4642,-3.4733,-3.499,-3.5027,-3.5027,-3.5027,-3.5027,-3.5027,-3.5027,-3.4568,-3.4202,-3.4055,-3.4037,-3.3982,-3.3817,-3.3817,-3.3817,-3.3817,-3.3817,-3.3688,-3.345,-3.345,-3.3248,-3.2826,-3.2166,-3.1708,-3.1469,-3.1469,-3.1524,-3.1616,-3.1616,-3.1524,-3.1377,-3.1377,-3.1377,-3.146,-3.1755,-3.1958,-3.2235,-3.2819,-3.3103,-3.3225,-3.3544,-3.3555,-3.3418,-3.3418,-3.3418,-3.3418,-3.3418,-3.3418,-3.3418,-3.3418,-3.3418,-3.3418,-3.3418,-3.3418,-3.3418,-3.3418,-3.3418,-3.3418,-3.3418,-3.3418,-3.3418,-3.3418,-3.3769,-3.4082,-3.4082,-3.4297,-3.4473,-3.4473,-3.4316,-3.4219,-3.4219,-3.4004,-3.3711,-3.3398,-3.2793,-3.2324,-3.2109,-3.1934,-3.1973,-3.2285,-3.2812,-3.291,-3.2422,-3.3301,-3.3516,-3.2812,-3.3457,-3.3691,-3.3418,-3.3574,-3.3809,-3.4082,-3.4414,-3.4941,-3.5625,-3.5625,-3.6032,-3.6722,-3.7011,-3.728,-3.7502,-3.7549,-3.7482,-3.728,-3.7011,-3.6856,-3.6876,-3.6742,-3.6539,-3.6336,-3.5027,-3.5027,-3.5045,-3.5064,-3.5082,-3.5082,-3.51,-3.5119,-3.5119,-3.5119,-3.5119,-3.5119,-3.5119,-3.5119,-3.4935,-3.4532,-3.4458,-3.4275,-3.3872,-3.3853,-3.3835,-3.3817,-3.3817,-3.3817,-3.3817,-3.3817,-3.3615,-3.323,-3.2826,-3.2625,-3.2588,-3.2588,-3.2404,-3.2056,-3.2056,-3.1836,-3.1469,-3.1515,-3.1534,-3.157,-3.2348,-3.2712,-3.2815,-3.383,-3.4016,-3.3733,-3.4057,-3.3848,-3.3516,-3.3516,-3.3516,-3.3496,-3.3476,-3.3476,-3.3457,-3.3437,-3.3418,-3.3418,-3.3418,-3.3418,-3.3418,-3.3418,-3.3418,-3.3418,-3.3418,-3.3418,-3.3418,-3.3418,-3.3769,-3.4082,-3.4082,-3.4082,-3.4082,-3.4082,-3.3711,-3.3418,-3.3379,-3.3398,-3.3125,-3.2305,-3.2578,-3.2383,-3.123,-3.248,-3.291,-3.1816,-3.3516,-3.4101,-3.2949,-3.3262,-3.3281,-3.2851,-3.3242,-3.3457,-3.3418,-3.3848,-3.4101,-3.418,-3.5039,-3.5644,-3.6016,-3.6016,-3.6423,-3.7079,-3.7146,-3.7569,-3.8191,-3.7837,-3.7616,-3.7482,-3.6789,-3.6519,-3.6451,-3.6152,-3.6016,-3.6016,-3.5027,-3.5027,-3.5119,-3.543,-3.5485,-3.5577,-3.5889,-3.5925,-3.5925,-3.5925,-3.5925,-3.5925,-3.5925,-3.5925,-3.576,-3.5357,-3.5064,-3.4697,-3.4293,-3.4257,-3.4128,-3.3817,-3.3817,-3.3817,-3.3817,-3.3817,-3.3615,-3.323,-3.312,-3.2918,-3.2588,-3.2588,-3.2551,-3.2459,-3.2459,-3.2404,-3.2313,-3.2644,-3.2776,-3.2794,-3.3284,-3.3586,-3.3849,-3.4077,-3.4321,-3.442,-3.4551,-3.4492,-3.4394,-3.4394,-3.4394,-3.4336,-3.4023,-3.3926,-3.3848,-3.3516,-3.3418,-3.3418,-3.3418,-3.3418,-3.3418,-3.3418,-3.3418,-3.3418,-3.3418,-3.3418,-3.3418,-3.3418,-3.3769,-3.4082,-3.4082,-3.4082,-3.4082,-3.4082,-3.3711,-3.3301,-3.2988,-3.3223,-3.3223,-3.2715,-3.3008,-3.3281,-3.332,-3.3086,-3.3223,-3.3887,-3.3809,-3.373,-3.3769,-3.3867,-3.3711,-3.3281,-3.3691,-3.375,-3.3418,-3.3848,-3.4414,-3.5098,-3.5625,-3.5918,-3.6016,-3.6268,-3.6674,-3.7079,-3.7348,-3.777,-3.8191,-3.8104,-3.7703,-3.7213,-3.7011,-3.6606,-3.6084,-3.6016,-3.6016,-3.6016,-3.5577,-3.5577,-3.5632,-3.5852,-3.5889,-3.5962,-3.6182,-3.6201,-3.6201,-3.6201,-3.6201,-3.6201,-3.6201,-3.6201,-3.6127,-3.5907,-3.5522,-3.5119,-3.4715,-3.4697,-3.4513,-3.4092,-3.4275,-3.4202,-3.3817,-3.3982,-3.389,-3.3486,-3.3486,-3.3376,-3.3156,-3.3156,-3.3046,-3.2881,-3.2881,-3.2771,-3.2606,-3.3007,-3.3207,-3.3292,-3.3946,-3.4337,-3.4555,-3.4901,-3.5062,-3.5019,-3.5019,-3.4883,-3.4707,-3.4707,-3.4707,-3.4668,-3.4434,-3.4355,-3.4316,-3.4082,-3.373,-3.3418,-3.3418,-3.3418,-3.3418,-3.3418,-3.3418,-3.3418,-3.3418,-3.3418,-3.3418,-3.3418,-3.3769,-3.4004,-3.3809,-3.3945,-3.4004,-3.3809,-3.3574,-3.334,-3.3105,-3.3281,-3.3262,-3.2851,-3.3164,-3.3437,-3.3476,-3.3418,-3.3672,-3.4355,-3.416,-3.4101,-3.4336,-3.418,-3.3867,-3.3437,-3.3652,-3.375,-3.3711,-3.4355,-3.5019,-3.5684,-3.5918,-3.6016,-3.6016,-3.6336,-3.6722,-3.7146,-3.7415,-3.7837,-3.8191,-3.8191,-3.7837,-3.728,-3.7146,-3.6742,-3.62,-3.6084,-3.6016,-3.6055,-3.5829,-3.5829,-3.5903,-3.6126,-3.6201,-3.6201,-3.6201,-3.6201,-3.6201,-3.6201,-3.6201,-3.6201,-3.6201,-3.6201,-3.6201,-3.6201,-3.5907,-3.554,-3.5137,-3.5119,-3.4935,-3.4513,-3.4844,-3.4715,-3.4018,-3.4257,-3.4238,-3.3908,-3.3835,-3.3817,-3.3817,-3.3817,-3.3633,-3.3321,-3.3321,-3.312,-3.2771,-3.326,-3.346,-3.3546,-3.4643,-3.5066,-3.5152,-3.5743,-3.5801,-3.5488,-3.5488,-3.5234,-3.4902,-3.4902,-3.4902,-3.4883,-3.4824,-3.4805,-3.4785,-3.4726,-3.418,-3.3594,-3.3535,-3.3476,-3.3418,-3.3418,-3.3418,-3.3418,-3.3418,-3.3418,-3.3418,-3.3418,-3.3711,-3.3867,-3.3496,-3.373,-3.3848,-3.3476,-3.3476,-3.3476,-3.334,0.0,-3.334,-3.2851,-3.3223,-3.3379,-3.3027,-3.3652,-3.4101,-3.416,-3.4434,-3.4609,-3.4609,-3.4336,-3.3965,-3.3535,-3.3516,-3.3769,-3.4258,-3.5019,-3.5605,-3.6084,-3.6084,-3.6084,-3.6084,-3.6451,-3.6789,-3.7146,-3.7415,-3.7837,-3.8191,-3.8191,-3.7904,-3.7482,-3.7294,-3.6909,-3.6502,-3.624,-3.6211,-3.6269,-3.3902,-3.4145,-3.4597,-3.5978,-3.6201,-3.6201,-3.6201,-3.6201,-3.6201,-3.6201,-3.6201,-3.6201,-3.6201,-3.6201,-3.6201,-3.6201,-3.6146,-3.5944,-3.5559,-3.5522,-3.5357,-3.4954,-3.499,-3.4972,-3.4844,-3.455,-3.4367,-3.4312,-3.3982,-3.3817,-3.3817,-3.3817,-3.378,-3.3725,-3.3725,-3.3688,-3.3702,-3.439,-3.4664,-3.4732,-3.5491,-3.585,-3.585,-3.5996,-3.5976,-3.5918,-3.5918,-3.5879,-3.582,-3.582,-3.582,-3.5742,-3.5391,-3.5293,-3.5215,-3.4824,-3.4609,-3.4414,-3.4062,-3.3691,-3.3418,-3.3418,-3.3418,-3.3418,-3.3418,-3.3418,-3.3418,-3.3418,-3.3476,-3.3496,-3.3437,-3.3476,-3.3496,-3.3437,-3.373,-3.3711,-3.2988,0.0,-3.3672,-3.2891,-3.3496,-3.3945,-3.3887,-3.4004,-3.4219,-3.457,-3.4336,-3.416,-3.416,-3.4453,-3.4414,-3.3984,-3.3965,-3.4355,-3.5176,-3.5332,-3.572,-3.6451,-3.6451,-3.6451,-3.6451,-3.6809,-3.7011,-3.7146,-3.7415,-3.7837,-3.8191,-3.8191,-3.777,-3.7186,-3.7481,-3.7231,-3.6671,-3.6973,-3.7109,-3.7109,-3.2293,-3.2446,-3.269,-3.3449,-3.4296,-3.4914,-3.4914,-3.568,-3.6201,-3.6201,-3.6201,-3.6201,-3.6201,-3.6201,-3.6201,-3.6201,-3.6201,-3.6127,-3.5944,-3.5925,-3.576,-3.5357,-3.5559,-3.5559,-3.5357,-3.4954,-3.4733,-3.4733,-3.433,-3.4128,-3.4128,-3.3908,-3.3817,-3.3817,-3.4024,-3.4094,-3.4163,-3.4921,-3.5196,-3.5264,-3.5811,-3.6016,-3.6016,-3.6016,-3.6016,-3.6016,-3.6016,-3.6016,-3.6016,-3.6016,-3.6016,-3.5996,-3.5801,-3.5723,-3.5684,-3.5469,-3.5078,-3.4668,-3.4453,-3.4258,-3.4062,-3.3828,-3.3769,-3.3711,-3.3476,-3.3418,-3.3418,-3.3418,-3.3418,-3.3418,-3.3418,-3.3418,-3.3418,-3.3418,-3.3789,-3.3848,-3.3223,-3.3672,-3.3848,-3.3203,-3.3476,-3.373,-3.373,-3.373,-3.3906,-3.4336,-3.3965,-3.3828,-3.4062,-3.4258,-3.4277,-3.4082,-3.4531,-3.498,-3.5391,-3.5605,-3.5955,-3.6519,-3.6519,-3.6586,-3.6876,-3.7213,-3.7348,-3.7415,-3.777,-3.8037,-3.8212,-3.8238,-3.7915,-3.7481,-3.7648,-3.748,-3.7031,-3.7226,-3.7305,-3.7324,-3.0685,-3.0762,-3.0839,-3.1223,-3.2369,-3.3222,-3.3222,-3.4296,-3.5046,-3.5046,-3.5363,-3.568,-3.568,-3.5978,-3.6201,-3.6201,-3.6201,-3.6201,-3.6201,-3.6201,-3.6072,-3.576,-3.6054,-3.6072,-3.576,-3.5375,-3.5174,-3.5174,-3.4752,-3.455,-3.455,-3.4309,-3.4231,-3.4231,-3.465,-3.4789,-3.4859,-3.5482,-3.5758,-3.5827,-3.6171,-3.6309,-3.6309,-3.6211,-3.6172,-3.6152,-3.6055,-3.6016,-3.6016,-3.6016,-3.6016,-3.6016,-3.6016,-3.6016,-3.6016,-3.6016,-3.5547,-3.498,-3.4883,-3.4785,-3.4629,-3.4297,-3.4219,-3.4101,-3.3672,-3.3574,-3.3535,-3.3437,-3.3418,-3.3418,-3.3418,-3.3418,-3.3418,-3.3418,0.0,-3.3926,-3.3476,-3.3789,-3.3906,-3.3476,-3.3418,-3.3418,-3.3418,-3.3418,-3.3555,-3.3887,-3.3711,-3.3711,-3.4062,-3.4258,-3.4434,-3.4531,-3.5098,-3.543,-3.5527,-3.5927,-3.6268,-3.6654,-3.6722,-3.6984,-3.7375,-3.7644,-3.784,-3.7942,-3.8233,-3.8367,-3.8388,-3.8466,-3.8178,-3.7717,-3.7897,-3.7724,-3.7461,-3.7559,-3.7598,-3.7637,-2.8778,-2.909,-2.9541,-3.1069,-3.1376,-3.1453,-3.1453,-3.1606,-3.1683,-3.1683,-3.2994,-3.3995,-3.3995,-3.5288,-3.6201,-3.6201,-3.6201,-3.6201,-3.6201,-3.6201,-3.6201,-3.6164,-3.6182,-3.6201,-3.6164,-3.5779,-3.5577,-3.5577,-3.5174,-3.499,-3.4972,-3.5293,-3.5489,-3.5489,-3.5916,-3.6058,-3.6058,-3.6483,-3.6624,-3.6624,-3.7066,-3.7207,-3.7168,-3.6777,-3.6621,-3.6562,-3.6172,-3.6016,-3.6016,-3.6016,-3.6016,-3.6016,-3.6016,-3.6016,-3.6016,-3.6016,-3.5976,-3.584,-3.5449,-3.5019,-3.4687,-3.4668,-3.4648,-3.4551,-3.4121,-3.4023,-3.3906,-3.3496,-3.3418,-3.3418,-3.3418,-3.3418,-3.3418,-3.3418,0.0,0.0,-3.3476,-3.3789,-3.3906,-3.3476,-3.3418,-3.3418,-3.3418,-3.3418,-3.3437,-3.3476,-3.3809,-3.4043,-3.4082,-3.4844,-3.5469,-3.5859,-3.5566,-3.5586,-3.5976,-3.6316,-3.6654,-3.7079,-3.7348,-3.7773,-3.818,-3.8248,-3.8473,-3.8881,-3.895,-3.895,-3.895,-3.8922,-3.8505,-3.7847,-3.8303,-3.8177,-3.793,-3.834,-3.8476,-3.8496,-2.724,-2.7319,-2.7541,-2.8154,-2.9075,-2.9851,-2.9851,-3.0685,-3.13,-3.13,-3.1835,-3.2217,-3.2217,-3.2826,-3.36,-3.4597,-3.4672,-3.4672,-3.4672,-3.5662,-3.6201,-3.6201,-3.6201,-3.6201,-3.6201,-3.6054,-3.5981,-3.5981,-3.5595,-3.5466,-3.5756,-3.5622,-3.5706,-3.601,-3.6366,-3.6508,-3.6508,-3.6932,-3.7074,-3.7074,-3.7234,-3.7305,-3.7285,-3.7129,-3.7051,-3.7031,-3.6875,-3.6816,-3.6777,-3.6523,-3.6426,-3.6367,-3.6094,-3.6016,-3.6016,-3.6016,-3.6016,-3.5996,-3.582,-3.5644,-3.5449,-3.5195,-3.5137,-3.5019,-3.457,-3.4453,-3.4336,-3.3906,-3.3828,-3.375,-3.3476,-3.3418,-3.3418,-3.3418,0.0,-3.3926,-3.3476,-3.3789,-3.3906,-3.3476,-3.3418,-3.3418,-3.3418,-3.3672,-3.3828,-3.3828,-3.4219,-3.4453,-3.4453,-3.5059,-3.5586,-3.6016,-3.5859,-3.5859,-3.6016,-3.6152,-3.6471,-3.7079,-3.7496,-3.8058,-3.865,-3.8938,-3.9165,-3.933,-3.933,-3.9191,-3.9004,-3.9059,-3.8758,-3.8232,-3.8452,-3.8485,-3.8359,-3.8516,-3.8574,-3.8574,-2.6386,-2.6386,-2.6386,-2.6386,-2.7319,-2.809,-2.809,-2.9075,-2.9774,-2.9774,-3.0222,-3.0531,-3.0531,-3.0993,-3.1759,-3.2918,-3.2994,-3.2994,-3.2994,-3.4521,-3.5662,-3.6201,-3.6201,-3.6201,-3.6201,-3.6201,-3.6201,-3.6201,-3.6091,-3.6109,-3.6402,-3.6393,-3.6478,-3.6766,-3.7124,-3.7339,-3.7339,-3.7624,-3.7695,-3.7695,-3.7695,-3.7695,-3.7676,-3.7539,-3.75,-3.748,-3.7344,-3.7305,-3.7246,-3.6973,-3.6875,-3.6816,-3.6523,-3.6426,-3.6387,-3.6269,-3.623,-3.6191,-3.6055,-3.6016,-3.5957,-3.5664,-3.5586,-3.5469,-3.5019,-3.4922,-3.4785,-3.4355,-3.4277,-3.418,-3.3867,-3.3711,-3.3633,-3.3633,-3.3769,-3.3769,-3.3457,-3.3789,-3.3965,-3.3672,-3.375,-3.3828,-3.3828,-3.4101,-3.4277,-3.4277,-3.4668,-3.498,-3.5098,-3.541,-3.5723,-3.6016,-3.6016,-3.6016,-3.6016,-3.6084,-3.655,-3.73,-3.7738,-3.8384,-3.922,-3.953,-3.9827,-3.9951,-3.9832,-3.9532,-3.9201,-3.9151,-3.8863,-3.8524,-3.8602,-3.8574,-3.8574,-3.8574,-3.8574,-3.8574,-2.6386,-2.6386,-2.6386,-2.6386,-2.6386,-2.6386,-2.6386,-2.6386,-2.6386,-2.6386,-2.7855,-2.8856,-2.8856,-3.0315,-3.13,-3.13,-3.13,-3.13,-3.13,-3.2842,-3.4521,-3.6126,-3.6201,-3.6201,-3.6201,-3.6201,-3.6201,-3.6201,-3.659,-3.6812,-3.6812,-3.7642,-3.8009,-3.8009,-3.8428,-3.8574,-3.8574,-3.8574,-3.8574,-3.8574,-3.8574,-3.8574,-3.8535,-3.8086,-3.793,-3.7871,-3.7461,-3.7305,-3.7305,-3.7305,-3.7305,-3.7305,-3.7305,-3.7305,-3.7226,-3.6797,-3.668,-3.6582,-3.6152,-3.6035,-3.6016,-3.6016,-3.6016,-3.5918,-3.5488,-3.5391,-3.5273,-3.4805,-3.4707,-3.4707,-3.4707,-3.4355,-3.4082,-3.4082,-3.3711,-3.3437,-3.3437,-3.3809,-3.4082,-3.4082,-3.4453,-3.4707,-3.4707,-3.4707,-3.4707,-3.4707,-3.5137,-3.5586,-3.5996,-3.6016,-3.6016,-3.6016,-3.6016,-3.6016,-3.6016,-3.6336,-3.6961,-3.7811,-3.8173,-3.8986,-4.022,-4.0241,-4.0468,-4.0882,-4.0453,-4.0094,-3.9642,-3.9321,-3.8958,-3.8574,-3.8574,-3.8574,-3.8574,-3.8574,-3.8574,-3.8574,-2.6386,-2.6386,-2.6386,-2.6386,-2.6386,-2.6386,-2.6386,-2.6386,-2.6386,-2.6386,-2.686,-2.7162,-2.7162,-2.7541,-2.831,-2.9541,-2.9619,-3.0083,-3.1223,-3.0685,-3.1606,-3.4371,-3.5605,-3.6201,-3.6201,-3.6516,-3.659,-3.659,-3.7034,-3.7347,-3.7642,-3.7862,-3.8155,-3.8448,-3.8574,-3.8574,-3.8574,-3.8574,-3.8574,-3.8574,-3.8574,-3.8574,-3.8555,-3.8437,-3.8379,-3.8359,-3.8242,-3.8184,-3.8144,-3.7832,-3.7734,-3.7676,-3.7383,-3.7305,-3.7266,-3.7148,-3.7109,-3.709,-3.6953,-3.6699,-3.6406,-3.6094,-3.6016,-3.5996,-3.5859,-3.584,-3.5703,-3.5273,-3.5176,-3.5078,-3.4766,-3.459,-3.4512,-3.4512,-3.4394,-3.4316,-3.4316,-3.4434,-3.4512,-3.4512,-3.4629,-3.4707,-3.4707,-3.5,-3.5176,-3.5176,-3.5586,-3.5879,-3.6016,-3.6016,-3.6016,-3.6016,-3.6309,-3.6328,-3.6016,-3.6446,-3.6868,-3.7351,-3.8107,-3.8899,-3.9798,-3.9821,-4.0095,-4.0453,-4.0074,-3.9662,-3.9321,-3.9248,-3.8958,-3.8574,-3.8574,-3.8574,-3.8574,-3.8574,-3.8574,-3.8574,-2.6386,-2.6386,-2.6386,-2.6386,-2.6386,-2.6386,-2.6386,-2.6386,-2.6386,-2.6386,-2.6386,-2.6386,-2.6386,-2.6386,-2.6781,-2.7855,-2.7933,-2.8622,-3.0222,-2.9464,-3.0392,-3.3676,-3.4747,-3.5512,-3.6201,-3.659,-3.6812,-3.6812,-3.7329,-3.7789,-3.8009,-3.8155,-3.8375,-3.8574,-3.8574,-3.8574,-3.8574,-3.8574,-3.8574,-3.8574,-3.8574,-3.8574,-3.8574,-3.8574,-3.8574,-3.8574,-3.8574,-3.8574,-3.8535,-3.8281,-3.8184,-3.8144,-3.7891,-3.7793,-3.7773,-3.7598,-3.7539,-3.75,-3.7344,-3.7109,-3.6855,-3.6601,-3.6269,-3.6016,-3.6016,-3.6016,-3.5937,-3.5703,-3.5644,-3.5566,-3.5273,-3.5078,-3.498,-3.498,-3.4824,-3.4707,-3.4707,-3.4863,-3.498,-3.498,-3.5117,-3.5215,-3.5215,-3.5469,-3.5644,-3.5644,-3.5879,-3.6016,-3.6016,-3.6016,-3.6094,-3.6269,-3.6543,-3.6621,-3.6523,-3.6953,-3.73,-3.749,-3.8184,-3.8886,-3.9617,-3.9665,-3.9858,-4.0022,-3.9662,-3.9373,-3.9176,-3.903,-3.8793,-3.8574,-3.8574,-3.8574,-3.8574,-3.8574,-3.8574,-3.8574,-2.6386,-2.6386,-2.6386,-2.6386,-2.6386,-2.6386,-2.6386,-2.6386,-2.6386,-2.6386,-2.6386,-2.6386,-2.6386,-2.6386,-2.6386,-2.6386,-2.6386,-2.7083,-2.8544,-2.87,-3.016,-3.3449,-3.3449,-3.4296,-3.6201,-3.6664,-3.6886,-3.6886,-3.7715,-3.8082,-3.8082,-3.8428,-3.8574,-3.8574,-3.8574,-3.8574,-3.8574,-3.8574,-3.8574,-3.8574,-3.8574,-3.8574,-3.8574,-3.8574,-3.8574,-3.8574,-3.8574,-3.8574,-3.8574,-3.8574,-3.8574,-3.8574,-3.8574,-3.8574,-3.8496,-3.8105,-3.7988,-3.7891,-3.7519,-3.7383,-3.7344,-3.7344,-3.6738,-3.6133,-3.6094,-3.6055,-3.6016,-3.6016,-3.6016,-3.6016,-3.6016,-3.5703,-3.5449,-3.5449,-3.5098,-3.4824,-3.4824,-3.5176,-3.5449,-3.5449,-3.5781,-3.6016,-3.6016,-3.6016,-3.6016,-3.6016,-3.6016,-3.6035,-3.6074,-3.6074,-3.6269,-3.6719,-3.6758,-3.6953,-3.7285,-3.7754,-3.7916,-3.7876,-3.8292,-3.8923,-3.9642,-3.9642,-3.9642,-3.9642,-3.9301,-3.9176,-3.9103,-3.872,-3.8574,-3.8574,-3.8574,-3.8574,-3.8574,-3.8574,-3.8574,-3.8574,-2.6386,-2.6386,-2.6386,-2.6386,-2.6386,-2.6386,-2.6386,-2.6386,-2.6386,-2.6386,-2.6386,-2.6386,-2.6386,-2.6386,-2.6386,-2.6386,-2.6386,-2.6544,-2.6925,-2.6925,-2.8388,-3.1683,-3.0608,-3.2065,-3.659,-3.7034,-3.7421,-3.7715,-3.8209,-3.8428,-3.8428,-3.8574,-3.8574,-3.8574,-3.8574,-3.8574,-3.8574,-3.8574,-3.8574,-3.8574,-3.8574,-3.8574,-3.8574,-3.8574,-3.8574,-3.8574,-3.8574,-3.8574,-3.8574,-3.8574,-3.8574,-3.8574,-3.8574,-3.8574,-3.8555,-3.8457,-3.8437,-3.8418,-3.832,-3.8047,-3.7793,-3.7793,-3.7402,-3.6934,-3.6601,-3.6269,-3.6016,-3.6016,-3.6016,-3.6016,-3.6016,-3.5937,-3.5879,-3.5879,-3.5801,-3.5742,-3.5742,-3.582,-3.5879,-3.5879,-3.5957,-3.6016,-3.6016,-3.6016,-3.6016,-3.6016,-3.6016,-3.6172,-3.6504,-3.6523,-3.6719,-3.7148,-3.748,-3.7539,-3.7305,-3.8047,-3.8295,-3.7936,-3.8367,-3.8859,-3.9321,-3.9011,-3.9011,-3.9321,-3.8865,-3.872,-3.872,-3.8647,-3.8574,-3.8574,-3.8574,-3.8574,-3.8574,-3.8574,-3.8574,-3.8574,-2.6386,-2.6386,-2.6386,-2.6386,-2.6386,-2.6386,-2.6386,-2.6386,-2.6386,-2.6386,-2.6386,-2.6386,-2.6386,-2.6386,-2.6386,-2.6386,-2.652,-2.6533,-2.64,-2.6386,-2.7541,-3.0083,-3.03,-3.2065,-3.5792,-3.7107,-3.7789,-3.8009,-3.8428,-3.8574,-3.8574,-3.8574,-3.8574,-3.8574,-3.8574,-3.8574,-3.8574,-3.8574,-3.8574,-3.8574,-3.8574,-3.8574,-3.8574,-3.8574,-3.8574,-3.8574,-3.8574,-3.8574,-3.8574,-3.8574,-3.8574,-3.8574,-3.8574,-3.8574,-3.8574,-3.8574,-3.8574,-3.8574,-3.8574,-3.8418,-3.8223,-3.8223,-3.791,-3.748,-3.707,-3.6797,-3.6621,-3.6621,-3.6465,-3.6328,-3.6328,-3.6152,-3.6016,-3.6016,-3.6016,-3.6016,-3.6016,-3.6016,-3.6016,-3.6016,-3.6016,-3.6094,-3.6309,-3.6328,-3.6406,-3.6621,-3.6621,-3.6738,-3.6953,-3.6973,-3.7168,-3.7578,-3.7812,-3.791,-3.791,-3.834,-3.8457,-3.8242,-3.8476,-3.872,-3.8885,-3.872,-3.872,-3.8885,-3.872,-3.8574,-3.8574,-3.8574,-3.8574,-3.8574,-3.8574,-3.8574,-3.8574,-3.8574,-3.8574,-3.8574,-2.6386,-2.6386,-2.6386,-2.6386,-2.6386,-2.6386,-2.6386,-2.6386,-2.6386,-2.6386,-2.6386,-2.6413,-2.6453,-2.6507,-2.6533,-2.6533,-2.676,-2.68,-2.664,-2.6626,-2.7471,-2.9174,-3.0856,-3.2856,-3.5149,-3.6924,-3.7923,-3.8082,-3.8428,-3.8574,-3.8574,-3.8574,-3.8574,-3.8574,-3.8574,-3.8574,-3.8574,-3.8574,-3.8574,-3.8574,-3.8574,-3.8574,-3.8574,-3.8574,-3.8574,-3.8574,-3.8574,-3.8574,-3.8574,-3.8574,-3.8574,-3.8574,-3.8574,-3.8574,-3.8574,-3.8574,-3.8574,-3.8574,-3.8574,-3.8574,-3.8574,-3.8574,-3.8301,-3.7949,-3.7598,-3.7402,-3.7305,-3.7305,-3.7012,-3.6777,-3.6777,-3.6484,-3.623,-3.623,-3.623,-3.623,-3.623,-3.623,-3.623,-3.623,-3.623,-3.6387,-3.6738,-3.6777,-3.6914,-3.7266,-3.7305,-3.7324,-3.7402,-3.7402,-3.7598,-3.8027,-3.8027,-3.8203,-3.8574,-3.8574,-3.8574,-3.8574,-3.8574,-3.8574,-3.8574,-3.8574,-3.8574,-3.8574,-3.8574,-3.8574,-3.8574,-3.8574,-3.8574,-3.8574,-3.8574,-3.8574,-3.8574,-3.8574,-3.8574,-3.8574,-2.6386,-2.6386,-2.6386,-2.6386,-2.6386,-2.6386,-2.6386,-2.6386,-2.6386,-2.6386,-2.6386,-2.648,-2.6734,-2.6987,-2.7148,-2.7148,-2.7188,-2.7351,-2.7649,-2.7717,-2.8593,-3.073,-3.1112,-3.2914,-3.6349,-3.6809,-3.7464,-3.8501,-3.8574,-3.8574,-3.8574,-3.8574,-3.8574,-3.8574,-3.8574,-3.8574,-3.8574,-3.8574,-3.8574,-3.8574,-3.8574,-3.8574,-3.8574,-3.8574,-3.8574,-3.8574,-3.8574,-3.8574,-3.8574,-3.8574,-3.8574,-3.8574,-3.8574,-3.8574,-3.8574,-3.8574,-3.8574,-3.8574,-3.8574,-3.8574,-3.8574,-3.8574,-3.8535,-3.8476,-3.8418,-3.7832,-3.7305,-3.7305,-3.7246,-3.7207,-3.7207,-3.7168,-3.7129,-3.7129,-3.7129,-3.7129,-3.7129,-3.7129,-3.7129,-3.7129,-3.7129,-3.7148,-3.7207,-3.7207,-3.7226,-3.7285,-3.7305,-3.7461,-3.7812,-3.7832,-3.8047,-3.8476,-3.8496,-3.8516,-3.8574,-3.8574,-3.8574,-3.8574,-3.8574,-3.8574,-3.8574,-3.8574,-3.8574,-3.8574,-3.8574,-3.8574,-3.8574,-3.8574,-3.8574,-3.8574,-3.8574,-3.8574,-3.8574,-3.8574,-3.8574,-3.8574,-2.6386,-2.6386,-2.6386,-2.6386,-2.6386,-2.6386,-2.6386,-2.6386,-2.6453,-2.6613,-2.6493,-2.656,-2.7014,-2.7335,-2.7442,-2.7281,-2.7661,-2.7935,-2.7934,-2.8165,-2.872,-2.9676,-3.1713,-3.3657,-3.5236,-3.7433,-3.8746,-3.9316,-3.9316,-3.918,-3.8926,-3.918,-3.918,-3.8945,-3.9199,-3.918,-3.8926,-3.8926,-3.8789,-3.8574,-3.8574,-3.8574,-3.8574,-3.8574,-3.8574,-3.8574,-3.8574,-3.8574,-3.8574,-3.8574,-3.8574,-3.8574,-3.8574,-3.8574,-3.8574,-3.8574,-3.8574,-3.8574,-3.8574,-3.8574,-3.8574,-3.8574,-3.8574,-3.8574,-3.8574,-3.8281,-3.8008,-3.8008,-3.7812,-3.7656,-3.7656,-3.7461,-3.7305,-3.7305,-3.7305,-3.7305,-3.7305,-3.7305,-3.7305,-3.7305,-3.7305,-3.7383,-3.7617,-3.7656,-3.7754,-3.7988,-3.8008,-3.8086,-3.8281,-3.8281,-3.8379,-3.8574,-3.8574,-3.8574,-3.8574,-3.8574,-3.8574,-3.8574,-3.8574,-3.8574,-3.8574,-3.8574,-3.8574,-3.8574,-3.8574,-3.8574,-3.8574,-3.8574,-3.8574,-3.8574,-3.8574,-3.8574,-3.8574,-3.8574,-3.8574,-3.8574]},{"header":{"parameterUnit":"m.s-1","parameterCategory":1,"la1":30.6,"la2":28.766,"lo1":-90.7593,"lo2":-88.6598,"dy":0.0162,"dx":0.0183,"nx":116,"ny":114,"refTime":"2024-06-11T18:00:00:Z","depth":0,"parameterNumber":3,"parameterNumberName":"V-component_of_WINDS"},"data":[0.0,0.0,0.0,0.0,0.0,0.0,0.0,0.0,0.0,0.0,0.0,0.0,0.0,0.0,0.0,0.0,0.0,0.0,0.0,0.0,0.0,0.0,0.0,0.0,0.0,0.0,0.0,0.0,0.0,0.0,0.0,0.0,0.0,0.0,0.0,0.0,0.0,0.0,0.0,0.0,0.0,0.0,0.0,0.0,0.0,0.0,0.0,0.0,0.0,0.0,0.0,0.0,0.0,0.0,0.0,0.0,0.0,0.0,0.0,0.0,0.0,0.0,0.0,0.0,0.0,0.0,0.0,0.0,0.0,0.0,0.0,0.0,0.0,0.0,0.0,0.0,0.0,0.0,0.0,0.0,0.0,0.0,0.0,0.0,0.0,0.0,0.0,0.0,0.0,0.0,0.0,0.0,0.0,0.0,0.0,0.0,0.0,0.0,0.0,0.0,0.0,0.0,0.0,0.0,0.0,0.0,0.0,0.0,0.0,0.0,0.0,0.0,0.0,0.0,0.0,0.0,0.0,0.0,0.0,0.0,0.0,0.0,0.0,0.0,0.0,0.0,0.0,0.0,0.0,0.0,0.0,0.0,0.0,0.0,0.0,0.0,0.0,0.0,0.0,0.0,0.0,0.0,0.0,0.0,0.0,0.0,0.0,0.0,0.0,0.0,0.0,0.0,0.0,0.0,0.0,0.0,0.0,0.0,0.0,0.0,0.0,0.0,0.0,0.0,0.0,0.0,0.0,0.0,0.0,0.0,0.0,0.0,0.0,0.0,0.0,0.0,0.0,0.0,0.0,0.0,0.0,0.0,0.0,0.0,0.0,0.0,0.0,0.0,0.0,0.0,0.0,0.0,0.0,0.0,0.0,0.0,0.0,0.0,0.0,0.0,0.0,0.0,0.0,0.0,0.0,0.0,0.0,0.0,0.0,0.0,0.0,0.0,0.0,0.0,0.0,0.0,0.0,0.0,0.0,0.0,0.0,0.0,0.0,0.0,0.0,0.0,0.0,0.0,0.0,0.0,0.0,0.0,0.0,0.0,0.0,0.0,0.0,0.0,0.0,0.0,0.0,0.0,0.0,0.0,0.0,0.0,0.0,0.0,0.0,0.0,0.0,0.0,0.0,0.0,0.0,0.0,0.0,0.0,0.0,0.0,0.0,0.0,0.0,0.0,0.0,0.0,0.0,0.0,0.0,0.0,0.0,0.0,0.0,0.0,0.0,0.0,0.0,0.0,0.0,0.0,0.0,0.0,0.0,0.0,0.0,0.0,0.0,0.0,0.0,0.0,0.0,0.0,0.0,0.0,0.0,0.0,0.0,0.0,0.0,0.0,0.0,0.0,0.0,0.0,0.0,0.0,0.0,0.0,0.0,0.0,0.0,0.0,0.0,0.0,0.0,0.0,0.0,0.0,0.0,0.0,0.0,0.0,0.0,0.0,0.0,0.0,0.0,0.0,0.0,0.0,0.0,0.0,0.0,0.0,0.0,0.0,0.0,0.0,0.0,0.0,0.0,0.0,0.0,0.0,0.0,0.0,0.0,0.0,0.0,0.0,0.0,0.0,0.0,0.0,0.0,0.0,0.0,0.0,0.0,0.0,0.0,0.0,0.0,0.0,0.0,0.0,0.0,0.0,0.0,0.0,0.0,0.0,0.0,0.0,0.0,0.0,0.0,0.0,0.0,0.0,0.0,0.0,0.0,0.0,0.0,0.0,0.0,0.0,0.0,0.0,0.0,0.0,0.0,0.0,0.0,0.0,0.0,0.0,0.0,0.0,0.0,0.0,0.0,0.0,0.0,0.0,0.0,0.0,0.0,0.0,0.0,0.0,0.0,0.0,0.0,0.0,0.0,0.0,0.0,0.0,0.0,0.0,0.0,0.0,0.0,0.0,0.0,0.0,0.0,0.0,0.0,0.0,0.0,0.0,0.0,0.0,0.0,0.0,0.0,0.0,0.0,0.0,0.0,0.0,0.0,0.0,0.0,0.0,0.0,0.0,0.0,0.0,0.0,0.0,0.0,0.0,0.0,0.0,0.0,0.0,0.0,0.0,0.0,0.0,0.0,0.0,0.0,0.0,0.0,0.0,0.0,0.0,0.0,0.0,0.0,0.0,0.0,0.0,0.0,0.0,0.0,0.0,0.0,0.0,0.0,0.0,0.0,0.0,0.0,0.0,0.0,0.0,0.0,0.0,0.0,0.0,0.0,0.0,0.0,0.0,0.0,0.0,0.0,0.0,0.0,0.0,0.0,0.0,0.0,0.0,0.0,0.0,0.0,0.0,0.0,0.0,0.0,0.0,0.0,0.0,0.0,0.0,0.0,0.0,0.0,0.0,0.0,0.0,0.0,0.0,0.0,0.0,0.0,0.0,0.0,0.0,0.0,0.0,0.0,0.0,0.0,0.0,0.0,0.0,0.0,0.0,0.0,0.0,0.0,0.0,0.0,0.0,0.0,0.0,0.0,0.0,0.0,0.0,0.0,0.0,0.0,0.0,0.0,0.0,0.0,0.0,0.0,0.0,0.0,0.0,0.0,0.0,0.0,0.0,0.0,0.0,0.0,0.0,0.0,0.0,0.0,0.0,0.0,0.0,0.0,0.0,0.0,0.0,0.0,0.0,0.0,0.0,0.0,0.0,0.0,0.0,0.0,0.0,0.0,0.0,0.0,0.0,0.0,0.0,0.0,0.0,0.0,0.0,0.0,0.0,0.0,0.0,0.0,0.0,0.0,0.0,0.0,0.0,0.0,0.0,0.0,0.0,0.0,0.0,0.0,0.0,0.0,0.0,0.0,0.0,0.0,0.0,0.0,0.0,0.0,0.0,0.0,0.0,0.0,0.0,0.0,0.0,0.0,0.0,0.0,0.0,0.0,0.0,0.0,0.0,0.0,0.0,0.0,0.0,0.0,0.0,0.0,0.0,0.0,0.0,0.0,0.0,0.0,0.0,0.0,0.0,0.0,0.0,0.0,0.0,0.0,0.0,0.0,0.0,0.0,0.0,0.0,0.0,0.0,0.0,0.0,0.0,0.0,0.0,0.0,0.0,0.0,0.0,0.0,0.0,0.0,0.0,0.0,0.0,0.0,0.0,0.0,0.0,0.0,0.0,0.0,0.0,0.0,0.0,0.0,0.0,0.0,0.0,0.0,0.0,0.0,0.0,0.0,0.0,0.0,0.0,0.0,0.0,0.0,0.0,0.0,0.0,0.0,0.0,0.0,0.0,0.0,0.0,0.0,0.0,0.0,0.0,0.0,0.0,0.0,0.0,0.0,0.0,0.0,0.0,0.0,0.0,0.0,0.0,0.0,0.0,0.0,0.0,0.0,0.0,0.0,0.0,0.0,0.0,0.0,0.0,0.0,0.0,0.0,0.0,0.0,0.0,0.0,0.0,0.0,0.0,0.0,0.0,0.0,0.0,0.0,0.0,0.0,0.0,0.0,0.0,0.0,0.0,0.0,0.0,0.0,0.0,0.0,0.0,0.0,0.0,0.0,0.0,0.0,0.0,0.0,0.0,0.0,0.0,0.0,0.0,0.0,0.0,0.0,0.0,0.0,0.0,0.0,0.0,0.0,0.0,0.0,0.0,0.0,0.0,0.0,0.0,0.0,0.0,0.0,0.0,0.0,0.0,0.0,0.0,0.0,0.0,0.0,0.0,0.0,0.0,0.0,0.0,0.0,0.0,0.0,0.0,0.0,0.0,0.0,0.0,0.0,0.0,0.0,0.0,0.0,0.0,0.0,0.0,0.0,0.0,0.0,0.0,0.0,0.0,0.0,0.0,0.0,0.0,0.0,0.0,0.0,0.0,0.0,0.0,0.0,0.0,0.0,0.0,0.0,0.0,0.0,0.0,0.0,0.0,0.0,0.0,0.0,0.0,0.0,0.0,0.0,0.0,0.0,0.0,0.0,0.0,0.0,0.0,0.0,0.0,0.0,0.0,0.0,0.0,0.0,0.0,0.0,0.0,0.0,0.0,0.0,0.0,0.0,0.0,0.0,0.0,0.0,0.0,0.0,0.0,0.0,0.0,0.0,0.0,0.0,0.0,0.0,0.0,0.0,0.0,0.0,0.0,0.0,0.0,0.0,0.0,0.0,0.0,0.0,0.0,0.0,0.0,0.0,0.0,0.0,0.0,0.0,0.0,0.0,0.0,0.0,0.0,0.0,0.0,0.0,0.0,0.0,0.0,0.0,0.0,0.0,0.0,0.0,0.0,0.0,0.0,0.0,0.0,0.0,0.0,0.0,0.0,0.0,0.0,0.0,0.0,0.0,0.0,0.0,0.0,0.0,0.0,0.0,0.0,0.0,0.0,0.0,0.0,0.0,0.0,0.0,0.0,0.0,0.0,0.0,0.0,0.0,0.0,0.0,0.0,0.0,0.0,0.0,0.0,0.0,0.0,0.0,0.0,0.0,0.0,0.0,0.0,0.0,0.0,0.0,0.0,0.0,0.0,0.0,0.0,0.0,0.0,0.0,0.0,0.0,0.0,0.0,0.0,0.0,0.0,0.0,0.0,0.0,0.0,0.0,0.0,0.0,0.0,0.0,0.0,0.0,0.0,0.0,0.0,0.0,0.0,0.0,0.0,0.0,0.0,0.0,0.0,0.0,0.0,0.0,0.0,0.0,0.0,0.0,0.0,0.0,0.0,0.0,0.0,0.0,0.0,0.0,0.0,0.0,0.0,0.0,0.0,0.0,0.0,0.0,0.0,0.0,0.0,0.0,0.0,0.0,0.0,0.0,0.0,0.0,0.0,0.0,0.0,0.0,0.0,0.0,0.0,0.0,0.0,0.0,0.0,0.0,0.0,0.0,0.0,0.0,0.0,0.0,0.0,0.0,0.0,0.0,0.0,0.0,0.0,0.0,0.0,0.0,0.0,0.0,0.0,0.0,0.0,0.0,0.0,0.0,0.0,0.0,0.0,0.0,0.0,0.0,0.0,0.0,0.0,0.0,0.0,0.0,0.0,0.0,0.0,0.0,0.0,0.0,0.0,0.0,0.0,0.0,0.0,0.0,0.0,0.0,0.0,0.0,0.0,0.0,0.0,0.0,0.0,0.0,0.0,0.0,0.0,0.0,0.0,0.0,0.0,0.0,0.0,0.0,0.0,0.0,0.0,0.0,0.0,0.0,0.0,0.0,0.0,0.0,0.0,0.0,0.0,0.0,0.0,0.0,0.0,0.0,0.0,0.0,0.0,0.0,0.0,0.0,0.0,0.0,0.0,0.0,0.0,0.0,0.0,0.0,0.0,0.0,0.0,0.0,0.0,0.0,0.0,0.0,0.0,0.0,0.0,0.0,0.0,0.0,0.0,0.0,0.0,0.0,0.0,0.0,0.0,0.0,0.0,0.0,0.0,0.0,0.0,0.0,0.0,0.0,0.0,0.0,0.0,0.0,0.0,0.0,0.0,0.0,0.0,0.0,0.0,0.0,0.0,0.0,0.0,0.0,0.0,0.0,0.0,0.0,0.0,0.0,0.0,0.0,0.0,0.0,0.0,0.0,0.0,0.0,0.0,0.0,0.0,0.0,0.0,0.0,0.0,0.0,0.0,0.0,0.0,0.0,0.0,0.0,0.0,0.0,0.0,0.0,0.0,0.0,0.0,0.0,0.0,0.0,0.0,0.0,0.0,0.0,0.0,0.0,0.0,0.0,0.0,0.0,0.0,0.0,0.0,0.0,0.0,0.0,0.0,0.0,0.0,0.0,0.0,0.0,0.0,0.0,0.0,0.0,0.0,0.0,0.0,0.0,0.0,0.0,0.0,0.0,0.0,0.0,0.0,0.0,0.0,0.0,0.0,0.0,0.0,0.0,0.0,0.0,0.0,0.0,0.0,0.0,0.0,0.0,0.0,0.0,0.0,0.0,0.0,0.0,0.0,0.0,0.0,0.0,0.0,0.0,0.0,0.0,0.0,0.0,0.0,0.0,0.0,0.0,0.0,0.0,0.0,0.0,0.0,0.0,0.0,0.0,0.0,0.0,0.0,0.0,0.0,0.0,0.0,0.0,0.0,0.0,0.0,0.0,0.0,0.0,0.0,0.0,0.0,0.0,0.0,0.0,0.0,0.0,0.0,0.0,0.0,0.0,0.0,0.0,0.0,0.0,0.0,0.0,0.0,4.2871,4.1825,0.0,0.0,0.0,0.0,0.0,0.0,0.0,0.0,0.0,0.0,0.0,0.0,0.0,0.0,0.0,0.0,0.0,0.0,0.0,0.0,0.0,0.0,0.0,4.0311,4.1443,4.2991,4.3167,4.3384,4.3832,0.0,0.0,0.0,0.0,0.0,3.96,3.9192,3.8756,3.827,3.7128,3.6313,3.594,3.59,3.5363,3.4339,0.0,0.0,0.0,0.0,0.0,0.0,0.0,0.0,0.0,0.0,0.0,0.0,0.0,0.0,0.0,0.0,0.0,0.0,0.0,0.0,0.0,0.0,0.0,0.0,0.0,0.0,0.0,0.0,0.0,0.0,0.0,0.0,0.0,0.0,0.0,0.0,0.0,0.0,0.0,0.0,0.0,0.0,0.0,0.0,0.0,0.0,0.0,0.0,0.0,0.0,0.0,0.0,0.0,0.0,0.0,0.0,0.0,0.0,0.0,0.0,0.0,0.0,0.0,0.0,0.0,0.0,0.0,0.0,0.0,0.0,4.45,4.3898,0.0,0.0,0.0,0.0,0.0,0.0,0.0,0.0,0.0,0.0,0.0,0.0,0.0,0.0,0.0,0.0,0.0,0.0,0.0,0.0,0.0,3.7475,3.966,4.0851,4.2125,4.3656,4.3897,4.3945,4.3881,4.3929,0.0,0.0,0.0,4.2498,4.1519,4.0867,4.0415,4.0156,3.86,3.7377,3.6569,3.6625,3.5906,3.4526,3.4392,0.0,0.0,0.0,0.0,0.0,0.0,0.0,0.0,0.0,0.0,0.0,0.0,0.0,0.0,0.0,0.0,0.0,0.0,0.0,0.0,0.0,0.0,0.0,0.0,0.0,0.0,0.0,0.0,0.0,0.0,0.0,0.0,0.0,0.0,0.0,0.0,0.0,0.0,0.0,0.0,0.0,0.0,0.0,0.0,0.0,0.0,0.0,0.0,0.0,0.0,0.0,0.0,0.0,0.0,0.0,0.0,0.0,0.0,0.0,0.0,0.0,0.0,0.0,4.7596,4.7596,4.7596,4.7596,4.7535,4.7424,4.6725,4.6488,4.648,4.4384,0.0,0.0,0.0,0.0,0.0,0.0,0.0,0.0,0.0,0.0,0.0,0.0,0.0,0.0,0.0,0.0,0.0,0.0,0.0,3.7296,3.8956,4.0548,4.2125,4.3656,4.382,4.382,4.382,4.3718,0.0,4.2468,4.3065,4.2684,4.1213,4.105,4.0662,3.9947,3.836,3.7147,3.6346,3.7044,3.7265,3.6993,3.6352,3.6113,3.6081,0.0,0.0,0.0,0.0,0.0,0.0,0.0,0.0,0.0,0.0,0.0,0.0,0.0,0.0,0.0,0.0,0.0,0.0,0.0,0.0,0.0,0.0,0.0,0.0,0.0,0.0,0.0,0.0,0.0,0.0,0.0,0.0,0.0,0.0,0.0,0.0,0.0,0.0,0.0,0.0,0.0,4.4138,4.4846,0.0,0.0,0.0,0.0,0.0,0.0,0.0,0.0,0.0,0.0,0.0,0.0,0.0,5.0183,5.1429,5.136,5.136,5.1429,5.1429,5.1429,5.1429,5.1429,5.1131,5.0509,5.0369,0.0,4.6629,4.4981,0.0,0.0,0.0,0.0,0.0,0.0,0.0,0.0,0.0,0.0,0.0,0.0,0.0,0.0,0.0,0.0,0.0,0.0,0.0,0.0,0.0,4.0081,4.1452,4.3098,4.276,4.2839,4.3795,4.3344,4.3107,4.3229,4.3566,4.3418,4.2728,4.1841,4.096,4.0065,3.9777,3.9436,3.9059,3.9381,3.9528,3.9574,3.9176,3.8309,3.6992,3.6219,0.0,0.0,0.0,0.0,0.0,0.0,0.0,0.0,0.0,0.0,0.0,0.0,0.0,0.0,0.0,0.0,0.0,0.0,0.0,0.0,0.0,0.0,0.0,0.0,0.0,0.0,0.0,0.0,0.0,0.0,0.0,0.0,0.0,0.0,0.0,0.0,0.0,0.0,0.0,4.3975,4.5044,4.5363,4.5906,4.5872,0.0,0.0,0.0,0.0,0.0,0.0,0.0,0.0,0.0,5.1321,5.0907,5.1356,5.2873,5.2459,5.2188,5.2188,5.2188,5.2188,5.2188,5.2188,5.2276,5.2372,5.1888,5.1021,4.9687,4.6914,4.5799,4.5498,0.0,0.0,0.0,0.0,4.15,4.1336,0.0,0.0,0.0,0.0,0.0,0.0,0.0,0.0,0.0,0.0,0.0,0.0,3.8864,3.9777,4.0941,4.2649,4.1949,4.2051,4.3521,4.3013,4.2908,4.3564,4.3553,4.3532,4.3595,4.2208,4.1126,4.0421,4.1003,4.1235,4.1156,4.1311,4.1438,4.1487,4.1642,4.0503,3.8367,3.736,3.6574,3.5775,0.0,0.0,0.0,0.0,0.0,0.0,0.0,0.0,0.0,0.0,0.0,0.0,0.0,0.0,0.0,0.0,0.0,0.0,0.0,0.0,0.0,0.0,0.0,0.0,0.0,0.0,0.0,0.0,0.0,0.0,0.0,0.0,0.0,0.0,0.0,0.0,0.0,4.5527,4.6569,4.6569,4.7741,4.8079,0.0,0.0,0.0,0.0,0.0,0.0,5.1326,5.1252,5.2011,5.3908,5.2873,5.2908,5.4253,5.3701,5.3391,5.3391,5.3391,5.3391,5.3391,5.3391,5.3504,5.3658,5.3072,5.2606,5.2034,4.8749,4.7353,4.7064,4.4498,4.3588,4.3727,4.3761,4.3633,4.357,0.0,0.0,0.0,0.0,0.0,0.0,0.0,0.0,0.0,0.0,0.0,3.8154,3.9008,3.9863,4.1051,4.2649,4.2054,4.1943,4.2797,4.2743,4.2696,4.2749,4.259,4.2472,4.2472,4.1581,4.1091,4.1038,4.1075,4.1111,4.1111,4.1882,4.2249,4.2286,4.302,4.2483,4.0893,3.9347,3.8603,3.8322,3.5919,0.0,0.0,0.0,0.0,0.0,0.0,0.0,0.0,0.0,0.0,0.0,0.0,0.0,0.0,0.0,0.0,0.0,0.0,0.0,0.0,0.0,0.0,0.0,0.0,0.0,0.0,0.0,0.0,0.0,0.0,0.0,0.0,0.0,0.0,0.0,0.0,0.0,0.0,4.9769,5.0459,0.0,0.0,0.0,0.0,4.9942,5.1942,5.2873,5.2153,5.3529,5.4667,5.5428,5.5426,5.5805,5.6633,5.6598,5.6564,5.6564,5.6564,5.6564,5.6564,5.6564,5.5788,5.4432,5.4397,5.3546,5.2009,4.9815,4.8838,4.8595,4.6461,4.5996,4.6496,4.6633,4.6246,4.5662,0.0,0.0,0.0,0.0,0.0,3.1143,3.2741,3.3658,3.4699,3.6086,3.7238,3.8191,3.9008,3.9338,3.9954,4.1163,4.0407,4.0437,4.1868,4.1385,4.1554,4.2637,4.2612,4.258,4.258,4.2807,4.2853,4.272,4.3252,4.3733,4.4195,4.4488,4.4635,4.4635,4.4929,4.4726,4.4063,4.1401,3.9953,3.9313,3.7397,3.6626,0.0,0.0,0.0,0.0,0.0,0.0,0.0,0.0,0.0,0.0,0.0,0.0,0.0,0.0,0.0,0.0,0.0,0.0,0.0,0.0,0.0,0.0,0.0,0.0,0.0,0.0,0.0,0.0,0.0,0.0,0.0,0.0,0.0,0.0,0.0,0.0,0.0,5.0011,5.1528,0.0,5.1494,5.2563,5.3391,5.3598,5.4356,5.4943,5.515,5.5701,5.6322,5.7081,5.6633,5.6736,5.7495,5.7047,5.6805,5.6805,5.6805,5.7047,5.7529,5.7529,5.7223,5.6678,5.6678,5.5791,5.4179,5.2503,5.0949,4.9447,4.7781,4.7268,4.7458,4.7531,4.7371,4.7144,0.0,0.0,0.0,0.0,3.0995,3.1663,3.3559,3.4513,3.5553,3.6928,3.7819,3.8488,3.9045,3.9064,3.9398,4.0308,3.9777,3.9882,4.1037,4.1045,4.14,4.2313,4.2548,4.276,4.2955,4.3509,4.3959,4.4392,4.4907,4.5423,4.5883,4.5883,4.5883,4.5883,4.5883,4.5883,4.5773,4.3608,4.2103,4.0965,3.935,3.8557,3.8153,0.0,0.0,0.0,0.0,0.0,0.0,0.0,0.0,0.0,0.0,0.0,0.0,0.0,0.0,0.0,0.0,0.0,0.0,0.0,0.0,0.0,0.0,0.0,0.0,0.0,0.0,0.0,0.0,0.0,0.0,0.0,0.0,0.0,0.0,5.0011,5.1149,5.1149,5.3149,5.4253,5.3429,5.4529,5.5495,5.5977,5.6253,5.6633,5.715,5.7426,5.7771,5.8254,5.7805,5.7771,5.8288,5.7805,5.7529,5.7529,5.7529,5.7805,5.8288,5.8288,5.815,5.7875,5.7604,5.6712,5.5373,5.3934,5.2436,5.093,4.9228,4.8573,4.8611,4.8879,4.8833,4.8541,0.0,0.0,0.0,3.1515,3.1812,3.2667,3.512,3.6197,3.7002,3.7782,3.8599,3.9082,3.9082,3.9082,3.9454,4.0285,4.0383,4.0397,4.0397,4.1869,4.2426,4.1683,4.2326,4.2963,4.3515,4.3588,4.4359,4.5957,4.5957,4.5957,4.5957,4.5957,4.5957,4.5957,4.5957,4.5957,4.5957,4.5957,4.5039,4.3461,4.1846,4.0708,3.99,0.0,0.0,0.0,0.0,0.0,0.0,0.0,0.0,0.0,0.0,0.0,0.0,0.0,0.0,0.0,0.0,0.0,0.0,0.0,0.0,0.0,0.0,0.0,0.0,0.0,0.0,0.0,0.0,0.0,0.0,0.0,0.0,0.0,5.0011,5.2046,5.3425,5.346,5.546,5.6529,5.577,5.6391,5.6874,5.6874,5.7529,5.7943,5.7943,5.8633,5.9012,5.9012,5.9012,5.9012,5.9012,5.9012,5.9012,5.9012,5.9012,5.9012,5.9047,5.9047,5.8634,5.791,5.7118,5.6288,5.5368,5.3891,5.3193,5.2986,5.0819,4.9923,5.0042,5.0794,5.0574,4.9789,0.0,0.0,3.0586,3.1626,3.2295,3.3299,3.5231,3.6197,3.7002,3.7782,3.8599,3.9082,3.9082,3.9082,3.9194,3.9454,4.0048,4.0397,4.0397,4.1349,4.2062,4.2372,4.3647,4.4382,4.4446,4.5072,4.5845,4.6746,4.6746,4.7095,4.7645,4.7645,4.7645,4.7645,4.7645,4.7645,4.7609,4.7003,4.6489,4.592,4.3718,4.269,4.2376,0.0,0.0,0.0,0.0,0.0,0.0,0.0,0.0,0.0,0.0,0.0,0.0,0.0,0.0,0.0,0.0,0.0,0.0,0.0,0.0,0.0,0.0,0.0,0.0,0.0,0.0,0.0,0.0,0.0,0.0,0.0,5.0493,5.2218,5.2425,5.346,5.4391,5.4943,5.6564,5.7529,5.7288,5.7943,5.8392,5.8392,5.8599,5.8702,5.8702,5.8909,5.9012,5.9012,5.9012,5.9012,5.9012,5.9012,5.9012,5.9012,5.9012,5.9323,5.9875,5.9875,5.9388,5.8613,5.8361,5.7181,5.53,5.4338,5.3648,5.2981,5.1308,5.069,5.0667,5.0327,5.0087,4.9857,0.0,3.0288,3.0957,3.2109,3.2964,3.4067,3.5751,3.6668,3.7485,3.8302,3.8822,3.9082,3.9082,3.9082,3.9082,3.9082,4.0197,4.074,4.034,4.1705,4.2844,4.3562,4.4804,4.5547,4.5772,4.625,4.6856,4.759,4.759,4.7846,4.8306,4.8306,4.8306,4.8306,4.8306,4.8306,4.8269,4.7773,4.759,4.7443,4.57,4.4819,4.4378,4.3094,4.2599,4.2526,4.1829,4.1609,4.1535,4.1205,0.0,0.0,0.0,0.0,0.0,0.0,0.0,0.0,0.0,0.0,0.0,0.0,0.0,0.0,0.0,0.0,0.0,0.0,0.0,0.0,0.0,0.0,0.0,0.0,5.2425,5.4184,5.515,5.5391,5.5736,5.6495,5.7633,5.8357,5.8357,5.8771,5.9012,5.9012,5.9012,5.9012,5.9012,5.9012,5.9012,5.9012,5.9012,5.9012,5.9012,5.9012,5.9012,5.9012,5.9012,5.9254,5.9702,5.9702,5.9424,5.8929,5.8603,5.7477,5.5803,5.5052,5.4232,5.3376,0.0,0.0,0.0,0.0,5.0184,4.9892,0.0,3.0734,3.1329,3.2741,3.3733,3.4884,3.6458,3.7373,3.8228,3.912,3.9157,3.912,3.9231,3.9157,3.9082,3.9082,4.0643,4.1341,4.0755,4.2712,4.4217,4.4923,4.5752,4.6489,4.7076,4.7186,4.759,4.8306,4.8306,4.8306,4.8306,4.8306,4.8306,4.8306,4.8306,4.8306,4.8306,4.8306,4.8306,4.8233,4.7516,4.6746,4.5957,4.5149,4.4838,4.4672,4.324,4.2727,4.2599,4.1815,0.0,0.0,0.0,0.0,0.0,0.0,0.0,0.0,0.0,0.0,0.0,0.0,0.0,0.0,0.0,0.0,0.0,0.0,0.0,0.0,0.0,0.0,0.0,0.0,5.4736,5.5598,5.7633,5.7426,5.7288,5.7943,5.8599,5.9012,5.9012,5.9012,5.9012,5.9012,5.9012,5.9012,5.9012,5.9012,0.0,0.0,0.0,5.9012,5.9012,5.9012,5.9012,5.9012,5.9012,5.9012,5.9012,5.9012,5.8944,5.884,5.7995,5.7189,5.6381,5.5515,5.4726,5.3976,5.2649,5.208,5.1922,5.1322,5.0658,5.0026,0.0,3.1663,3.263,3.2964,3.4265,3.5566,3.6569,3.7373,3.8451,3.9937,3.9528,3.938,4.0048,3.9528,3.9082,3.9082,4.0585,4.2252,4.3968,4.4402,4.4977,4.5806,4.6526,4.6948,4.7113,4.7736,4.8159,4.8306,4.8306,4.8306,4.8306,4.8306,4.8306,4.8306,4.8306,4.8306,4.8306,4.8306,4.8306,4.8306,4.8122,4.7609,4.6782,4.5993,4.5663,4.5626,4.5333,4.5186,4.5132,4.4596,4.3973,4.3353,4.288,4.2037,0.0,0.0,0.0,0.0,0.0,0.0,0.0,0.0,0.0,0.0,0.0,0.0,0.0,0.0,0.0,0.0,0.0,0.0,0.0,5.4287,5.6046,5.7391,5.784,5.8288,5.8633,5.8771,5.8909,5.9012,5.9012,5.9012,5.9012,5.9012,5.9012,5.9012,5.9012,5.9012,5.9012,5.9012,5.9012,5.9012,5.9012,5.9012,5.9012,5.9012,5.9012,0.0,5.9012,5.9012,5.8632,5.7995,5.7185,5.6348,5.5474,5.4675,5.4242,5.4008,5.3218,5.2523,5.1986,5.1859,5.1353,5.0785,3.1812,3.2444,3.3262,3.4116,3.5268,3.6383,3.7188,3.7968,3.8785,3.964,3.9751,3.9886,4.0251,4.0317,4.0145,3.9694,4.0718,4.2416,4.4733,4.52,4.5735,4.6581,4.7297,4.77,4.77,4.8086,4.8306,4.8306,4.8306,4.8306,4.8306,4.8306,4.8306,4.8306,4.8306,4.8306,4.8306,4.8306,4.8306,4.8306,4.8306,4.8086,4.7663,4.7241,4.7095,4.7058,4.6654,4.6507,4.636,4.5481,4.4943,4.4498,4.3748,4.3122,4.2647,0.0,0.0,0.0,0.0,0.0,0.0,0.0,0.0,0.0,0.0,0.0,0.0,0.0,0.0,5.0804,5.1498,0.0,5.4874,5.6012,5.715,5.8047,5.8392,5.8771,5.9012,5.9012,5.9012,5.9012,5.9012,5.9357,5.9599,5.9599,5.9944,6.0151,6.0151,6.0151,5.9978,5.9599,5.9599,5.9426,5.9012,5.9012,5.9012,5.9012,5.9012,5.9012,5.9012,5.9012,5.8771,5.8386,5.7959,5.7338,5.647,5.5708,5.5345,5.5312,5.4988,5.3912,5.2554,5.2554,5.2112,5.148,3.3213,3.3373,3.393,3.5268,3.6309,3.7151,3.7782,3.8562,3.9231,3.9528,4.0048,4.048,4.0689,4.1215,4.1327,4.0718,4.1182,4.2505,4.4886,4.557,4.6324,4.7296,4.7976,4.8306,4.8306,4.8306,4.8306,4.8306,4.8306,4.8306,4.8306,4.8306,4.8306,4.8306,4.8306,4.8306,4.8306,4.8306,4.8306,4.8306,4.8306,4.8306,4.8306,4.8306,4.8306,4.8233,4.7553,4.7333,4.7147,4.5945,4.5524,4.5342,4.4425,4.4012,4.3836,4.3504,4.3724,0.0,0.0,0.0,0.0,0.0,0.0,0.0,0.0,4.8258,4.9913,5.07,5.2459,5.408,5.4805,5.5563,5.6495,5.7909,5.8116,5.8323,5.8944,5.9012,5.9012,5.9012,5.9012,5.9081,5.9219,5.9806,6.0254,6.0392,6.0978,6.1289,6.1289,6.1289,6.1013,6.0427,6.0427,6.0116,5.9461,5.9323,5.9254,5.9254,5.9081,5.9012,5.9012,5.9012,5.9012,5.8978,5.884,5.8315,5.752,5.6658,5.6342,5.6342,5.6185,5.494,5.3323,5.3659,5.3305,5.2667,0.0,3.4711,3.5268,3.5454,3.6755,3.7782,3.7894,3.8562,3.964,4.1126,4.0791,4.094,4.2337,4.1905,4.1718,4.2179,4.2267,4.3339,4.577,4.5901,4.6581,4.8122,4.8269,4.8306,4.8306,4.8306,4.8306,4.8306,4.8306,4.8306,4.8306,4.8306,4.8306,4.8306,4.8306,4.8306,4.8306,4.8306,4.8306,4.8306,4.8306,4.8306,4.8306,4.8306,4.8306,4.8306,4.8196,4.8196,4.8024,4.7054,4.6708,4.6527,4.556,4.4777,4.4249,4.4198,4.3759,4.3345,4.3414,4.3931,4.4725,4.601,4.7389,4.8947,0.0,5.2218,5.3115,5.3839,5.4736,5.5598,5.6391,5.715,5.7909,5.8737,5.8875,5.8909,5.9012,5.9012,5.9012,5.9012,5.9012,5.9288,6.0013,6.0151,6.0461,6.1116,6.1254,6.1289,6.1289,6.1289,6.1254,6.1185,6.1185,6.1116,6.1047,6.0392,6.0082,6.0047,5.9357,5.9012,5.9012,5.9012,5.9012,5.8978,5.821,5.7483,5.6691,5.5796,5.5474,5.5393,5.4675,5.421,5.419,5.5658,5.5749,5.5013,0.0,3.4884,3.564,3.6123,3.7151,3.8042,3.8525,3.8897,3.9342,4.0048,4.068,4.1334,4.1994,4.2088,4.2395,4.3197,4.2746,4.3399,4.5845,4.5938,4.6617,4.8233,4.8306,4.8306,4.8306,4.8306,4.8306,4.8306,4.8306,4.8306,4.8306,4.8306,4.8306,4.8306,4.8306,4.8306,4.8306,4.8306,4.8306,4.8306,4.8306,4.8306,4.8306,4.8306,4.8306,4.8306,4.8306,4.8306,0.0,4.7204,4.689,4.6707,4.5727,4.519,4.4941,4.4941,4.5044,4.5251,4.5699,4.6355,4.7079,4.7707,4.9016,5.0631,5.2494,5.3494,5.4494,5.615,5.6736,5.7185,5.7943,5.8357,5.8806,5.9564,5.9323,5.9185,5.9633,5.9323,5.9012,5.9012,5.9012,5.9323,6.0116,6.1013,6.1668,6.1979,6.2393,6.2634,6.2634,6.2634,6.2427,6.2013,6.1979,6.1772,6.1289,6.0978,6.084,6.084,6.0047,5.9702,5.9668,5.9219,5.9012,5.8978,5.8632,5.8315,5.7959,5.7597,5.7453,5.7416,5.708,5.693,5.6778,5.5588,5.4979,5.4648,0.0,3.4835,3.5688,3.6504,3.732,3.815,3.8971,3.9082,3.9194,3.9417,4.0717,4.175,4.2088,4.258,4.3197,4.3976,4.3229,4.3713,4.614,4.6048,4.6617,4.8233,4.8306,4.8306,4.8306,4.8306,4.8306,4.8306,4.8526,4.8673,4.8673,4.8673,4.8673,4.8636,4.8416,4.8306,4.8306,4.8306,4.8306,4.8306,4.8306,4.8306,4.8306,4.8306,4.8159,4.7957,4.7957,4.7957,4.7824,4.6758,4.6481,4.641,4.5531,4.5329,4.5432,4.5673,4.6121,4.6769,4.75,4.8086,4.8637,4.9258,5.0568,5.2149,5.3667,5.477,5.5977,5.784,5.8219,5.8392,5.8909,5.9012,5.9254,6.0082,5.9702,5.953,6.0116,5.9702,5.9254,5.9047,5.9219,5.9564,6.0151,6.1392,6.2324,6.2772,6.3289,6.36,6.36,6.36,6.3358,6.2806,6.2806,6.253,6.1944,6.1737,6.1634,6.1634,6.0875,6.0392,6.0185,5.9392,5.9012,5.9012,5.9012,5.9012,5.8978,5.8737,5.8667,5.8632,5.8422,5.8351,5.8031,5.5668,5.5058,5.5393,0.0,0.0,3.5544,3.638,3.7156,3.8025,3.8943,3.9082,3.938,4.0248,4.1089,4.2143,4.3562,4.3767,4.4013,4.4702,4.3953,4.4541,4.7077,4.6415,4.6617,4.8233,4.8306,4.8306,4.8306,4.8306,4.8306,4.8306,4.915,4.9574,4.9574,4.9574,4.9574,4.9537,4.8673,4.8306,4.8306,4.8306,4.8306,4.8306,4.8306,4.8306,4.8306,4.8306,4.781,4.7149,4.7149,4.7149,4.6946,4.5698,4.5465,4.5637,4.5081,4.5126,4.5535,4.6328,4.6596,4.6769,4.75,4.7707,4.8258,5.0493,5.2183,5.3736,5.5219,5.6736,5.8012,5.8806,5.8978,5.8978,5.9012,5.9012,5.9254,6.0082,6.0185,6.0185,6.0185,6.0185,5.9875,5.9116,5.9702,6.0185,6.0185,6.0875,6.1944,6.3427,6.3565,6.36,6.36,6.36,6.3565,6.3565,6.3565,6.3531,6.3531,6.2806,6.2461,6.2427,6.1634,6.0875,6.0185,5.9392,5.9012,5.9012,5.9012,5.9012,5.8944,5.8139,5.785,5.7777,5.6996,5.6691,5.6652,5.6575,5.752,5.8737,0.0,0.0,0.0,3.7082,3.7525,3.7983,3.8853,3.8964,3.926,4.0089,4.1369,0.0,0.0,0.0,0.0,0.0,4.3781,4.4154,4.5479,4.5791,4.6397,4.7443,4.7993,4.8306,4.8306,4.8306,4.8306,4.8306,4.86,4.904,4.961,4.961,4.961,4.961,4.9297,4.882,4.8306,4.8306,4.893,4.9848,4.8746,4.8967,4.9848,4.871,4.7773,4.7039,0.0,4.6324,4.6176,4.5444,4.5637,4.6018,4.5164,4.5715,4.676,4.7222,4.7327,4.7631,4.8872,4.9597,5.0528,5.2804,5.377,5.4667,5.6667,5.7909,5.8875,5.9633,5.9806,5.9806,5.9806,5.9357,5.9426,6.0737,6.053,6.0565,6.1565,6.1254,6.0634,5.9909,6.0047,6.0185,6.0185,6.0875,6.1737,6.2772,6.2841,6.3082,6.3565,6.36,6.36,6.36,6.36,6.36,6.36,6.3358,6.322,6.322,6.2461,6.1427,6.0185,5.9909,5.9495,5.9012,5.9012,5.9012,5.8978,5.8702,5.8597,5.8562,5.8315,5.8174,5.8174,5.8174,5.8527,5.884,0.0,0.0,0.0,0.0,0.0,0.0,0.0,0.0,0.0,0.0,0.0,0.0,0.0,0.0,0.0,0.0,0.0,4.4321,4.5076,4.5626,4.625,4.7076,4.759,4.8159,4.8746,4.8746,4.8746,4.8746,4.904,4.9334,4.961,4.961,4.961,4.961,4.928,4.882,4.8306,4.8306,4.893,4.9848,4.9077,4.9224,4.9848,4.937,4.8526,0.0,4.7315,4.6838,4.6158,4.4983,4.5128,4.5623,4.4949,4.5828,4.7117,4.7575,4.7879,4.8465,5.0321,5.1149,5.2046,5.4322,5.5115,5.577,5.7529,5.8495,5.9081,5.9323,5.9599,5.9702,5.9426,5.9185,5.9495,6.1047,6.0909,6.1047,6.2324,6.2048,6.1461,6.0668,6.0599,6.0599,6.0599,6.1013,6.1634,6.2427,6.2737,6.3082,6.3565,6.36,6.36,6.36,6.36,6.36,6.36,6.36,6.36,6.36,6.2841,6.1806,6.0565,6.0323,5.9771,5.9012,5.9012,5.9012,5.9012,5.9012,5.9012,5.9012,5.9012,5.9012,5.9012,5.9012,5.8944,5.8771,0.0,0.0,0.0,0.0,0.0,0.0,0.0,0.0,0.0,0.0,0.0,0.0,0.0,0.0,0.0,0.0,0.0,0.0,4.5847,4.5883,4.625,4.7003,4.7076,4.7865,4.95,4.9574,4.961,4.9647,5.0435,5.0435,4.9721,4.9721,4.9721,4.9684,4.8857,4.8489,4.8453,4.8453,4.8489,4.8636,4.9334,4.9224,4.871,5.0215,4.9774,4.8489,4.9317,4.8563,4.6819,4.4452,4.4116,4.4648,4.4676,4.5617,4.6803,4.7569,4.8327,4.9396,5.1602,5.2291,5.2877,5.5115,5.6253,5.7047,5.7736,5.8495,5.884,5.8081,5.8495,5.8806,5.8047,5.8495,5.9461,6.0978,6.1289,6.1599,6.2427,6.253,6.2255,6.1461,6.1358,6.1358,6.1289,6.1358,6.1668,6.2427,6.3151,6.3565,6.36,6.36,6.36,6.36,6.36,6.36,6.36,6.36,6.36,6.36,6.2875,6.2117,6.1289,6.0565,5.9806,5.9012,5.9012,5.9012,5.9012,5.9012,5.9012,5.9012,5.9012,5.9012,5.9012,5.9012,5.8944,5.8806,0.0,0.0,0.0,0.0,0.0,0.0,0.0,0.0,0.0,0.0,0.0,0.0,0.0,0.0,0.0,0.0,0.0,0.0,4.5883,4.5883,4.5993,4.6214,4.6782,4.759,4.86,4.928,4.9904,5.0472,5.0692,5.0986,5.141,5.141,5.141,5.1353,5.1169,5.0729,5.0178,5.0178,5.0839,5.1867,5.0875,5.1096,5.1867,5.1096,5.0141,4.9317,4.9537,4.8893,4.7829,4.6599,4.6198,4.6326,4.7177,4.7405,4.77,4.9045,4.9942,5.074,5.1877,5.3429,5.5046,5.6219,5.7081,5.7667,5.7874,5.8944,5.953,5.8185,5.853,5.884,5.8047,5.8047,5.8702,6.022,6.0944,6.1772,6.3117,6.3324,6.3048,6.2255,6.2186,6.1944,6.1358,6.1841,6.2255,6.2461,6.2668,6.3013,6.3565,6.36,6.36,6.36,6.36,6.36,6.36,6.36,6.36,6.36,6.3393,6.2599,6.1289,6.1116,6.0289,5.9012,5.9012,5.9012,5.9012,5.9012,5.9012,5.9012,5.9012,5.9012,5.9012,5.9012,5.8978,5.8909,0.0,0.0,0.0,0.0,0.0,0.0,0.0,0.0,0.0,0.0,0.0,0.0,0.0,0.0,0.0,0.0,0.0,0.0,0.0,4.5883,4.5883,4.5883,4.5975,4.6746,4.8269,4.915,4.9831,5.0251,5.0986,5.1206,5.0969,5.1316,5.1279,5.0969,5.0969,5.0712,5.0251,5.0251,5.0802,0.0,0.0,5.1426,5.1646,5.1793,5.1353,5.0712,5.1059,5.0618,4.9754,4.8713,4.7897,4.7429,4.8295,4.864,4.901,5.0528,5.1287,5.1877,5.3322,5.4632,5.5874,5.7012,5.7357,5.7495,5.784,5.8323,5.8357,5.715,5.7529,5.784,5.7047,5.746,5.8288,5.9495,6.0599,6.1737,6.2944,6.3393,6.3427,6.3013,6.2979,6.2806,6.2358,6.2703,6.2979,6.2979,6.2979,6.3151,6.3565,6.36,6.36,6.36,6.36,6.36,6.36,6.36,6.36,6.36,6.36,6.2772,6.1289,6.1289,6.0461,5.9012,5.9012,5.9012,5.9012,5.9012,5.9012,5.9012,5.9012,5.9012,5.8978,5.8909,5.8875,5.8771,0.0,0.0,0.0,0.0,0.0,0.0,0.0,0.0,0.0,0.0,0.0,0.0,0.0,0.0,0.0,0.0,0.0,0.0,0.0,0.0,4.5736,4.5736,4.5186,4.5883,4.8086,4.9096,4.9647,4.9757,5.1132,5.1132,4.9757,5.0472,5.0435,4.9757,4.9647,4.961,4.961,4.95,4.9574,4.9867,5.1279,5.1132,5.0308,0.0,5.2784,5.2234,5.2968,5.2674,5.1841,5.07,4.9464,4.8447,4.8908,4.962,5.0597,5.208,5.2498,5.298,5.5184,5.5839,5.6253,5.7564,5.7495,5.7219,5.7667,5.7322,5.6667,5.5667,5.6081,5.6391,5.5598,5.6633,5.7874,5.8737,6.0082,6.1358,6.2358,6.3048,6.3496,6.3565,6.36,6.36,6.36,6.36,6.36,6.36,6.36,6.36,6.36,6.36,6.36,6.36,6.36,6.36,6.36,6.36,6.36,6.36,6.36,6.2841,6.1461,6.1358,6.053,5.915,5.9047,5.9012,5.9012,5.9012,5.9012,5.9012,5.8978,5.8978,5.8944,5.8806,5.8631,5.849,0.0,0.0,0.0,0.0,0.0,0.0,0.0,0.0,0.0,0.0,4.3671,4.4925,0.0,0.0,0.0,0.0,0.0,0.0,0.0,0.0,0.0,4.4929,4.5406,4.6214,4.7259,4.882,4.9941,5.0582,5.0875,5.0875,5.0582,5.0729,5.0729,5.0545,4.9904,4.961,4.9537,4.882,4.9334,5.0618,5.0912,5.1646,5.2637,5.302,0.0,0.0,5.313,5.2674,5.1988,5.1986,5.1514,5.0819,5.0514,5.1106,5.2119,5.3667,5.4115,5.4494,5.615,5.7047,5.7564,5.784,5.8254,5.8357,5.7253,5.7357,5.715,5.5115,5.5288,5.5598,5.4839,5.5426,5.646,5.7874,5.884,6.0116,6.2186,6.2599,6.291,6.3531,6.36,6.36,6.36,6.36,6.36,6.36,6.36,6.36,6.36,6.36,6.36,6.36,6.36,6.36,6.36,6.36,6.36,6.36,6.36,6.3117,6.2255,6.1599,6.0806,5.9944,5.9288,5.9012,5.9012,5.9012,5.9012,5.8978,5.8875,5.884,5.8806,5.8631,5.8525,5.849,0.0,0.0,0.0,0.0,0.0,0.0,0.0,0.0,4.1819,4.3008,4.421,4.5247,0.0,0.0,0.0,0.0,0.0,0.0,0.0,0.0,0.0,0.0,4.5076,4.5847,4.7076,4.871,4.9958,5.0802,0.0,5.161,5.0802,5.1242,5.0986,5.0141,4.9757,4.961,4.9574,4.915,4.9664,5.0839,5.1242,5.1903,5.2637,0.0,0.0,0.0,5.3203,5.2674,5.2103,5.2638,5.2497,5.2064,5.1958,5.259,5.3632,5.477,5.5081,5.5426,5.6943,5.7633,5.8012,5.8392,5.7874,5.7047,5.6357,5.5874,5.5253,5.4149,5.4529,5.4943,5.4563,5.5115,5.5977,5.715,5.8288,5.9668,6.1599,6.222,6.2772,6.3496,6.3945,6.4152,6.4152,6.4531,6.4772,6.4772,6.4393,6.3979,6.36,6.36,6.36,6.36,6.36,6.36,6.36,6.36,6.36,6.36,6.36,6.3186,6.2461,6.1668,6.0909,6.0151,5.9357,5.9012,5.8978,5.8909,5.8909,5.8875,5.8701,5.8631,5.8631,5.8419,5.8348,5.8312,0.0,0.0,0.0,0.0,0.0,0.0,0.0,4.1489,4.2097,4.368,4.4601,4.5342,4.5907,4.6772,4.7496,0.0,0.0,0.0,0.0,0.0,0.0,0.0,0.0,4.5902,4.7333,0.0,0.0,5.0802,5.2087,0.0,0.0,0.0,0.0,0.0,4.95,4.9317,4.9317,4.9133,4.9627,0.0,0.0,5.194,5.2344,0.0,0.0,0.0,0.0,5.2784,5.2344,5.3004,5.3007,5.2789,5.2897,5.3654,5.4632,5.5219,5.5598,5.6184,5.7529,5.8012,5.8288,5.8875,5.7426,5.5839,5.5667,5.4598,5.3598,5.3425,5.4011,5.4494,5.4494,5.4977,5.5701,5.6633,5.7771,5.9185,6.1047,6.1841,6.2565,6.3496,6.4255,6.4703,6.4703,6.5428,6.5876,6.5876,6.5152,6.4358,6.3634,6.36,6.36,6.36,6.36,6.36,6.36,6.36,6.36,6.36,6.36,6.3289,6.2703,6.191,6.1151,6.0392,5.9599,5.9151,5.8944,5.884,5.8771,5.8701,5.8525,5.8455,5.8419,5.8207,5.8169,5.8099,0.0,0.0,0.0,0.0,0.0,0.0,0.0,4.1467,4.2106,4.3615,4.4654,4.5238,4.523,4.587,4.6337,0.0,0.0,0.0,0.0,0.0,0.0,0.0,0.0,0.0,0.0,0.0,0.0,5.0802,5.0949,0.0,0.0,0.0,0.0,0.0,0.0,4.8416,4.8379,4.7626,0.0,0.0,0.0,0.0,0.0,0.0,0.0,0.0,0.0,5.313,5.3093,5.3167,5.3294,5.3351,5.2865,5.3548,5.4529,5.4598,5.5598,5.6874,5.7667,5.8392,5.8944,5.8978,5.784,5.6495,5.577,5.4977,5.4218,5.3529,5.4011,5.4494,5.4494,5.4563,5.5081,5.6564,5.6909,5.8012,6.0875,6.1358,6.1944,6.3427,6.4255,6.4703,6.4703,6.5428,6.5876,6.5876,6.5152,6.4358,6.3634,6.36,6.36,6.36,6.36,6.36,6.36,6.36,6.36,6.36,6.36,6.3565,6.3462,6.2703,6.1944,6.1151,6.0427,5.9598,5.8806,5.8805,5.8666,5.8525,5.8312,5.8241,5.8171,5.7991,5.7918,5.7918,0.0,0.0,0.0,0.0,0.0,0.0,0.0,4.195,4.2708,4.3781,4.4273,4.4491,4.4459,4.5152,4.6029,0.0,0.0,0.0,0.0,0.0,0.0,0.0,0.0,0.0,0.0,0.0,5.1426,5.2234,5.2234,0.0,0.0,0.0,0.0,0.0,0.0,4.9334,4.9738,4.893,0.0,0.0,0.0,0.0,0.0,0.0,0.0,0.0,0.0,0.0,5.2564,5.3041,5.3024,5.2701,5.219,5.2447,5.3117,5.4174,5.5253,5.6357,5.7564,5.8461,5.8909,5.8461,5.7219,5.5874,5.5115,5.4391,5.377,5.346,5.4011,5.4494,5.4494,5.4494,5.5012,5.6564,5.6805,5.7702,6.0289,6.0634,6.122,6.2737,6.3979,6.4876,6.5359,6.6497,6.6842,6.5945,6.56,6.4876,6.3669,6.36,6.36,6.36,6.36,6.36,6.36,6.36,6.36,6.36,6.36,6.36,6.3565,6.2841,6.2324,6.1944,6.0597,5.9803,5.9423,5.8696,5.8384,5.8312,5.8099,5.8027,5.7991,5.7918,5.7881,5.7881,0.0,0.0,0.0,0.0,0.0,4.068,4.146,4.2277,4.3095,4.3875,4.4209,4.4283,4.4023,4.5212,4.6347,4.7208,0.0,0.0,0.0,0.0,0.0,0.0,0.0,0.0,0.0,0.0,5.238,5.3203,5.3203,5.2931,0.0,0.0,5.205,5.1463,0.0,0.0,0.0,0.0,0.0,0.0,0.0,0.0,0.0,0.0,0.0,0.0,0.0,0.0,0.0,0.0,0.0,5.2255,5.175,5.1608,5.1822,5.3125,5.4184,5.5253,5.6564,5.7633,5.8219,5.7702,5.6426,5.515,5.4632,5.3942,5.3391,5.3391,5.4011,5.4494,5.4494,5.4701,5.5253,5.6598,5.6978,5.784,5.9909,6.0185,6.0668,6.1979,6.3255,6.4358,6.5117,6.6566,6.6911,6.5635,6.5531,6.4979,6.3669,6.36,6.36,6.36,6.36,6.36,6.36,6.36,6.36,6.36,6.36,6.36,6.3565,6.3011,6.263,6.2318,6.0796,6.0002,5.9657,5.8619,5.8135,5.8099,5.7954,5.7881,5.7881,5.7881,5.7881,5.7881,0.0,0.0,0.0,0.0,0.0,0.0,0.0,4.2277,4.3095,4.3875,4.4729,4.4952,4.4098,4.6215,4.7367,4.6587,0.0,0.0,0.0,0.0,0.0,0.0,0.0,0.0,0.0,0.0,5.238,5.3203,5.3203,5.3203,5.3188,5.3188,5.3167,5.313,0.0,0.0,0.0,0.0,0.0,0.0,0.0,0.0,0.0,0.0,0.0,0.0,0.0,0.0,0.0,0.0,0.0,0.0,0.0,5.1254,5.0842,5.1083,5.2218,5.3598,5.4356,5.5667,5.6805,5.6805,5.5667,5.4529,5.4494,5.3942,5.3391,5.3391,5.4011,5.4494,5.4494,5.5115,5.5874,5.6667,5.7426,5.8426,5.9978,6.0185,6.0461,6.122,6.2013,6.2806,6.3531,6.5014,6.5566,6.4772,6.4703,6.4393,6.3634,6.36,6.36,6.36,6.36,6.36,6.36,6.36,6.36,6.36,6.36,6.36,6.36,6.3377,6.289,6.2132,6.1126,6.0154,5.9259,5.8511,5.8063,5.7881,5.7881,5.7881,5.7881,5.7881,5.7881,5.7881,0.0,0.0,0.0,0.0,0.0,0.0,0.0,4.3095,4.3726,4.3986,4.4766,4.5175,4.4915,4.6587,4.7796,4.8061,0.0,0.0,0.0,0.0,0.0,0.0,0.0,0.0,0.0,0.0,5.2931,5.3203,5.3203,5.3203,5.3203,5.3203,5.3203,5.3167,5.2344,5.2307,0.0,0.0,0.0,0.0,0.0,0.0,0.0,0.0,0.0,0.0,0.0,0.0,0.0,0.0,0.0,0.0,0.0,0.0,0.0,5.0287,5.1425,5.277,5.3529,5.4494,5.5115,5.4598,5.4494,5.4391,5.3873,5.3977,5.4149,5.4149,5.4356,5.4494,5.4494,5.5115,5.5874,5.6667,5.7426,5.8254,5.9254,5.984,6.0461,6.122,6.291,6.4289,6.5083,6.56,6.5566,6.4772,6.4703,6.4358,6.3634,6.36,6.36,6.36,6.36,6.36,6.36,6.36,6.36,6.36,6.36,6.3526,6.3377,6.334,6.3124,6.2665,6.1726,6.0864,6.0041,5.9146,5.8428,5.7881,5.7881,5.7881,5.7881,5.7881,5.7881,5.7881,0.0,0.0,0.0,0.0,0.0,0.0,0.0,4.3466,4.3986,4.3986,4.4766,4.5175,4.4841,4.655,4.787,4.8321,0.0,0.0,0.0,0.0,0.0,0.0,0.0,0.0,0.0,5.302,5.3203,5.3203,5.3203,5.3203,5.3203,5.3203,5.3203,5.3167,5.2674,5.2747,0.0,0.0,0.0,0.0,0.0,0.0,0.0,0.0,0.0,0.0,0.0,0.0,0.0,0.0,0.0,0.0,0.0,0.0,0.0,0.0,5.0666,5.1563,5.2321,5.308,5.3598,5.3425,5.377,5.4046,5.3873,5.4184,5.4494,5.4494,5.4494,5.4494,5.4494,5.5357,5.6219,5.6736,5.7667,5.8495,5.8944,5.9702,6.0461,6.122,6.2806,6.4048,6.4565,6.4841,6.4807,6.4324,6.4289,6.4083,6.36,6.36,6.36,6.36,6.36,6.36,6.36,6.36,6.36,6.36,6.3526,6.3414,6.3265,6.3114,6.3,6.2851,6.1911,6.1049,0.0,5.9373,5.8558,5.7881,5.7881,5.7881,5.7881,5.7881,5.7881,5.7881,0.0,0.0,0.0,0.0,0.0,0.0,0.0,0.0,0.0,4.3986,4.4804,4.5064,4.4283,4.6327,4.785,0.0,0.0,0.0,0.0,0.0,0.0,0.0,0.0,0.0,5.205,5.2821,5.3203,5.3203,5.313,5.3115,5.3115,5.3078,5.3057,5.3115,5.3115,5.313,0.0,0.0,0.0,0.0,0.0,0.0,0.0,0.0,0.0,0.0,0.0,0.0,0.0,0.0,0.0,0.0,0.0,0.0,0.0,0.0,0.0,0.0,0.0,5.1498,5.2218,5.2977,5.3253,5.3494,5.4184,5.4425,0.0,5.4494,5.4494,5.4529,5.4563,5.5736,5.6736,5.6874,5.8047,5.8944,5.9012,5.9737,6.0565,6.1358,6.2117,6.2565,6.2565,6.3186,6.36,6.36,6.36,6.36,6.36,6.36,6.36,6.36,6.36,6.36,6.36,6.36,6.36,6.36,6.3377,6.3265,6.3265,6.2847,6.2693,6.262,6.1748,6.0892,6.0047,5.937,5.8626,5.7881,5.7881,5.7881,5.7881,5.7881,5.7881,5.7881,0.0,0.0,0.0,0.0,0.0,0.0,0.0,0.0,0.0,0.0,4.5287,4.6141,4.5918,4.7516,4.9078,0.0,0.0,0.0,0.0,0.0,0.0,0.0,0.0,0.0,5.2894,5.3093,5.3203,5.3203,5.2564,5.227,5.227,5.1646,5.1683,5.227,5.227,5.2637,0.0,0.0,0.0,0.0,0.0,0.0,0.0,0.0,0.0,0.0,5.3203,5.2952,0.0,0.0,0.0,0.0,0.0,0.0,0.0,0.0,5.0011,5.0045,5.0218,0.0,5.0562,5.0769,5.1666,5.2532,0.0,5.3667,5.4494,5.4494,5.4494,5.4667,5.5253,5.5667,5.6288,5.746,5.7943,5.8357,5.8944,6.0185,6.153,6.291,6.322,6.3324,6.3324,6.3496,6.36,6.36,6.36,6.36,6.36,6.36,6.36,6.36,6.36,6.36,6.36,6.36,6.36,6.36,6.3377,6.3227,6.3076,6.2808,6.2649,6.2459,6.2251,6.1366,6.008,5.9911,5.9066,5.7881,5.7881,5.7881,5.7881,5.7881,5.7881,5.7881,0.0,0.0,0.0,0.0,0.0,0.0,0.0,0.0,0.0,0.0,0.0,0.0,0.0,0.0,0.0,0.0,0.0,0.0,0.0,0.0,0.0,0.0,0.0,5.1756,5.2637,5.3004,5.3203,5.3203,5.2747,5.2344,5.1977,5.194,5.194,5.2013,5.238,5.2784,0.0,0.0,0.0,0.0,0.0,0.0,0.0,0.0,0.0,0.0,5.3203,5.285,0.0,5.2126,5.1475,5.0749,0.0,0.0,0.0,0.0,5.0011,5.0011,5.0011,5.0252,5.0597,5.0942,5.1602,5.2291,5.2666,5.3115,5.3563,5.3942,5.4011,5.4218,5.4977,5.5667,5.6426,5.7253,5.7978,5.8806,5.9909,6.0771,6.1875,6.3427,6.36,6.36,6.36,6.36,6.36,6.36,6.36,6.36,6.36,6.36,6.36,6.36,6.36,6.36,6.36,6.3526,6.3452,6.3452,6.3152,6.2962,6.2847,6.2654,6.2498,6.2381,6.2381,6.1738,6.0622,6.025,5.9438,5.8355,5.8017,5.7881,5.7881,5.7881,5.7881,5.7881,0.0,0.0,0.0,0.0,0.0,0.0,0.0,0.0,0.0,0.0,0.0,0.0,0.0,0.0,0.0,0.0,0.0,0.0,0.0,0.0,0.0,0.0,0.0,5.205,5.216,5.2858,5.3203,5.3203,5.2947,5.2491,5.183,5.227,5.2234,5.1867,5.2784,5.3203,0.0,0.0,0.0,0.0,0.0,0.0,0.0,0.0,0.0,0.0,0.0,0.0,0.0,5.1848,5.1244,5.062,5.0235,0.0,0.0,0.0,0.0,0.0,5.0149,5.0735,5.139,5.1877,5.2188,5.2563,5.3253,5.2873,5.2597,5.3253,5.3391,5.3667,5.4529,5.5736,5.6736,5.7081,5.8185,5.9564,6.1082,6.1289,6.1875,6.3427,6.36,6.36,6.36,6.36,6.36,6.36,6.36,6.36,6.36,6.36,6.36,6.3563,6.3563,6.3526,6.3526,6.3377,6.3265,6.3227,6.2847,6.2727,6.2693,6.2498,6.2381,6.2381,6.2381,6.1975,6.1231,6.0419,5.9674,5.893,5.8186,5.7881,5.7881,5.7881,5.7881,5.7881,0.0,0.0,0.0,0.0,0.0,0.0,0.0,0.0,0.0,0.0,0.0,0.0,0.0,0.0,0.0,0.0,0.0,0.0,0.0,0.0,0.0,5.2858,5.2307,5.2307,5.3004,5.3151,5.3203,5.3203,5.183,5.1096,5.0949,4.9664,4.9738,5.1059,5.2564,5.3203,5.3203,0.0,0.0,0.0,5.3203,0.0,0.0,0.0,0.0,0.0,0.0,0.0,0.0,5.2173,5.1296,5.0178,5.0564,0.0,0.0,0.0,0.0,0.0,5.0769,5.1494,5.1912,5.1425,5.2252,5.3253,5.3391,5.3287,5.3253,5.3391,5.3391,5.3839,5.5184,5.5632,5.6426,5.8357,5.8875,5.9564,6.1082,6.1289,6.1875,6.3427,6.36,6.36,6.36,6.36,6.36,6.36,6.36,6.36,6.36,6.36,6.3526,6.334,6.334,6.3265,6.3114,6.3227,6.3227,6.3038,6.2808,6.2727,6.2693,6.2498,6.2381,6.2381,6.2381,6.1975,6.1231,6.0419,5.9674,5.893,5.8186,5.7881,5.7881,5.7881,5.7881,5.7881,0.0,0.0,0.0,0.0,0.0,0.0,0.0,0.0,0.0,0.0,0.0,0.0,0.0,0.0,0.0,0.0,0.0,0.0,0.0,0.0,0.0,5.3203,5.2858,5.2821,5.3167,5.2784,5.2564,5.2564,5.1389,5.0802,5.0802,5.0472,5.0949,5.2123,5.2873,5.3203,5.3203,5.3203,0.0,0.0,0.0,0.0,0.0,0.0,0.0,0.0,0.0,0.0,0.0,0.0,5.0779,4.9453,5.0153,0.0,0.0,0.0,0.0,0.0,4.9878,5.0705,5.1632,5.1671,5.2563,5.3391,5.3391,5.308,5.2873,5.3322,5.3391,5.3873,5.5357,5.5977,5.6874,5.8702,5.9012,5.9426,6.053,6.1047,6.1737,6.2875,6.3358,6.36,6.36,6.36,6.36,6.36,6.36,6.36,6.36,6.36,6.3526,6.3302,6.3302,6.3152,6.2847,6.2923,6.2923,6.2847,6.2615,6.2537,6.2537,6.242,6.2381,6.2381,6.2381,6.2212,6.1839,6.1061,6.0283,5.9539,5.8795,5.8254,5.7881,5.7881,5.7881,5.7881,0.0,0.0,0.0,0.0,0.0,0.0,0.0,0.0,0.0,0.0,0.0,0.0,0.0,0.0,0.0,0.0,0.0,0.0,0.0,0.0,5.3004,5.3167,5.3203,5.3115,5.2931,5.2307,5.1903,5.172,5.1096,5.0802,5.0839,5.161,5.2344,5.2931,5.3115,5.3203,5.3203,5.3203,5.3203,0.0,0.0,0.0,0.0,0.0,0.0,0.0,0.0,0.0,0.0,0.0,0.0,0.0,0.0,0.0,0.0,4.8844,4.9223,4.9666,4.9396,5.005,5.108,5.1946,5.2666,5.3253,5.3804,5.3184,5.277,5.3736,5.377,5.4115,5.5632,5.6667,5.7702,5.884,5.9012,5.9288,6.0082,6.0703,6.1392,6.2358,6.2979,6.3393,6.3565,6.36,6.36,6.36,6.36,6.36,6.3526,6.3526,6.3414,6.3152,6.3152,6.2962,6.2615,6.2615,6.2615,6.2615,6.2459,6.2381,6.2381,6.2381,6.2381,6.2381,6.2381,6.2381,6.2313,6.14,6.0655,6.0013,5.9099,5.8389,5.7881,5.7881,5.7881,5.7881,0.0,0.0,0.0,0.0,0.0,0.0,0.0,0.0,0.0,0.0,0.0,0.0,0.0,0.0,0.0,0.0,0.0,0.0,0.0,0.0,5.2417,5.3167,5.3203,5.2858,5.2087,5.2013,5.161,5.0875,5.0839,5.0802,5.0839,5.161,5.2013,5.2123,5.2858,5.3203,5.3203,5.3203,5.3203,5.3203,0.0,0.0,0.0,0.0,0.0,0.0,0.0,0.0,0.0,0.0,0.0,0.0,0.0,0.0,4.9769,4.9016,4.8844,4.9189,5.0533,5.0528,5.0424,5.1843,5.2222,5.2843,5.4977,5.4356,5.3736,5.515,5.4908,5.4908,5.6426,5.7874,5.8875,5.8978,5.9012,5.9288,6.0082,6.0254,6.084,6.2324,6.253,6.2841,6.3531,6.36,6.36,6.36,6.36,6.3526,6.334,6.3302,6.3152,6.2765,6.2731,6.2615,6.242,6.242,6.242,6.242,6.2381,6.2381,6.2381,6.2381,6.2381,6.2381,6.2381,6.2381,6.2279,6.0791,6.0148,5.9945,5.8524,5.7949,5.7881,5.7881,5.7881,5.7881,0.0,0.0,0.0,0.0,0.0,0.0,0.0,0.0,0.0,0.0,0.0,0.0,0.0,0.0,0.0,0.0,0.0,0.0,0.0,5.172,5.2344,5.3167,5.3203,5.2821,5.2013,5.1499,5.0839,5.0031,5.0545,5.1059,5.1573,5.238,5.2747,5.2747,5.3078,5.3203,5.3203,5.3203,5.3203,5.3182,5.2828,0.0,0.0,0.0,0.0,0.0,0.0,0.0,0.0,0.0,4.9826,4.8596,4.8741,4.8361,4.7941,4.8051,4.812,4.8224,4.881,4.9493,5.0149,5.07,5.1498,5.267,5.4529,5.4494,5.4529,5.6046,5.6115,5.6253,5.7288,5.8323,5.9012,5.9012,5.9012,5.9116,5.9426,5.9875,6.0427,6.0978,6.191,6.2599,6.2875,6.3324,6.36,6.36,6.3489,6.3377,6.3302,6.3189,6.3,6.2727,6.2727,6.2576,6.2381,6.2381,6.2381,6.2381,6.2381,6.2381,6.2381,6.2381,6.2381,6.2347,6.1907,6.1704,6.1637,6.0554,5.9844,5.937,5.8795,5.8592,5.8592,5.8592,5.8287,5.7949,0.0,0.0,0.0,0.0,0.0,0.0,0.0,0.0,0.0,0.0,0.0,0.0,0.0,0.0,0.0,0.0,0.0,0.0,4.9958,5.0765,5.172,5.2784,5.2821,5.2564,5.2013,5.1206,5.0545,4.9978,5.0765,5.1573,5.238,5.2931,5.3203,5.3203,5.3203,5.3203,5.3203,5.3203,5.3203,5.3124,5.2627,5.2627,0.0,0.0,0.0,0.0,0.0,0.0,0.0,0.0,4.959,4.8459,4.843,4.7913,4.732,4.7355,4.7527,4.7741,4.7982,4.8838,4.9735,5.0252,5.1114,5.236,5.4391,5.4874,5.5357,5.715,5.7495,5.7598,5.784,5.8495,5.9012,5.9012,5.9012,5.9012,5.9012,5.9461,5.9909,6.0151,6.1116,6.1841,6.201,6.2492,6.2869,6.3036,6.2959,6.2912,6.3114,6.2962,6.2808,6.2576,6.261,6.2537,6.2381,6.2381,6.2381,6.2381,6.2381,6.2381,6.2381,6.2381,6.2245,6.2009,6.1535,6.1298,6.1231,6.0419,5.9674,5.9032,5.9032,5.9032,5.9032,5.9032,5.8829,5.866,0.0,0.0,0.0,0.0,0.0,0.0,0.0,0.0,0.0,0.0,0.0,0.0,0.0,0.0,0.0,0.0,0.0,0.0,4.8306,4.9114,5.0308,5.1903,5.1977,5.1977,5.2013,5.1242,5.0839,5.0802,5.161,5.2417,5.3203,5.3167,5.3167,5.3203,5.3167,5.3167,5.3203,5.3203,5.3203,5.3161,5.2627,5.2408,0.0,0.0,0.0,0.0,0.0,0.0,0.0,0.0,5.0011,4.9735,4.8189,4.8189,4.8499,4.7052,4.7148,4.7844,4.8568,4.8775,4.9154,5.0671,5.1114,5.1942,5.4911,5.5598,5.6253,5.853,5.9012,5.8806,5.8047,5.853,5.9012,5.9012,5.9012,5.9012,5.9012,5.9012,5.9288,6.0082,6.0185,6.0391,6.0935,6.0968,6.1238,6.1841,6.1872,6.2139,6.2659,6.2693,6.261,6.2381,6.2381,6.2381,6.2381,6.2381,6.2381,6.2381,6.2381,6.2381,6.2381,6.2381,6.2009,6.1298,6.1298,6.1298,6.1231,6.0419,5.9674,5.9032,5.9032,5.9032,5.9032,5.9032,5.9471,6.0114,0.0,0.0,0.0,0.0,0.0,0.0,0.0,0.0,0.0,0.0,0.0,0.0,0.0,0.0,0.0,0.0,0.0,0.0,4.8306,4.9114,5.0088,5.1096,5.1683,5.227,5.2821,5.2601,5.194,5.0802,5.1059,5.1867,5.3188,5.2637,5.2674,5.3167,5.2601,5.2674,5.3203,5.3203,5.2995,5.2627,5.2454,5.2408,0.0,0.0,0.0,0.0,0.0,0.0,0.0,0.0,0.0,0.0,4.8489,4.8552,4.8706,4.8145,4.7773,4.7629,4.792,4.834,4.877,4.9217,5.1438,5.3842,5.5161,5.5535,5.6253,5.853,5.9012,5.8944,5.8737,5.8772,5.8909,5.8978,5.8944,5.8909,5.8978,5.8944,5.8943,5.9219,5.9525,5.983,5.9999,6.0513,6.0957,6.1123,6.1487,6.1749,6.1911,6.2305,6.2459,6.2381,6.2381,6.2381,6.2381,6.2381,6.2381,6.2381,6.2381,6.2381,6.2381,6.2381,6.2009,6.1298,6.1298,6.0994,6.0452,6.0216,6.0317,6.0622,6.0622,6.0622,6.0622,6.0622,6.0419,6.0182,0.0,0.0,0.0,0.0,0.0,0.0,0.0,0.0,0.0,0.0,4.726,4.7259,0.0,0.0,0.0,0.0,0.0,0.0,0.0,4.8122,4.9114,5.0251,5.0765,5.1573,5.2711,5.2711,5.2234,5.1279,5.161,5.227,5.3167,5.238,5.227,5.2711,5.2197,5.1967,5.198,5.2846,5.2601,5.1634,5.1874,5.1837,5.159,0.0,0.0,0.0,0.0,0.0,0.0,0.0,0.0,0.0,4.8741,4.8638,4.857,4.8146,4.7975,4.79,4.7986,4.8684,4.9453,4.9761,5.208,5.4617,5.5856,5.6572,5.7324,5.8634,5.8944,5.8909,5.8806,5.8736,5.8701,5.8771,5.8736,5.8701,5.8771,5.8736,5.8666,5.8666,5.8971,5.9139,5.9032,5.9511,5.985,6.0084,6.0377,6.0812,6.1456,6.1782,6.2076,6.2381,6.2381,6.2381,6.2381,6.2381,6.2381,6.2381,6.2381,6.2381,6.2381,6.2381,6.2009,6.1298,6.1298,6.1028,6.0588,6.0892,6.1129,6.1298,6.1298,6.1298,6.1298,6.1298,6.1163,6.1061,0.0,0.0,0.0,0.0,0.0,0.0,0.0,0.0,0.0,0.0,4.6581,4.7003,0.0,0.0,0.0,0.0,0.0,0.0,0.0,0.0,4.7829,4.9427,4.9757,5.0602,5.2087,5.2087,5.2087,5.2087,5.2784,5.3151,5.3167,5.2307,5.194,5.1977,5.183,5.1125,5.0119,5.2075,5.1846,5.0278,5.0926,5.0823,5.0223,4.9682,0.0,0.0,0.0,0.0,0.0,0.0,0.0,0.0,4.886,4.8631,4.8446,4.7631,4.7904,4.848,4.848,4.9441,5.067,5.1489,5.2957,5.4767,5.6953,5.8187,5.8909,5.8806,5.8771,5.8701,5.8525,5.849,5.849,5.849,5.849,5.849,5.849,5.849,5.849,5.849,5.8455,5.8384,5.8205,5.8171,5.8368,5.8863,5.8964,5.9641,6.1028,6.1163,6.1535,6.2279,6.2279,6.2313,6.2381,6.2381,6.2381,6.2381,6.2381,6.2381,6.2381,6.2381,6.2009,6.14,6.1332,6.1332,6.1467,6.211,6.2009,6.14,6.14,6.14,6.14,6.14,6.1806,6.2381,0.0,0.0,0.0,0.0,0.0,0.0,0.0,0.0,0.0,0.0,0.0,0.0,0.0,0.0,0.0,0.0,0.0,0.0,0.0,0.0,4.7553,4.8526,5.1059,5.2601,5.2931,5.2931,5.2931,5.2931,5.2491,5.2564,5.3167,5.172,5.1389,5.194,5.0675,5.0065,5.0025,5.0387,4.984,4.8835,4.9857,4.9616,4.8633,4.9104,4.9257,0.0,0.0,0.0,0.0,0.0,0.0,0.0,4.9146,4.9551,4.9949,4.9018,4.895,4.9116,4.9236,4.9385,4.9838,5.1199,5.3579,5.603,5.7806,5.8424,5.8596,5.8561,5.8561,5.8561,5.8525,5.8384,5.8312,5.849,5.8384,5.8348,5.849,5.8384,5.8243,5.8243,5.8099,5.7991,5.7954,5.7954,5.8022,5.8118,5.8693,5.9167,5.9505,6.0047,6.0723,6.1501,6.1535,6.1806,6.2381,6.2381,6.2381,6.2381,6.2381,6.2381,6.2381,6.2381,6.2313,6.211,6.1535,6.1637,6.2178,6.2313,6.2313,6.2144,6.2144,6.2144,6.2144,6.2144,6.2245,6.2381,0.0,0.0,0.0,0.0,0.0,0.0,0.0,0.0,0.0,0.0,0.0,0.0,0.0,0.0,0.0,0.0,0.0,0.0,0.0,4.5862,4.6898,4.8466,5.1274,5.2806,5.2806,5.2426,5.2426,5.2806,5.1768,5.1916,5.3167,5.1673,5.1201,5.1551,5.0268,4.9322,4.8745,4.9173,4.8572,4.7437,4.8513,4.8398,4.761,4.7939,4.8048,4.7992,4.7744,0.0,0.0,0.0,0.0,0.0,0.0,0.0,4.9739,4.9274,4.9141,4.9172,4.9233,4.9712,5.067,5.2941,5.4703,5.6264,5.7865,5.8207,5.8207,5.8207,5.8312,5.8348,5.8241,5.8099,5.8063,5.8205,5.8099,5.8063,5.8171,5.8099,5.8063,5.8063,5.7954,5.7881,5.7881,5.7881,5.7881,5.7881,5.8254,5.8626,5.8998,5.937,5.9945,6.0689,6.1095,6.1298,6.1298,6.167,6.167,6.1298,6.167,6.2042,6.2381,6.2381,6.2381,6.2381,6.1975,6.2042,6.2381,6.2381,6.2381,6.2381,6.2381,6.2381,6.2381,6.2381,6.2381,6.2381,0.0,0.0,0.0,0.0,0.0,0.0,0.0,0.0,0.0,0.0,0.0,0.0,0.0,0.0,0.0,0.0,0.0,0.0,0.0,4.5115,4.6504,4.8786,5.104,5.2196,5.2051,5.1388,5.1316,5.1858,5.0677,5.1035,5.2835,5.1597,5.0994,5.0958,5.0036,4.8722,4.7251,4.8126,4.7543,4.6145,4.7052,4.7105,4.6588,4.6607,4.6616,4.6616,4.6616,4.7145,4.7874,4.7874,0.0,0.0,0.0,0.0,4.8849,4.8951,4.9018,4.9052,4.9154,5.027,5.203,5.4837,5.5615,5.6055,5.7408,5.7814,5.7881,5.7881,5.8027,5.8099,5.7918,5.7881,5.7881,5.7881,5.7881,5.7881,5.7881,5.7881,5.7881,5.7881,5.7881,5.7881,5.7881,5.7881,5.7881,5.7881,5.7881,5.8152,5.8795,5.8829,5.9167,5.9877,6.0554,6.0655,6.0114,6.0757,6.0825,6.0317,6.1095,6.1806,6.2381,6.2381,6.2381,6.2381,6.2381,6.2381,6.2381,6.2381,6.2381,6.2381,6.2381,6.2381,6.2381,6.2381,6.2381,6.2381,0.0,0.0,0.0,0.0,0.0,0.0,0.0,0.0,0.0,0.0,4.5001,4.4414,4.4601,4.5108,0.0,0.0,0.0,0.0,4.3586,0.0,0.0,4.9055,5.0807,5.1379,5.0688,5.0581,5.0223,4.971,4.9068,4.9715,5.1519,5.067,5.0229,5.0229,4.9288,4.8101,4.6873,4.6891,4.6148,4.5063,4.5733,4.5546,4.5015,4.5602,4.5838,4.5838,4.5838,4.6312,4.695,4.695,4.7018,0.0,0.0,0.0,4.8142,4.8815,4.9018,4.9154,4.9763,5.1014,5.257,5.4296,5.5243,5.5919,5.6765,5.7442,5.7881,5.7881,5.7918,5.7918,5.7881,5.7881,5.7881,5.7881,5.7881,5.7881,5.7881,5.7881,5.7881,5.7881,5.7881,5.7881,5.7881,5.7881,5.7881,5.7881,5.7881,5.7915,5.8017,5.8051,5.8389,5.9133,5.9268,5.9573,6.008,6.0216,6.0554,6.1163,6.1907,6.2279,6.2381,6.2381,6.2381,6.2381,6.2381,6.2381,6.2381,6.2381,6.2381,6.2381,6.2381,6.2381,6.2381,6.2381,6.2381,6.2381,0.0,0.0,0.0,0.0,0.0,0.0,0.0,0.0,0.0,0.0,0.0,4.4161,4.3387,4.386,0.0,0.0,0.0,0.0,4.2992,4.4385,0.0,0.0,4.9008,4.9715,4.9326,4.9276,4.9074,4.872,4.7692,4.8379,5.0724,4.9973,5.0042,5.0776,4.9905,4.8568,4.6997,4.6364,4.5589,4.481,4.501,4.5128,4.5196,4.5128,4.5331,4.5669,4.5229,4.5568,4.6177,4.6177,4.6447,4.6853,4.7192,0.0,0.0,0.0,4.8376,4.8748,5.0304,5.1183,5.2164,5.4093,5.4837,5.5277,5.6021,5.6765,5.7273,5.7273,5.7611,5.7881,5.7881,5.7881,5.7881,5.7881,5.7881,5.7881,5.7881,5.7881,5.7881,5.7881,5.7881,5.7881,5.7881,5.7881,5.7881,5.7881,5.7881,5.7881,5.7881,5.7881,5.8051,5.8355,5.8795,5.8964,5.8863,5.9268,5.9674,6.0047,6.0757,6.1332,6.1806,6.2212,6.2381,6.2381,6.2381,6.2381,6.2381,6.2381,6.2381,6.2381,6.2381,6.2381,6.2381,6.2381,6.2381,6.2381,0.0,0.0,0.0,0.0,0.0,0.0,0.0,0.0,0.0,0.0,0.0,4.344,4.2313,0.0,0.0,0.0,0.0,0.0,4.244,0.0,0.0,0.0,0.0,4.8076,4.7657,4.7727,4.7648,4.7439,4.6357,4.7168,4.9734,4.9364,4.9979,5.1312,5.0464,4.9198,4.7583,4.6467,4.5721,4.5264,4.4981,4.5196,4.5669,4.5326,4.5365,4.5635,4.506,4.5094,4.5432,4.5432,4.5771,4.6244,4.6447,4.6515,0.0,0.0,0.0,4.8311,5.0371,5.0913,5.142,5.3484,5.416,5.4499,5.5243,5.5987,5.6562,5.6765,5.7239,5.7679,5.7848,5.7881,5.7881,5.7881,5.7881,5.7881,5.7881,5.7881,5.7881,5.7881,5.7881,5.7881,5.7881,5.7881,5.7881,5.7881,5.7881,5.7881,5.7881,5.7881,5.7881,5.7881,5.8423,5.8457,5.7881,5.8626,5.9032,5.9032,5.9742,6.0419,6.1028,6.1772,6.211,6.211,6.2313,6.2381,6.2381,6.2381,6.2381,6.2381,6.2381,6.2381,6.2381,6.2381,6.2381,6.2381,0.0,0.0,0.0,0.0,0.0,0.0,0.0,0.0,0.0,0.0,0.0,0.0,4.2175,4.1817,4.1569,4.1512,0.0,0.0,0.0,0.0,0.0,0.0,0.0,0.0,4.5394,4.5946,4.5864,4.5179,4.5091,4.6135,4.8239,4.8889,4.9918,5.118,5.0435,4.9656,4.8812,4.7361,4.6718,4.6646,4.594,4.5669,4.5771,4.6413,4.6278,4.5703,4.5669,4.5196,4.4682,4.4682,4.4682,4.4852,4.5534,4.5771,4.5906,0.0,0.0,0.0,4.9729,5.0135,5.0507,5.2029,5.2976,5.3754,5.4465,5.5243,5.5987,5.6664,5.6833,5.707,5.7746,5.7881,5.7881,5.7881,5.7881,5.7881,5.7881,5.7881,5.7881,5.7881,5.7881,5.7881,5.7881,5.7881,5.7881,5.7881,5.7881,5.7881,5.7881,5.7881,5.7881,5.7881,5.7915,5.7915,5.7881,5.8626,5.9032,5.9032,5.9742,6.0114,6.0182,6.0994,6.1366,6.14,6.2076,6.2381,6.2381,6.2381,6.2381,6.2381,6.2381,6.2381,6.2381,6.2381,6.2381,6.2381,0.0,0.0,0.0,0.0,0.0,0.0,0.0,0.0,0.0,0.0,0.0,0.0,0.0,4.1622,4.1401,4.114,4.1024,0.0,0.0,0.0,0.0,0.0,0.0,0.0,4.4384,4.5896,4.5846,4.4143,4.4538,4.5609,4.728,4.7552,4.8673,5.0473,5.0202,4.9424,4.8274,4.7733,4.6684,4.5461,4.6109,4.6413,4.638,4.6177,4.6515,4.6989,4.6041,4.5534,4.5297,4.5297,4.4993,4.4649,4.4891,4.4993,4.5128,4.5872,4.6955,4.8108,4.912,4.9729,5.0338,5.1352,5.2164,5.2807,5.3044,5.4093,5.5074,5.5344,5.6122,5.6867,5.7137,5.7577,5.7881,5.7881,5.7881,5.7881,5.7881,5.7881,5.7881,5.7881,5.7881,5.7881,5.7881,5.7881,5.7881,5.7881,5.7881,5.7881,5.7881,5.7881,5.7881,5.7881,5.7881,5.7881,5.7881,5.8152,5.8287,5.8287,5.9032,5.9404,5.9438,6.0723,6.1298,6.1332,6.2076,6.2381,6.2381,6.2381,6.2381,6.2381,6.2381,6.2381,6.2381,6.2381,6.2381,6.2381,0.0,0.0,0.0,0.0,0.0,0.0,0.0,0.0,4.4626,4.3396,0.0,0.0,0.0,0.0,4.1186,4.0918,4.0799,4.0752,4.0752,4.0704,0.0,0.0,0.0,0.0,4.4278,4.579,4.5846,4.4353,4.4507,4.5258,4.6447,4.6684,4.7834,4.9695,4.9187,4.8714,4.824,4.7767,4.6684,4.5427,4.6413,4.665,4.6481,4.6989,4.7327,4.7496,4.6989,4.6481,4.6075,4.6075,4.5568,4.4987,4.4987,4.4818,4.4716,4.5196,4.638,4.7699,4.8443,4.9187,4.9898,5.0642,5.1217,5.1691,5.2198,5.3078,5.3957,5.4465,5.5378,5.6224,5.6697,5.7205,5.7611,5.7848,5.7881,5.7881,5.7881,5.7881,5.7881,5.7881,5.7881,5.7881,5.7881,5.7881,5.7881,5.7881,5.7881,5.7881,5.7881,5.7881,5.7881,5.7881,5.7881,5.7881,5.7881,5.7881,5.7881,5.7881,5.8389,5.8626,5.8693,5.9945,6.0655,6.0926,6.1704,6.2178,6.2381,6.2381,6.2381,6.2381,6.2381,6.2381,6.2381,6.2381,6.2381,6.2381,0.0,0.0,0.0,0.0,0.0,0.0,0.0,0.0,4.3017,4.1754,0.0,0.0,0.0,0.0,0.0,4.0963,4.0963,4.0844,4.0603,4.0676,0.0,0.0,0.0,0.0,4.4975,4.5507,4.5737,4.5669,4.4959,4.4993,4.5703,4.638,4.753,4.8883,4.7428,4.7564,4.8815,4.7394,4.6786,4.6752,4.6786,4.638,4.6075,4.8917,4.8714,4.709,4.8477,4.8071,4.6887,4.6853,4.6346,4.5737,4.5703,4.5162,4.4581,4.4615,4.5602,4.6887,0.0,0.0,0.0,4.9895,5.0098,5.0473,5.1894,5.2266,5.2706,5.4194,5.4532,5.5006,5.6494,5.6799,5.7036,5.778,5.7881,5.7881,5.7881,5.7915,5.7915,5.7881,5.7915,5.7915,5.7881,5.7881,5.7881,5.7881,5.7881,5.7881,5.7881,5.7881,5.7881,5.7881,5.7881,5.7881,5.7881,5.7881,5.7881,5.7881,5.7881,5.7881,5.7915,5.866,5.9404,6.0148,6.096,6.1704,6.2381,6.2381,6.2381,6.2381,6.2381,6.2381,6.2381,6.2381,6.2381,6.2381,0.0,0.0,0.0,0.0,0.0,4.8463,4.7166,4.6148,4.5158,0.0,0.0,0.0,4.337,4.2896,4.2551,4.2551,4.2486,4.2377,4.2243,4.2167,4.2168,4.2244,4.4368,4.5297,4.4726,4.6409,4.6515,4.4919,4.5229,4.5229,4.4891,4.5122,4.6003,4.7361,4.6413,4.6244,4.6616,4.6752,4.6481,4.6041,4.6583,4.6989,4.7327,4.7597,4.8308,4.9154,4.9052,4.9086,4.9086,4.8578,4.7564,4.638,4.5872,4.479,4.3842,4.4445,4.4886,4.5445,4.6576,0.0,0.0,0.0,0.0,0.0,5.0608,5.1116,5.1792,5.2739,5.3416,5.4262,5.575,5.6461,5.7036,5.778,5.7881,5.7881,5.7881,5.8355,5.849,5.7949,5.8355,5.849,5.7949,5.7881,5.7881,5.7881,5.7881,5.7881,5.7881,5.7881,5.7881,5.7881,5.7881,5.7881,5.7881,5.7881,5.7881,5.7881,5.7881,5.7881,5.7915,5.866,5.9404,6.0148,6.096,6.1704,6.2381,6.2381,6.2381,6.2381,6.2381,6.2381,6.2381,6.2381,6.2381,6.2381,0.0,0.0,0.0,5.1316,5.0183,4.8883,4.7798,4.6874,4.5993,0.0,0.0,0.0,4.4371,4.3931,4.3655,4.3655,4.3219,4.3057,4.3314,4.2903,4.2799,4.3008,4.4878,4.5807,4.5614,4.712,4.7124,4.5529,4.5635,4.5331,4.4615,4.4615,4.5196,4.6312,4.5568,4.5399,4.5703,4.5805,4.5635,4.5365,4.6718,4.7327,4.7564,4.868,4.9492,5.0101,5.0304,5.0473,5.0507,5.0067,4.8748,4.7022,4.5669,4.4621,4.3944,4.4045,4.4553,4.5213,4.5952,4.6805,4.7619,4.8411,0.0,0.0,4.956,5.0202,5.0947,5.1691,5.2469,5.3382,5.4566,5.5649,5.6596,5.7306,5.7679,5.7881,5.7881,5.8524,5.8863,5.8423,5.8761,5.8964,5.8829,5.8254,5.8017,5.8355,5.8051,5.7881,5.7881,5.7881,5.7881,5.7881,5.7881,5.7881,5.7881,5.7881,5.7881,5.7881,5.7881,5.7881,5.7915,5.8355,5.893,5.9674,6.0452,6.1231,6.1941,6.2245,6.2381,6.2381,6.2381,6.2381,6.2381,6.2381,6.2381,6.2381,0.0,0.0,5.2087,5.2013,5.0305,4.8677,4.7968,4.6918,4.6028,0.0,4.5641,4.5527,4.4863,4.4656,4.4587,4.4691,4.3838,4.3546,4.4099,4.3458,4.3276,4.379,4.5224,4.6277,4.6855,4.7623,4.7631,4.6786,4.6143,4.5432,4.4716,4.4649,4.4925,4.5534,4.4891,4.4959,4.5534,4.4857,4.4649,4.4919,4.6955,4.7496,4.7394,5.0777,5.1319,5.0507,5.1826,5.1961,5.1454,5.1285,4.9864,4.7767,4.5635,4.4919,4.4654,4.3809,4.4519,4.5568,4.5654,4.6235,4.6849,4.6975,4.759,0.0,4.8883,4.956,5.027,5.0947,5.1623,5.2367,5.3315,5.4566,5.5716,5.6562,5.7306,5.7814,5.7881,5.8626,5.9099,5.9032,5.9167,5.9471,6.0047,5.8829,5.8287,5.8964,5.8321,5.7881,5.7881,5.7881,5.7881,5.7881,5.7881,5.7881,5.7881,5.7881,5.7881,5.7881,5.7881,5.7881,5.7881,5.7881,5.8287,5.9066,5.9776,6.0554,6.1366,6.2076,6.2381,6.2381,6.2381,6.2381,6.2381,6.2381,6.2381,6.2381,0.0,5.2527,5.2747,5.2087,5.0742,4.9545,4.8993,4.7357,4.665,4.7919,4.81,4.8086,4.7941,4.6872,4.6389,4.6975,4.6328,4.5814,4.5672,4.5535,4.5124,4.4467,4.5828,4.6438,4.5935,4.78,4.8139,4.6786,4.665,4.621,4.5466,4.4857,4.4682,4.4818,4.4682,4.4682,4.4818,4.4682,4.4925,4.5568,4.6583,4.7631,4.8714,5.0033,5.1082,5.1894,5.2198,5.2638,5.2875,5.1623,5.0541,4.939,4.7767,4.6853,4.6109,4.4756,4.4581,4.493,4.5321,4.6101,4.7068,4.814,4.904,0.0,4.912,4.956,5.0135,5.027,5.0439,5.115,5.3145,5.3754,5.4363,5.5716,5.6528,5.7205,5.7814,5.9032,5.9674,5.9099,6.0114,6.0655,6.0148,5.9302,5.8863,5.8998,5.8321,5.7881,5.7881,5.7881,5.7881,5.7881,5.7881,5.7881,5.7881,5.7881,5.7881,5.7881,5.7881,5.7881,5.7881,5.7881,5.8287,5.9066,5.9776,6.0554,6.1366,6.2076,6.2381,6.2381,6.2381,6.2381,6.2381,6.2381,6.2381,6.2381,5.2527,5.2703,5.2762,5.2632,5.1274,5.0219,5.0196,4.8873,4.8347,4.9597,4.9872,4.9637,4.8879,4.812,4.7672,4.7672,4.7307,4.6983,4.6809,4.6433,4.5945,4.5348,4.6119,4.6499,4.6442,4.7937,4.8282,4.7446,4.7073,4.6501,4.5703,4.4925,4.4615,4.4615,4.4615,4.4615,4.4615,4.4615,4.479,4.5297,4.7158,4.8545,4.9695,5.1217,5.2266,5.2909,5.2909,5.3179,5.3213,5.1285,5.0405,4.983,4.8376,4.7665,4.7124,4.6007,4.5698,4.5586,4.5138,4.5314,4.6026,4.7431,4.8107,0.0,0.0,4.9289,4.956,4.956,4.983,5.0439,5.1589,5.2401,5.3281,5.4431,5.5547,5.6393,5.6765,5.8389,5.9438,5.9066,6.0013,6.0554,6.0148,5.9438,5.8863,5.849,5.8084,5.7881,5.7881,5.7881,5.7881,5.7881,5.7881,5.7881,5.7881,5.7881,5.7881,5.7881,5.7881,5.7881,5.7881,5.7881,5.8084,5.8524,5.9607,6.0317,6.0791,6.1907,6.2381,6.2381,6.2381,6.2381,6.2381,6.2381,6.2381,6.2381,5.3004,5.285,5.2621,5.2941,5.1542,5.0533,5.0971,5.0008,4.9528,5.0445,5.0887,5.07,4.9568,4.9327,4.912,4.8838,4.8311,4.802,4.8163,4.7271,4.6597,4.6321,4.6405,4.6713,4.7216,4.7972,4.826,4.8107,4.733,4.6598,4.5906,4.4993,4.4682,4.4818,4.4682,4.4682,4.4818,4.4682,4.4852,4.5461,4.797,4.9187,4.9729,5.2131,5.3078,5.3112,5.3382,5.3518,5.3213,5.1183,5.0507,5.0236,4.8646,4.8311,4.8311,4.7124,4.6989,4.6921,4.5602,4.5359,4.5703,4.6921,4.7428,4.7868,0.0,0.0,0.0,4.9052,4.9593,5.0101,5.0101,5.1183,5.2367,5.3145,5.4397,5.5344,5.548,5.7273,5.866,5.8795,5.9573,6.0114,6.0114,5.9438,5.8693,5.7949,5.7881,5.7881,5.7881,5.7881,5.7881,5.7881,5.7881,5.7881,5.7881,5.7881,5.7881,5.7881,5.7881,5.7881,5.7881,5.7881,5.7983,5.8186,5.9505,6.0182,6.0452,6.1806,6.2381,6.2381,6.2381,6.2381,6.2381,6.2381,6.2381,6.2381,5.2873,5.3124,5.2904,5.227,5.118,5.0412,5.0497,4.9021,4.8439,4.989,5.0661,5.1287,5.174,5.1222,5.1356,5.2632,5.0878,4.9923,5.0493,4.9159,4.8003,4.7204,4.7142,4.7176,4.7307,4.7822,4.8107,4.8107,4.7213,4.6781,4.6616,4.5258,4.4925,4.5534,4.4891,4.4959,4.5534,4.4857,4.5737,4.7631,4.8612,4.8274,4.7496,5.0371,5.1455,5.1657,5.301,5.3518,5.3348,5.2367,5.2063,5.1691,4.956,4.9796,5.0304,4.7597,4.7733,4.8578,4.7767,4.8003,4.8545,4.8714,4.9729,5.0405,4.9255,0.0,4.9796,4.912,0.0,5.0101,5.0101,0.0,0.0,5.2334,5.3179,5.3991,5.4634,5.6055,5.7306,5.7949,5.9235,6.0114,6.0114,5.9438,5.8693,5.7949,5.7881,5.7881,5.7881,5.7881,5.7881,5.7881,5.7881,5.7881,5.7881,5.7881,5.7881,5.7881,5.7881,5.7881,5.7881,5.7881,5.8254,5.893,5.9742,6.052,6.1231,6.2042,6.2381,6.2381,6.2381,6.2381,6.2381,6.2381,6.2381,6.2381,5.2076,5.1787,5.1618,5.1749,5.1126,5.0619,5.0654,5.0865,5.0942,5.0666,5.208,5.3046,5.2908,5.2632,5.2528,5.2701,5.2252,5.1533,5.044,4.9786,4.9034,4.822,4.7745,4.7505,4.7533,4.8169,4.8401,4.8289,4.7481,4.699,4.6752,4.5292,4.4784,4.506,4.5196,4.5399,4.5703,4.5365,4.5771,4.6684,4.7428,4.7361,4.7225,5.1082,5.2536,5.2638,5.3281,5.3518,5.3315,5.2097,5.1657,5.1522,5.0574,5.0405,5.0304,4.9086,4.8849,4.8849,4.8075,4.8139,4.8578,4.9424,4.9796,4.9864,4.9695,4.956,4.9357,4.9052,0.0,0.0,0.0,0.0,0.0,0.0,5.2706,5.3619,5.3923,5.5243,5.6461,5.7171,5.8186,5.8829,5.8829,5.8524,5.822,5.7915,5.7881,5.7881,5.7881,5.7881,5.7881,5.7881,5.7881,5.7881,5.7881,5.7881,5.7881,5.7881,5.7881,5.7881,5.7881,5.7881,5.8051,5.8389,5.9133,5.9911,6.0655,6.1434,6.2009,6.2381,6.2381,6.2381,6.2381,6.2381,6.2381,6.2381,5.1171,5.0964,5.1119,5.1692,5.1244,5.0819,5.0864,5.1933,5.2528,5.1839,5.3184,5.4149,5.4011,5.4011,5.3942,5.3804,5.3908,5.3322,5.1666,5.0942,5.0355,4.974,4.8603,4.8189,4.8603,4.8506,4.8564,4.8773,4.7786,4.7237,4.7115,4.5654,4.5049,4.5224,4.5534,4.594,4.6312,4.6312,4.665,4.7259,4.78,4.8274,4.8951,5.1792,5.3145,5.3518,5.3518,5.3518,5.3315,5.1961,5.1522,5.1488,5.1285,5.098,5.0642,5.0439,5.0168,4.9796,4.9255,4.9089,4.9323,5.0168,4.9999,4.9661,4.9763,4.9526,4.9289,4.9289,5.0202,0.0,0.0,0.0,5.2063,5.186,0.0,5.3518,5.3518,5.46,5.5615,5.6122,5.7036,5.7679,5.7881,5.7881,5.7881,5.7881,5.7881,5.7881,5.7881,5.7881,5.7881,5.7881,5.7881,5.7881,5.7881,5.7881,5.7881,5.7881,5.7881,5.7881,5.7881,5.7881,5.8017,5.822,5.8795,5.9539,6.0486,6.1061,6.1738,6.2381,6.2381,6.2381,6.2381,6.2381,6.2381,6.2381,5.0378,5.1478,5.2325,5.2361,5.15,5.0864,5.106,5.1149,5.1701,5.3149,5.3391,5.3977,5.5391,5.5529,5.6115,5.7598,5.6391,5.5497,5.546,5.3325,5.2119,5.2084,4.9947,4.9465,5.0976,4.873,4.8232,4.9674,4.7991,4.7505,4.8039,4.6572,4.618,4.6684,4.6007,4.6515,4.7804,4.7804,4.9055,5.1016,5.1082,5.1961,5.3145,5.1792,5.2198,5.3518,5.3518,5.3518,5.3382,5.2536,5.2266,5.2131,5.1454,5.1691,5.2097,5.1386,5.1657,5.2198,5.2164,5.2164,5.1995,5.1352,5.1151,5.0777,4.9357,4.956,5.0067,5.0067,5.1826,5.3145,5.2334,5.345,5.4262,5.3551,5.3484,0.0,0.0,5.416,5.4634,5.4668,5.5953,5.7103,5.7814,5.7881,5.7881,5.7881,5.7881,5.7881,5.7881,5.7881,5.7881,5.7881,5.7881,5.7881,5.7881,5.7881,5.7881,5.7881,5.7881,5.7881,5.7881,5.7881,5.8287,5.8998,5.8998,5.9877,6.1264,6.1298,6.1738,6.2381,6.2381,6.2381,6.2381,6.2381,6.2381,6.2341,5.1775,5.179,5.1651,5.0937,5.0803,5.0864,5.1065,5.1977,5.2977,5.4011,5.5012,5.6046,5.7012,5.7116,5.7322,5.7874,5.7426,5.6702,5.5667,5.4425,5.3529,5.3011,5.177,5.0843,5.039,5.0056,4.9555,4.8987,4.7935,4.7683,4.8285,4.6749,4.6141,4.6357,4.6481,4.7102,4.8022,4.7932,4.8917,5.0507,5.1014,5.2435,5.4126,5.3112,5.3044,5.3518,5.3518,5.3518,5.3551,5.3754,5.3145,5.2435,5.3213,5.2604,5.1623,5.186,5.1758,5.1691,5.2164,5.2706,5.2909,5.2131,5.1589,5.0947,4.9965,4.9898,5.0101,5.0101,5.23,5.3822,5.2536,5.3957,5.4938,5.3721,5.3923,5.4059,0.0,5.3721,5.4059,5.4532,5.5886,5.6528,5.5784,5.7036,5.7679,5.7205,5.8084,5.8423,5.7915,5.8355,5.8389,5.7915,5.7881,5.7881,5.7881,5.7881,5.7881,5.7881,5.7881,5.7881,5.7881,5.7881,5.8017,5.8254,5.8254,5.9133,6.052,6.052,6.1264,6.2381,6.2381,6.2381,6.2381,6.2189,6.215,6.211,5.2641,5.2254,5.1615,5.046,5.0641,5.103,5.145,5.2804,5.408,5.4805,5.6012,5.7081,5.784,5.7909,5.8012,5.8288,5.8288,5.7667,5.615,5.5598,5.4977,5.4218,5.3184,5.2321,5.1632,5.1287,5.0573,4.9487,4.8764,4.8541,4.8841,4.7301,4.6554,4.6498,4.6624,4.7355,4.8519,4.87,4.9958,5.1856,5.2602,5.3754,5.4938,5.4465,5.4296,5.4296,5.4296,5.4296,5.4363,5.4837,5.4329,5.3687,5.4668,5.3788,5.2503,5.2976,5.2604,5.2198,5.2909,5.3484,5.3754,5.3247,5.2773,5.2131,5.1116,5.1082,5.1319,5.1319,5.3281,5.4769,5.4025,5.5108,5.5716,5.4499,5.4465,5.4329,0.0,5.3518,5.3687,5.416,5.5277,5.5852,5.5412,5.6427,5.7137,5.7171,5.8084,5.8524,5.8287,5.8761,5.8795,5.8321,5.8017,5.7881,5.7881,5.7881,5.7881,5.7881,5.7881,5.7881,5.7881,5.7881,5.7881,5.7881,5.7881,5.8727,6.0114,6.0114,6.0955,6.2302,6.2341,6.2302,6.2144,6.215,6.207,6.1837,5.2967,5.2763,5.228,5.1076,5.1008,5.1356,5.2119,5.3529,5.4736,5.5563,5.6357,5.715,5.7874,5.7943,5.8254,5.8944,5.9012,5.8426,5.7012,5.6874,5.6529,5.577,5.4356,5.3873,5.4563,5.2425,5.1252,5.1218,5.0424,4.9923,4.9742,4.8232,4.7426,4.725,4.6532,4.7369,4.9331,5.0079,5.2119,5.4975,5.5689,5.5891,5.5749,5.5749,5.5784,5.5818,5.575,5.5681,5.5716,5.575,5.5715,5.5716,5.575,5.5243,5.4634,5.4634,5.416,5.3754,5.4465,5.4668,5.4702,5.4668,5.4634,5.4194,5.2739,5.301,5.3551,5.3551,5.4769,5.6021,5.6596,5.6731,5.6494,5.5716,5.5006,5.4296,5.3551,5.3484,5.3484,5.345,5.4093,5.5108,5.6494,5.6089,5.6292,5.7679,5.7848,5.822,5.8964,5.9032,5.9032,5.9032,5.8287,5.7881,5.7881,5.7881,5.7881,5.7881,5.7881,5.7881,5.7881,5.7881,5.7881,5.7881,5.7881,5.8727,6.0114,6.0114,6.0844,6.2037,6.2302,6.2104,6.175,6.2183,6.2064,6.1669,5.3703,5.2936,5.2253,5.1904,5.141,5.1563,5.2908,5.3425,5.4356,5.6253,5.715,5.7909,5.8633,5.8737,5.8806,5.8978,5.9012,5.884,5.8461,5.7909,5.7529,5.7322,5.6426,5.5736,5.5357,5.4218,5.3356,5.2804,5.0942,5.0257,5.071,4.8643,4.7926,4.8386,4.8066,4.8866,5.0416,5.111,5.2725,5.4873,5.5689,5.6196,5.6528,5.6528,5.6867,5.7171,5.6089,5.5681,5.5749,5.6325,5.6156,5.5818,5.6359,5.6021,5.5446,5.5446,5.531,5.5209,5.5378,5.5818,5.6089,5.5547,5.5006,5.4499,5.4093,5.416,5.4329,5.4329,5.5919,5.6867,5.5412,5.5615,5.5581,5.4296,5.3923,5.3518,5.2706,5.3112,5.3281,5.2672,5.3315,5.3923,5.4329,5.5175,5.5886,5.6258,5.7273,5.822,5.8964,5.9032,5.9032,5.9032,5.8287,5.7881,5.7881,5.7881,5.7881,5.7881,5.7881,5.7881,5.7881,5.7881,5.7881,5.7881,5.7881,5.8727,6.0114,6.0114,6.0955,6.2268,6.215,6.1951,6.1709,6.1669,6.1588,6.1424,5.5026,5.4262,5.367,5.367,5.3325,5.3253,5.3804,5.4149,5.4943,5.6598,5.746,5.8081,5.8495,5.8806,5.9012,5.9012,5.9012,5.8875,5.8564,5.8426,5.8254,5.7909,5.7495,5.7081,5.6633,5.5563,5.4632,5.3873,5.1942,5.1011,5.108,4.9114,4.8396,4.881,4.8724,4.932,5.0463,5.2498,5.415,5.5485,5.6644,5.722,0.0,5.7309,5.7543,5.778,5.6968,5.6664,5.6731,5.7137,5.7002,5.6731,5.7137,5.6765,5.619,5.619,5.5953,5.5749,5.6089,5.6494,5.6799,5.6697,5.6359,5.5953,5.5649,5.5547,5.5547,5.5547,5.6562,5.7036,5.5784,5.5649,5.5243,5.3754,5.3788,5.3721,5.2942,5.3213,5.3348,5.2875,5.3213,5.3518,5.3518,5.4532,5.548,5.6156,5.7239,5.822,5.8964,5.9336,5.9336,5.9032,5.8592,5.822,5.7881,5.7881,5.7881,5.7881,5.7881,5.7881,5.7881,5.7881,5.7881,5.7915,5.8254,5.9032,6.0148,6.0486,6.126,6.2189,6.187,6.1756,6.179,6.1417,6.1301,6.1342,5.6514,5.6034,5.577,5.577,5.5839,5.5736,5.5184,5.5563,5.6184,5.6978,5.784,5.8357,5.8357,5.8944,5.9323,5.9323,5.9219,5.8909,5.8254,5.8702,5.8737,5.8081,5.8047,5.8047,5.8047,5.6633,5.5563,5.4805,5.3184,5.1977,5.1218,4.9568,4.8844,4.8947,4.8947,4.9407,5.0424,5.3928,5.5752,5.6372,5.791,5.8419,5.8171,5.7991,5.7918,5.7881,5.7881,5.7881,5.7881,5.7881,5.7881,5.7881,5.7881,5.7442,5.6934,5.6934,5.6494,5.6156,5.6765,5.6934,5.7103,5.7712,5.7881,5.7712,5.7103,5.6934,5.6934,5.6934,5.6934,5.6867,5.6562,5.5818,5.4803,5.3416,5.3923,5.4194,5.345,5.3518,5.3585,5.3382,5.3518,0.0,5.3382,5.4025,5.5074,5.6562,5.7239,5.8017,5.8964,5.9607,5.9674,5.9032,5.9032,5.866,5.7881,5.7881,5.7881,5.7881,5.7881,5.7881,5.7881,5.7881,5.7881,5.7915,5.8693,5.9438,6.0148,6.0921,6.1509,6.1877,6.1588,6.1628,6.1797,6.1293,6.121,6.1334,5.6931,5.6658,5.6598,5.6598,5.7081,5.7667,5.815,5.7805,5.7771,5.853,5.984,6.0703,6.0703,6.084,6.0909,6.0909,6.0358,5.9944,5.9806,5.9323,5.8944,5.8806,5.8806,5.8806,5.8806,5.7943,5.715,5.6391,5.4253,5.2804,5.1946,4.9809,4.9154,4.9804,4.9804,5.0878,5.2877,5.4741,5.5917,5.6575,5.8153,5.8525,5.8205,5.8135,5.8027,5.7881,5.7881,5.7881,5.7881,5.7881,5.7881,5.7881,5.7881,5.7814,5.7712,5.7712,5.7611,5.7543,5.7679,5.7712,5.7712,5.7848,5.7881,5.7848,5.7712,5.7712,5.7712,5.7712,5.7712,5.7137,5.531,5.3822,5.2604,5.1726,5.2773,5.3416,5.2638,5.3619,5.3923,5.2672,5.3619,5.389,5.2638,5.3247,5.4296,5.5784,5.6021,5.6934,5.893,5.9133,5.9133,5.9032,5.9032,5.866,5.7881,5.7881,5.7881,5.7881,5.7881,5.7881,5.7881,5.7881,5.7881,5.7915,5.8693,5.9438,6.0148,6.0733,6.1199,6.1506,6.1588,6.1499,6.1252,6.1161,6.1119,6.1127,5.8494,5.821,5.7943,5.7943,5.8599,5.9219,5.9564,6.0013,6.0116,5.9668,6.0289,6.0737,6.0737,6.1082,6.1289,6.1289,6.0978,6.0771,6.0771,6.0047,5.9633,5.9633,5.9219,5.9012,5.9012,5.8288,5.7529,5.6805,5.4908,5.3356,5.2153,5.0671,5.0011,5.0011,5.0424,5.1839,5.4046,5.515,5.6222,5.7327,5.8255,5.8525,5.8348,5.8099,5.7991,5.7881,5.7881,5.7881,5.7881,5.7881,5.7881,5.7881,5.7881,5.7881,5.7881,5.7881,5.7881,5.7881,5.7881,5.7881,5.7881,5.7881,5.7881,5.7881,5.7881,5.7881,5.7881,5.7881,5.7881,5.734,5.5513,5.4871,5.4262,5.3145,5.3923,5.4363,5.3585,5.4126,5.416,5.3078,5.3923,5.4296,5.3551,5.3822,5.4532,5.5649,5.6427,5.7306,5.8355,5.8795,5.9032,5.9032,5.9032,5.8829,5.849,5.8084,5.7881,5.7881,5.7881,5.7881,5.7881,5.7881,5.8084,5.8524,5.9268,5.9937,6.0565,6.111,6.1415,6.1547,6.1547,6.1458,6.1252,6.1252,6.1252,6.1252,5.9881,5.9628,5.9323,5.9461,6.0151,6.0703,6.0703,6.1841,6.222,6.0875,6.084,6.0909,6.0909,6.1427,6.1806,6.1806,6.1634,6.1565,6.1565,6.084,6.0427,6.0427,5.9668,5.9254,5.9254,5.853,5.7771,5.7047,5.5495,5.4046,5.2701,5.1597,5.0804,5.0287,5.1011,5.2528,5.4563,5.5495,5.6667,5.7944,5.8427,5.8596,5.8525,5.8135,5.7991,5.7954,5.7918,5.7881,5.7881,5.7881,5.7881,5.7881,5.7881,5.7881,5.7881,5.7881,5.7881,5.7881,5.7881,5.7881,5.7881,5.7881,5.7881,5.7881,5.7881,5.7881,5.7881,5.7881,5.778,5.7306,5.6156,5.6427,5.6325,5.4837,5.5344,5.5615,5.4735,5.4871,5.4803,5.4059,5.4499,5.4769,5.46,5.46,5.4905,5.5649,5.6934,5.7712,5.7881,5.8592,5.893,5.8795,5.893,5.893,5.8795,5.8186,5.7881,5.7881,5.7881,5.7881,5.7881,5.8051,5.8457,5.9066,5.9979,6.0642,6.1189,6.1675,6.175,6.1628,6.1506,6.1383,6.1334,6.1334,6.1342,6.1383,6.0013,6.0116,6.0289,6.0978,6.1737,6.2255,6.2255,6.2944,6.3186,6.2393,6.2875,6.3289,6.3289,6.3324,6.3393,6.3393,6.2772,6.2393,6.2393,6.1634,6.1185,6.1185,6.0496,6.0082,6.0082,5.9323,5.8564,5.7805,5.6253,5.5081,5.4253,5.2114,5.108,5.1045,5.177,5.3011,5.4598,5.6081,5.715,5.7978,5.8668,5.8875,5.877,5.8525,5.8348,5.8169,5.7954,5.7881,5.7881,5.7881,5.7881,5.7881,5.7881,5.7881,5.7881,5.7881,5.7881,5.7881,5.7881,5.7881,5.7881,5.7881,5.7881,5.7881,5.7881,5.7881,5.7881,5.7881,5.7374,5.6867,5.6731,5.6765,5.6325,5.4837,5.5784,5.6224,5.4803,5.575,5.6325,5.5546,5.5581,5.5344,5.4668,5.46,5.4905,5.5649,5.6461,5.7205,5.7848,5.8592,5.8693,5.8017,5.866,5.8693,5.8017,5.7915,5.7881,5.7881,5.7881,5.7881,5.7915,5.8592,5.893,5.9099,6.0554,6.1452,6.1896,6.2229,6.1984,6.1424,6.1588,6.1458,6.1161,6.1161,6.1252,6.1383,6.0806,6.0875,6.1116,6.1875,6.2289,6.2634,6.3082,6.3393,6.3496,6.3186,6.3427,6.36,6.36,6.36,6.36,6.36,6.3324,6.3151,6.3151,6.2427,6.2013,6.2013,6.1289,6.0634,6.022,5.9875,5.9116,5.7909,5.684,5.5701,5.4494,5.3598,5.3149,5.3184,5.3908,5.4874,5.5943,5.7012,5.7909,5.8565,5.8772,5.884,5.8736,5.8455,5.8277,5.8171,5.7954,5.7881,5.7881,5.7881,5.7881,5.7881,5.7881,5.7881,5.7881,5.7881,5.7881,5.7881,5.7881,5.7881,5.7881,5.7881,5.7881,5.7881,5.7881,5.7881,5.7881,5.7881,5.7645,5.7306,5.6867,5.7543,5.778,5.6731,5.7442,5.7915,5.734,5.7374,5.7171,5.6461,5.5987,5.5546,5.531,5.4871,5.5074,5.6292,5.663,5.7137,5.7848,5.8186,5.8423,5.8558,5.8423,5.8423,5.8558,5.8118,5.7881,5.7881,5.7881,5.7881,5.7915,5.866,5.9505,6.0414,6.1195,6.1721,6.1997,6.187,6.1628,6.1383,6.1506,6.1375,6.1119,6.1252,6.1417,6.1588,6.1599,6.1634,6.191,6.2668,6.2806,6.2979,6.3531,6.36,6.36,6.36,6.36,6.36,6.36,6.36,6.36,6.36,6.36,6.36,6.36,6.3082,6.2806,6.2806,6.2048,6.1392,6.0875,6.0634,5.9875,5.8564,5.784,5.6771,5.5495,5.5046,5.4839,5.4874,5.5632,5.6391,5.7185,5.7909,5.853,5.8978,5.8909,5.8875,5.8806,5.8455,5.8312,5.8243,5.7991,5.7881,5.7881,5.7881,5.7881,5.7881,5.7881,5.7881,5.7881,5.7881,5.7881,5.7881,5.7881,5.7881,5.7881,5.7881,5.7881,5.7881,5.7881,5.7881,5.7881,5.7881,5.7881,5.7814,5.7509,5.8321,5.8761,5.8017,5.8524,5.8863,5.8423,5.8084,5.7611,5.69,5.6156,5.5547,5.5108,5.4769,5.4938,5.5784,5.6427,5.7036,5.7543,5.778,5.8051,5.8355,5.8051,5.8152,5.8693,5.8152,5.7881,5.7881,5.8118,5.822,5.8254,5.9235,6.0347,6.152,6.1715,6.187,6.1877,6.1669,6.1547,6.1506,6.1547,6.1424,6.1293,6.1424,6.1628,6.183,6.2324,6.2461,6.2703,6.3462,6.3565,6.3565,6.36,6.36,6.36,6.36,6.36,6.36,6.36,6.36,6.36,6.36,6.36,6.36,6.36,6.36,6.3565,6.3565,6.2875,6.2461,6.2461,6.1703,6.0909,6.0185,5.9392,5.8599,5.784,5.6322,5.5598,5.5632,5.6426,5.7219,5.7943,5.8668,5.9012,5.9012,5.9012,5.9012,5.8944,5.8631,5.849,5.8455,5.8027,5.7881,5.7881,5.7881,5.7881,5.7881,5.7881,5.7881,5.7881,5.7881,5.7881,5.7881,5.7881,5.7881,5.7881,5.7881,5.7881,5.7881,5.7881,5.7881,5.7881,5.7881,5.7881,5.8118,5.8863,5.8998,5.8761,5.8017,5.8524,5.849,5.7036,5.7442,5.7611,5.69,5.6156,5.5141,5.3687,5.416,5.4296,5.3585,5.5581,5.6799,5.6799,5.7476,5.7577,5.6867,5.7509,5.7881,5.7915,5.7881,5.7881,5.7915,5.866,5.8998,5.9066,6.0588,6.152,6.1963,6.1997,6.1877,6.1709,6.1917,6.1877,6.1709,6.1917,6.1877,6.1709,6.1709,6.1797,6.1997,6.3186,6.3255,6.3462,6.422,6.4358,6.4531,6.5083,6.5152,6.5152,6.5152,6.5152,6.5152,6.5152,6.422,6.36,6.36,6.36,6.36,6.36,6.36,6.36,6.36,6.3358,6.3013,6.2496,6.2255,6.1737,6.0944,5.9633,5.8633,5.7909,5.7391,5.746,5.7943,5.8185,5.8426,5.8668,5.8909,5.9012,5.9012,5.9012,5.8978,5.884,5.8596,5.8419,5.8277,5.7991,5.7881,5.7881,5.7881,5.7881,5.7881,5.7881,5.7881,5.7881,5.7881,5.7881,5.7881,5.7881,5.7881,5.7881,5.7881,5.7881,5.7881,5.7881,5.7881,5.7881,5.7881,5.8287,5.8727,5.8964,5.9404,5.9674,5.9438,5.9607,5.9607,5.9133,5.8829,5.8558,5.8355,5.6765,5.5716,5.575,5.46,5.4397,5.5649,5.5953,5.6055,5.6055,5.7712,5.8084,5.6833,5.8017,5.8423,5.7881,5.7881,5.8152,5.866,5.8896,5.9573,6.0588,6.1095,6.1553,6.1997,6.187,6.175,6.1709,6.1628,6.1628,6.1709,6.179,6.175,6.1709,6.1709,6.183,6.1991,6.4462,6.4462,6.46,6.5048,6.5152,6.5324,6.5807,6.5876,6.5876,6.5876,6.5876,6.5876,6.5876,6.5014,6.4324,6.4048,6.4014,6.391,6.36,6.36,6.36,6.36,6.36,6.3358,6.291,6.291,6.253,6.1737,6.0496,5.9633,5.9185,5.9185,5.9288,5.9461,5.9461,5.9288,5.9012,5.9012,5.9012,5.9013,5.9254,5.9322,5.9216,5.9208,5.896,5.8577,5.8395,5.8118,5.7881,5.7881,5.7881,5.7881,5.7881,5.7881,5.7881,5.7881,5.7881,5.7881,5.7881,5.7881,5.7881,5.7881,5.7881,5.7881,5.7881,5.7881,5.7881,5.7881,5.849,5.9032,5.9032,5.9404,5.9708,5.9708,5.9438,5.9268,5.9268,5.8896,5.8389,5.7848,5.6799,5.5987,5.5615,5.531,5.5378,5.5919,5.6833,5.7002,5.6156,5.7679,5.8051,5.6833,5.7949,5.8355,5.7881,5.8152,5.8558,5.9032,5.9607,6.052,6.1704,6.1704,6.1784,6.1877,6.175,6.1588,6.1499,6.1424,6.1465,6.1588,6.175,6.1797,6.183,6.1911,6.203,6.215,6.5876,6.5876,6.5911,6.5945,6.5979,6.5979,6.6014,6.6048,6.6048,6.6048,6.6048,6.6048,6.6048,6.6048,6.5704,6.4945,6.4807,6.4462,6.3703,6.3669,6.3634,6.36,6.36,6.36,6.36,6.36,6.322,6.2496,6.1737,6.1358,6.1289,6.1289,6.0944,6.0289,6.0289,5.9875,5.9185,5.9116,5.9151,5.922,5.9733,5.9935,5.9968,6.0254,5.997,5.9321,5.9137,5.8626,5.8051,5.8051,5.8051,5.8017,5.7983,5.7983,5.7949,5.7915,5.7881,5.7881,5.7881,5.7881,5.7881,5.7881,5.7881,5.7881,5.7881,5.7881,5.7881,5.7881,5.849,5.9032,5.9032,5.9032,5.9032,5.9032,5.8389,5.7881,5.7814,5.7848,5.7374,5.5953,5.6427,5.6089,5.4093,5.6258,5.7002,5.5108,5.8051,5.9066,5.707,5.7611,5.7645,5.69,5.7577,5.7949,5.7881,5.8626,5.9066,5.9201,6.0689,6.1738,6.2381,6.2381,6.2144,6.1709,6.1669,6.1458,6.1119,6.1293,6.1383,6.1465,6.1837,6.1997,6.2037,6.2302,6.2381,6.2381,6.5876,6.5876,6.6048,6.6635,6.6738,6.6911,6.7497,6.7566,6.7566,6.7566,6.7566,6.7566,6.7566,6.7566,6.7256,6.6497,6.5945,6.5255,6.4496,6.4427,6.4186,6.36,6.36,6.36,6.36,6.36,6.322,6.2496,6.2289,6.191,6.1289,6.1289,6.122,6.1047,6.1047,6.0944,6.0771,6.0594,6.0523,6.0557,6.0513,6.0435,6.0288,6.0384,6.0201,5.9919,5.9844,5.9742,5.9573,5.9573,5.9573,5.9471,5.893,5.8761,5.8626,5.8051,5.7881,5.7881,5.7881,5.7881,5.7881,5.7881,5.7881,5.7881,5.7881,5.7881,5.7881,5.7881,5.849,5.9032,5.9032,5.9032,5.9032,5.9032,5.8389,5.7679,5.7137,5.7543,5.7543,5.6664,5.7171,5.7645,5.7712,5.7306,5.7543,5.8693,5.8558,5.8423,5.849,5.866,5.8389,5.7645,5.8355,5.8457,5.7881,5.8626,5.9607,6.0791,6.1704,6.2212,6.2381,6.2189,6.1951,6.1709,6.1547,6.1334,6.1119,6.1127,6.1375,6.1628,6.175,6.1991,6.2341,6.2381,6.2381,6.2381,6.6911,6.6911,6.7014,6.7428,6.7497,6.7635,6.8049,6.8083,6.8083,6.8083,6.8083,6.8083,6.8083,6.8083,6.7945,6.7532,6.6807,6.6048,6.529,6.5255,6.491,6.4117,6.4462,6.4324,6.36,6.391,6.3738,6.2979,6.2979,6.2772,6.2358,6.2358,6.2151,6.1841,6.1841,6.1634,6.1323,6.1109,6.1,6.0998,6.1084,6.1,6.0921,6.1219,6.1037,6.0655,6.0655,6.0419,6.0114,6.0114,6.0114,6.0047,5.9641,5.9505,5.9438,5.9032,5.8423,5.7881,5.7881,5.7881,5.7881,5.7881,5.7881,5.7881,5.7881,5.7881,5.7881,5.7881,5.849,5.8896,5.8558,5.8795,5.8896,5.8558,5.8152,5.7746,5.734,5.7645,5.7611,5.69,5.7442,5.7915,5.7983,5.7881,5.8321,5.9505,5.9167,5.9066,5.9471,5.9201,5.866,5.7915,5.8287,5.8457,5.8389,5.9505,6.0655,6.1806,6.2212,6.2381,6.2381,6.215,6.1877,6.1669,6.1506,6.1293,6.1119,6.1119,6.1293,6.1588,6.1669,6.1911,6.2229,6.2341,6.2381,6.2448,6.828,6.828,6.8241,6.8123,6.8083,6.8083,6.8083,6.8083,6.8083,6.8083,6.8083,6.8083,6.8083,6.8083,6.8083,6.8083,6.7532,6.6842,6.6083,6.6048,6.5704,6.491,6.5531,6.529,6.3979,6.4427,6.4393,6.3772,6.3634,6.36,6.36,6.36,6.3255,6.2668,6.2668,6.2289,6.1634,6.1416,6.1307,6.1305,6.1544,6.1664,6.166,6.2222,6.2009,6.1467,6.1467,6.1028,6.0452,6.0452,6.0452,6.0419,6.0317,6.0283,6.025,6.0148,5.9201,5.8186,5.8084,5.7983,5.7881,5.7881,5.7881,5.7881,5.7881,5.7881,5.7881,5.7881,5.8389,5.866,5.8017,5.8423,5.8626,5.7983,5.7983,5.7983,5.7746,0.0,5.7746,5.69,5.7543,5.7814,5.7205,5.8287,5.9066,5.9167,5.9641,5.9945,5.9945,5.9471,5.8829,5.8084,5.8051,5.849,5.9336,6.0655,6.167,6.2341,6.2341,6.2341,6.2341,6.2037,6.1837,6.1669,6.1506,6.1293,6.1119,6.1119,6.1252,6.1465,6.1762,6.2038,6.2278,6.2612,6.2719,6.2821,6.9126,6.905,6.8825,6.8201,6.8083,6.8083,6.8083,6.8083,6.8083,6.8083,6.8083,6.8083,6.8083,6.8083,6.8083,6.8083,6.798,6.7601,6.6876,6.6807,6.6497,6.5738,6.5807,6.5773,6.5531,6.4979,6.4634,6.4531,6.391,6.36,6.36,6.36,6.3531,6.3427,6.3427,6.3358,6.3218,6.2847,6.2696,6.2658,6.2411,6.2251,6.2251,6.2347,6.2313,6.2212,6.2212,6.2144,6.2042,6.2042,6.2042,6.1907,6.1298,6.1129,6.0994,6.0317,5.9945,5.9607,5.8998,5.8355,5.7881,5.7881,5.7881,5.7881,5.7881,5.7881,5.7881,5.7881,5.7983,5.8017,5.7915,5.7983,5.8017,5.7915,5.8423,5.8389,5.7137,0.0,5.8321,5.6968,5.8017,5.8795,5.8693,5.8896,5.9268,5.9877,5.9471,5.9167,5.9167,5.9674,5.9607,5.8863,5.8829,5.9505,6.0926,6.1197,6.1559,6.2037,6.2037,6.2037,6.2037,6.187,6.175,6.1669,6.1506,6.1293,6.1119,6.1119,6.1334,6.1736,6.2379,6.2892,6.3356,6.4038,6.4275,6.4275,6.9849,6.9778,6.9707,6.9347,6.8975,6.8708,6.8708,6.8358,6.8083,6.8083,6.8083,6.8083,6.8083,6.8083,6.8083,6.8083,6.8083,6.7945,6.7601,6.7566,6.7256,6.6497,6.6876,6.6876,6.6497,6.5738,6.5324,6.5324,6.4565,6.4186,6.4186,6.3772,6.36,6.36,6.3489,6.3452,6.3414,6.3,6.2847,6.2808,6.2498,6.2381,6.2381,6.2381,6.2381,6.2381,6.2381,6.2381,6.2381,6.2381,6.2381,6.2347,6.2009,6.1873,6.1806,6.1434,6.0757,6.0047,5.9674,5.9336,5.8998,5.8592,5.849,5.8389,5.7983,5.7881,5.7881,5.7881,5.7881,5.7881,5.7881,5.7881,5.7881,5.7881,5.8524,5.8626,5.7543,5.8321,5.8626,5.7509,5.7983,5.8423,5.8423,5.8423,5.8727,5.9471,5.8829,5.8592,5.8998,5.9336,5.937,5.9032,5.981,6.0588,6.1298,6.167,6.1964,6.1997,6.1997,6.1957,6.183,6.1628,6.1547,6.1506,6.1334,6.1169,6.1152,6.1642,6.2024,6.2379,6.328,6.3788,6.414,6.4478,6.4613,6.4647,7.057,7.0537,7.0503,7.0334,6.9814,6.9456,6.9456,6.8975,6.8597,6.8597,6.8478,6.8358,6.8358,6.8201,6.8083,6.8083,6.8083,6.8083,6.8083,6.8083,6.7842,6.7256,6.7807,6.7842,6.7256,6.6531,6.6152,6.6152,6.5359,6.4979,6.4979,6.4356,6.4042,6.4042,6.3817,6.3741,6.3703,6.3358,6.3203,6.3164,6.2967,6.2888,6.2888,6.2719,6.2651,6.2618,6.2448,6.2381,6.2381,6.2381,6.2381,6.2381,6.2381,6.2381,6.2381,6.2381,6.1569,6.0588,6.0419,6.025,5.9979,5.9404,5.9268,5.9066,5.8321,5.8152,5.8084,5.7915,5.7881,5.7881,5.7881,5.7881,5.7881,5.7881,0.0,5.8761,5.7983,5.8524,5.8727,5.7983,5.7881,5.7881,5.7881,5.7881,5.8118,5.8693,5.8389,5.8389,5.8998,5.9336,5.9641,5.981,6.0791,6.1366,6.1535,6.2071,6.2189,6.1917,6.1877,6.1857,6.1896,6.1732,6.175,6.1916,6.1783,6.17,6.1733,6.2465,6.2916,6.3239,6.4177,6.4686,6.4884,6.5053,6.5121,6.5189,7.1453,7.1327,7.1099,7.0402,7.0266,7.0232,7.0232,7.0163,7.0128,7.0128,6.9564,6.9124,6.9124,6.8517,6.8083,6.8083,6.8083,6.8083,6.8083,6.8083,6.8083,6.8014,6.8049,6.8083,6.8014,6.729,6.6911,6.6911,6.6152,6.5807,6.5773,6.5512,6.5362,6.5362,6.5128,6.505,6.505,6.4812,6.4733,6.4733,6.4525,6.4444,6.4377,6.37,6.3429,6.3328,6.2651,6.2381,6.2381,6.2381,6.2381,6.2381,6.2381,6.2381,6.2381,6.2381,6.2313,6.2076,6.14,6.0655,6.008,6.0047,6.0013,5.9844,5.9099,5.893,5.8727,5.8017,5.7881,5.7881,5.7881,5.7881,5.7881,5.7881,0.0,0.0,5.7983,5.8524,5.8727,5.7983,5.7881,5.7881,5.7881,5.7881,5.7915,5.7983,5.8558,5.8964,5.9032,6.0351,6.1434,6.211,6.1603,6.1637,6.2313,6.2116,6.1917,6.1709,6.1547,6.1791,6.2457,6.2416,6.2782,6.3448,6.3406,6.3406,6.3406,6.3515,6.3768,6.4252,6.5026,6.5462,6.5696,6.6406,6.6643,6.6677,7.2137,7.2108,7.1981,7.1702,7.1291,7.097,7.097,7.057,7.03,7.03,7.0059,6.9884,6.9884,6.96,6.9273,6.8825,6.8787,6.8787,6.8787,6.8323,6.8083,6.8083,6.8083,6.8083,6.8083,6.7807,6.7669,6.7669,6.6945,6.6527,6.6372,6.5778,6.5421,6.5299,6.5102,6.5022,6.5022,6.4782,6.4701,6.4701,6.4654,6.4613,6.458,6.4309,6.4174,6.414,6.3869,6.3768,6.37,6.326,6.3091,6.299,6.2516,6.2381,6.2381,6.2381,6.2381,6.2347,6.2042,6.1738,6.14,6.096,6.0858,6.0655,5.9877,5.9674,5.9471,5.8727,5.8592,5.8457,5.7983,5.7881,5.7881,5.7881,0.0,5.8761,5.7983,5.8524,5.8727,5.7983,5.7881,5.7881,5.7881,5.8321,5.8592,5.8592,5.9268,5.9674,5.9674,6.0723,6.1637,6.2381,6.211,6.211,6.2381,6.2302,6.207,6.1709,6.2096,6.2257,6.2306,6.2771,6.3136,6.3401,6.3401,6.3487,6.3648,6.4209,6.4665,6.5068,6.5935,6.6323,6.644,6.6711,6.6812,6.6812,7.2496,7.2496,7.2496,7.2496,7.2108,7.1769,7.1769,7.1291,7.1002,7.1002,7.077,7.0637,7.0637,7.0436,7.0094,6.96,6.9564,6.9564,6.9564,6.8863,6.8323,6.8083,6.8083,6.8083,6.8083,6.8083,6.8083,6.8083,6.7522,6.7202,6.7044,6.6337,6.5978,6.5818,6.5617,6.5495,6.5495,6.5331,6.529,6.529,6.529,6.529,6.5256,6.5019,6.4952,6.4918,6.4681,6.4613,6.4512,6.4038,6.3869,6.3768,6.326,6.3091,6.3024,6.2821,6.2753,6.2685,6.2448,6.2381,6.2279,6.1772,6.1637,6.1434,6.0655,6.0486,6.025,5.9505,5.937,5.9201,5.866,5.8389,5.8254,5.8254,5.849,5.849,5.7949,5.8524,5.8829,5.8321,5.8457,5.8592,5.8592,5.9066,5.937,5.937,6.0047,6.0588,6.0791,6.1332,6.1873,6.2381,6.2381,6.2381,6.2381,6.2341,6.2205,6.2078,6.2498,6.2791,6.2917,6.3415,6.3736,6.3935,6.4055,6.4195,6.4443,6.5158,6.5648,6.5893,6.6525,6.6812,6.6812,6.6812,6.6812,6.6812,7.2496,7.2496,7.2496,7.2496,7.2496,7.2496,7.2496,7.2496,7.2496,7.2496,7.186,7.1422,7.1422,7.0773,7.03,7.03,7.03,7.03,7.03,6.9636,6.8863,6.8123,6.8083,6.8083,6.8083,6.8083,6.8083,6.8083,6.7919,6.7799,6.7799,6.7387,6.718,6.718,6.6896,6.6812,6.6812,6.6812,6.6812,6.6812,6.6812,6.6812,6.6745,6.5967,6.5696,6.5595,6.4884,6.4613,6.4613,6.4613,6.4613,6.4613,6.4613,6.4613,6.4478,6.3734,6.3531,6.3362,6.2618,6.2415,6.2381,6.2381,6.2381,6.2212,6.1467,6.1298,6.1095,6.0283,6.0114,6.0114,6.0114,5.9505,5.9032,5.9032,5.8389,5.7915,5.7915,5.8558,5.9032,5.9032,5.9674,6.0114,6.0114,6.0114,6.0114,6.0114,6.0858,6.1637,6.2347,6.2381,6.2381,6.2381,6.2381,6.2381,6.2381,6.215,6.228,6.2773,6.2599,6.3154,6.4365,6.4399,6.4763,6.5425,6.5692,6.5911,6.6139,6.6421,6.6635,6.6812,6.6812,6.6812,6.6812,6.6812,6.6812,6.6812,7.2496,7.2496,7.2496,7.2496,7.2496,7.2496,7.2496,7.2496,7.2496,7.2496,7.2321,7.2167,7.2167,7.1981,7.164,7.1099,7.1067,7.0872,7.0334,7.057,7.0163,6.8938,6.8397,6.8083,6.8083,6.7959,6.7919,6.7919,6.7678,6.755,6.7387,6.7263,6.7097,6.693,6.6812,6.6812,6.6812,6.6812,6.6812,6.6812,6.6812,6.6812,6.6779,6.6576,6.6474,6.644,6.6237,6.6136,6.6068,6.5527,6.5358,6.5256,6.4749,6.4613,6.4546,6.4343,6.4275,6.4241,6.4005,6.3565,6.3057,6.2516,6.2381,6.2347,6.211,6.2076,6.1839,6.1095,6.0926,6.0757,6.0216,5.9911,5.9776,5.9776,5.9573,5.9438,5.9438,5.9641,5.9776,5.9776,5.9979,6.0114,6.0114,6.0622,6.0926,6.0926,6.1637,6.2144,6.2381,6.2381,6.2381,6.2381,6.2888,6.2922,6.2381,6.2809,6.306,6.3093,6.4052,6.458,6.4627,6.5301,6.559,6.5692,6.5878,6.6172,6.6421,6.6464,6.6635,6.6812,6.6812,6.6812,6.6812,6.6812,6.6812,6.6812,7.2496,7.2496,7.2496,7.2496,7.2496,7.2496,7.2496,7.2496,7.2496,7.2496,7.2496,7.2496,7.2496,7.2496,7.2351,7.186,7.183,7.1516,7.077,7.1131,7.074,6.9237,6.8749,6.8401,6.8083,6.7919,6.7799,6.7799,6.7516,6.7304,6.718,6.7097,6.6972,6.6812,6.6812,6.6812,6.6812,6.6812,6.6812,6.6812,6.6812,6.6812,6.6812,6.6812,6.6812,6.6812,6.6812,6.6812,6.6745,6.6305,6.6136,6.6068,6.5628,6.5459,6.5425,6.5121,6.5019,6.4952,6.4681,6.4275,6.3835,6.3396,6.2821,6.2381,6.2381,6.2381,6.2245,6.1839,6.1738,6.1603,6.1095,6.0757,6.0588,6.0588,6.0317,6.0114,6.0114,6.0385,6.0588,6.0588,6.0825,6.0994,6.0994,6.1434,6.1738,6.1738,6.2144,6.2381,6.2381,6.2381,6.2516,6.2821,6.3294,6.3429,6.326,6.4005,6.412,6.3646,6.4824,6.5362,6.5287,6.5851,6.6009,6.5955,6.6172,6.6345,6.6507,6.6592,6.6686,6.6812,6.6812,6.6812,6.6812,6.6812,6.6812,6.6812,7.2496,7.2496,7.2496,7.2496,7.2496,7.2496,7.2496,7.2496,7.2496,7.2496,7.2496,7.2496,7.2496,7.2496,7.2496,7.2496,7.2496,7.2197,7.1547,7.1485,7.0839,6.9347,6.9347,6.8975,6.8083,6.7879,6.7759,6.7759,6.7346,6.7139,6.7139,6.6896,6.6812,6.6812,6.6812,6.6812,6.6812,6.6812,6.6812,6.6812,6.6812,6.6812,6.6812,6.6812,6.6812,6.6812,6.6812,6.6812,6.6812,6.6812,6.6812,6.6812,6.6812,6.6812,6.6677,6.6,6.5797,6.5628,6.4986,6.4749,6.4681,6.4681,6.3632,6.2584,6.2516,6.2448,6.2381,6.2381,6.2381,6.2381,6.2381,6.1839,6.14,6.14,6.0791,6.0317,6.0317,6.0926,6.14,6.14,6.1975,6.2381,6.2381,6.2381,6.2381,6.2381,6.2381,6.2415,6.2482,6.2482,6.2821,6.3599,6.3666,6.4005,6.458,6.5392,6.5343,6.4461,6.5169,6.5749,6.6139,6.6139,6.6139,6.6139,6.6388,6.6507,6.655,6.6728,6.6812,6.6812,6.6812,6.6812,6.6812,6.6812,6.6812,6.6812,7.2496,7.2496,7.2496,7.2496,7.2496,7.2496,7.2496,7.2496,7.2496,7.2496,7.2496,7.2496,7.2496,7.2496,7.2496,7.2496,7.2496,7.2438,7.2255,7.2255,7.1609,7.0128,7.0604,6.9954,6.7919,6.7678,6.751,6.7346,6.7022,6.6896,6.6896,6.6812,6.6812,6.6812,6.6812,6.6812,6.6812,6.6812,6.6812,6.6812,6.6812,6.6812,6.6812,6.6812,6.6812,6.6812,6.6812,6.6812,6.6812,6.6812,6.6812,6.6812,6.6812,6.6812,6.6779,6.6609,6.6576,6.6542,6.6373,6.5899,6.5459,6.5459,6.4783,6.3971,6.3396,6.2821,6.2381,6.2381,6.2381,6.2381,6.2381,6.2245,6.2144,6.2144,6.2009,6.1907,6.1907,6.2042,6.2144,6.2144,6.2279,6.2381,6.2381,6.2381,6.2381,6.2381,6.2381,6.2651,6.3226,6.326,6.3599,6.4343,6.4918,6.5019,6.4613,6.5899,6.6162,6.5377,6.612,6.6466,6.6421,6.6558,6.6558,6.6421,6.6643,6.6728,6.6728,6.677,6.6812,6.6812,6.6812,6.6812,6.6812,6.6812,6.6812,6.6812,7.2496,7.2496,7.2496,7.2496,7.2496,7.2496,7.2496,7.2496,7.2496,7.2496,7.2496,7.2496,7.2496,7.2496,7.2496,7.2496,7.2863,7.2899,7.2532,7.2496,7.1981,7.0872,7.0737,6.9954,6.8211,6.7638,6.7304,6.718,6.6896,6.6812,6.6812,6.6812,6.6812,6.6812,6.6812,6.6812,6.6812,6.6812,6.6812,6.6812,6.6812,6.6812,6.6812,6.6812,6.6812,6.6812,6.6812,6.6812,6.6812,6.6812,6.6812,6.6812,6.6812,6.6812,6.6812,6.6812,6.6812,6.6812,6.6812,6.6542,6.6203,6.6203,6.5662,6.4918,6.4208,6.3734,6.3429,6.3429,6.3159,6.2922,6.2922,6.2618,6.2381,6.2381,6.2381,6.2381,6.2381,6.2381,6.2381,6.2381,6.2381,6.2516,6.2888,6.2922,6.3057,6.3429,6.3429,6.3632,6.4005,6.4038,6.4377,6.5087,6.5493,6.5662,6.5662,6.6406,6.6609,6.6237,6.6643,6.6728,6.6677,6.6728,6.6728,6.6677,6.6728,6.6812,6.6812,6.6812,6.6812,6.6812,6.6812,6.6812,6.6812,6.6812,6.6812,6.6812,7.2496,7.2496,7.2496,7.2496,7.2496,7.2496,7.2496,7.2496,7.2496,7.2496,7.2496,7.2569,7.2679,7.2826,7.2899,7.2899,7.3523,7.3634,7.2944,7.2907,7.2509,7.1757,7.0965,7.0061,6.8983,6.8183,6.7543,6.7139,6.6896,6.6812,6.6812,6.6812,6.6812,6.6812,6.6812,6.6812,6.6812,6.6812,6.6812,6.6812,6.6812,6.6812,6.6812,6.6812,6.6812,6.6812,6.6812,6.6812,6.6812,6.6812,6.6812,6.6812,6.6812,6.6812,6.6812,6.6812,6.6812,6.6812,6.6812,6.6812,6.6812,6.6812,6.6339,6.573,6.5121,6.4783,6.4613,6.4613,6.4106,6.37,6.37,6.3193,6.2753,6.2753,6.2753,6.2753,6.2753,6.2753,6.2753,6.2753,6.2753,6.3024,6.3632,6.37,6.3937,6.4546,6.4613,6.4647,6.4783,6.4783,6.5121,6.5865,6.5865,6.617,6.6812,6.6812,6.6812,6.6812,6.6812,6.6812,6.6812,6.6812,6.6812,6.6812,6.6812,6.6812,6.6812,6.6812,6.6812,6.6812,6.6812,6.6812,6.6812,6.6812,6.6812,6.6812,7.2496,7.2496,7.2496,7.2496,7.2496,7.2496,7.2496,7.2496,7.2496,7.2496,7.2496,7.2753,7.345,7.4147,7.4588,7.4588,7.4698,7.4639,7.4445,7.4378,7.4004,7.3058,7.2853,7.2014,7.0387,7.0148,6.9001,6.6854,6.6812,6.6812,6.6812,6.6812,6.6812,6.6812,6.6812,6.6812,6.6812,6.6812,6.6812,6.6812,6.6812,6.6812,6.6812,6.6812,6.6812,6.6812,6.6812,6.6812,6.6812,6.6812,6.6812,6.6812,6.6812,6.6812,6.6812,6.6812,6.6812,6.6812,6.6812,6.6812,6.6812,6.6812,6.6745,6.6643,6.6542,6.5527,6.4613,6.4613,6.4512,6.4444,6.4444,6.4377,6.4309,6.4309,6.4309,6.4309,6.4309,6.4309,6.4309,6.4309,6.4309,6.4343,6.4444,6.4444,6.4478,6.458,6.4613,6.4884,6.5493,6.5527,6.5899,6.6643,6.6677,6.6711,6.6812,6.6812,6.6812,6.6812,6.6812,6.6812,6.6812,6.6812,6.6812,6.6812,6.6812,6.6812,6.6812,6.6812,6.6812,6.6812,6.6812,6.6812,6.6812,6.6812,6.6812,6.6812,7.2496,7.2496,7.2496,7.2496,7.2496,7.2496,7.2496,7.2496,7.2679,7.312,7.2789,7.2973,7.4221,7.5102,7.5395,7.4955,7.5232,7.5214,7.4714,7.4586,7.4332,7.3913,7.2935,7.1972,7.1256,7.0215,6.9186,6.8098,6.8098,6.7861,6.7421,6.7861,6.7861,6.7455,6.7895,6.7861,6.7421,6.7421,6.7184,6.6812,6.6812,6.6812,6.6812,6.6812,6.6812,6.6812,6.6812,6.6812,6.6812,6.6812,6.6812,6.6812,6.6812,6.6812,6.6812,6.6812,6.6812,6.6812,6.6812,6.6812,6.6812,6.6812,6.6812,6.6812,6.6812,6.6305,6.5831,6.5831,6.5493,6.5222,6.5222,6.4884,6.4613,6.4613,6.4613,6.4613,6.4613,6.4613,6.4613,6.4613,6.4613,6.4749,6.5155,6.5222,6.5392,6.5797,6.5831,6.5967,6.6305,6.6305,6.6474,6.6812,6.6812,6.6812,6.6812,6.6812,6.6812,6.6812,6.6812,6.6812,6.6812,6.6812,6.6812,6.6812,6.6812,6.6812,6.6812,6.6812,6.6812,6.6812,6.6812,6.6812,6.6812,6.6812,6.6812,6.6812]}]]